[[{"header":{"parameterUnit":"m.s-1","parameterCategory":1,"la1":30.6,"la2":28.766,"lo1":-90.7593,"lo2":-88.6598,"dy":0.0162,"dx":0.0183,"nx":116,"ny":114,"refTime":"2023-04-14T00:00:00:Z","depth":0,"parameterNumber":2,"parameterNumberName":"U-component_of_WINDS"},"data":[0.0,0.0,0.0,0.0,0.0,0.0,0.0,0.0,0.0,0.0,0.0,0.0,0.0,0.0,0.0,0.0,0.0,0.0,0.0,0.0,0.0,0.0,0.0,0.0,0.0,0.0,0.0,0.0,0.0,0.0,0.0,0.0,0.0,0.0,0.0,0.0,0.0,0.0,0.0,0.0,0.0,0.0,0.0,0.0,0.0,0.0,0.0,0.0,0.0,0.0,0.0,0.0,0.0,0.0,0.0,0.0,0.0,0.0,0.0,0.0,0.0,0.0,0.0,0.0,0.0,0.0,0.0,0.0,0.0,0.0,0.0,0.0,0.0,0.0,0.0,0.0,0.0,0.0,0.0,0.0,0.0,0.0,0.0,0.0,0.0,0.0,0.0,0.0,0.0,0.0,0.0,0.0,0.0,0.0,0.0,0.0,0.0,0.0,0.0,0.0,0.0,0.0,0.0,0.0,0.0,0.0,0.0,0.0,0.0,0.0,0.0,0.0,0.0,0.0,0.0,0.0,0.0,0.0,0.0,0.0,0.0,0.0,0.0,0.0,0.0,0.0,0.0,0.0,0.0,0.0,0.0,0.0,0.0,0.0,0.0,0.0,0.0,0.0,0.0,0.0,0.0,0.0,0.0,0.0,0.0,0.0,0.0,0.0,0.0,0.0,0.0,0.0,0.0,0.0,0.0,0.0,0.0,0.0,0.0,0.0,0.0,0.0,0.0,0.0,0.0,0.0,0.0,0.0,0.0,0.0,0.0,0.0,0.0,0.0,0.0,0.0,0.0,0.0,0.0,0.0,0.0,0.0,0.0,0.0,0.0,0.0,0.0,0.0,0.0,0.0,0.0,0.0,0.0,0.0,0.0,0.0,0.0,0.0,0.0,0.0,0.0,0.0,0.0,0.0,0.0,0.0,0.0,0.0,0.0,0.0,0.0,0.0,0.0,0.0,0.0,0.0,0.0,0.0,0.0,0.0,0.0,0.0,0.0,0.0,0.0,0.0,0.0,0.0,0.0,0.0,0.0,0.0,0.0,0.0,0.0,0.0,0.0,0.0,0.0,0.0,0.0,0.0,0.0,0.0,0.0,0.0,0.0,0.0,0.0,0.0,0.0,0.0,0.0,0.0,0.0,0.0,0.0,0.0,0.0,0.0,0.0,0.0,0.0,0.0,0.0,0.0,0.0,0.0,0.0,0.0,0.0,0.0,0.0,0.0,0.0,0.0,0.0,0.0,0.0,0.0,0.0,0.0,0.0,0.0,0.0,0.0,0.0,0.0,0.0,0.0,0.0,0.0,0.0,0.0,0.0,0.0,0.0,0.0,0.0,0.0,0.0,0.0,0.0,0.0,0.0,0.0,0.0,0.0,0.0,0.0,0.0,0.0,0.0,0.0,0.0,0.0,0.0,0.0,0.0,0.0,0.0,0.0,0.0,0.0,0.0,0.0,0.0,0.0,0.0,0.0,0.0,0.0,0.0,0.0,0.0,0.0,0.0,0.0,0.0,0.0,0.0,0.0,0.0,0.0,0.0,0.0,0.0,0.0,0.0,0.0,0.0,0.0,0.0,0.0,0.0,0.0,0.0,0.0,0.0,0.0,0.0,0.0,0.0,0.0,0.0,0.0,0.0,0.0,0.0,0.0,0.0,0.0,0.0,0.0,0.0,0.0,0.0,0.0,0.0,0.0,0.0,0.0,0.0,0.0,0.0,0.0,0.0,0.0,0.0,0.0,0.0,0.0,0.0,0.0,0.0,0.0,0.0,0.0,0.0,0.0,0.0,0.0,0.0,0.0,0.0,0.0,0.0,0.0,0.0,0.0,0.0,0.0,0.0,0.0,0.0,0.0,0.0,0.0,0.0,0.0,0.0,0.0,0.0,0.0,0.0,0.0,0.0,0.0,0.0,0.0,0.0,0.0,0.0,0.0,0.0,0.0,0.0,0.0,0.0,0.0,0.0,0.0,0.0,0.0,0.0,0.0,0.0,0.0,0.0,0.0,0.0,0.0,0.0,0.0,0.0,0.0,0.0,0.0,0.0,0.0,0.0,0.0,0.0,0.0,0.0,0.0,0.0,0.0,0.0,0.0,0.0,0.0,0.0,0.0,0.0,0.0,0.0,0.0,0.0,0.0,0.0,0.0,0.0,0.0,0.0,0.0,0.0,0.0,0.0,0.0,0.0,0.0,0.0,0.0,0.0,0.0,0.0,0.0,0.0,0.0,0.0,0.0,0.0,0.0,0.0,0.0,0.0,0.0,0.0,0.0,0.0,0.0,0.0,0.0,0.0,0.0,0.0,0.0,0.0,0.0,0.0,0.0,0.0,0.0,0.0,0.0,0.0,0.0,0.0,0.0,0.0,0.0,0.0,0.0,0.0,0.0,0.0,0.0,0.0,0.0,0.0,0.0,0.0,0.0,0.0,0.0,0.0,0.0,0.0,0.0,0.0,0.0,0.0,0.0,0.0,0.0,0.0,0.0,0.0,0.0,0.0,0.0,0.0,0.0,0.0,0.0,0.0,0.0,0.0,0.0,0.0,0.0,0.0,0.0,0.0,0.0,0.0,0.0,0.0,0.0,0.0,0.0,0.0,0.0,0.0,0.0,0.0,0.0,0.0,0.0,0.0,0.0,0.0,0.0,0.0,0.0,0.0,0.0,0.0,0.0,0.0,0.0,0.0,0.0,0.0,0.0,0.0,0.0,0.0,0.0,0.0,0.0,0.0,0.0,0.0,0.0,0.0,0.0,0.0,0.0,0.0,0.0,0.0,0.0,0.0,0.0,0.0,0.0,0.0,0.0,0.0,0.0,0.0,0.0,0.0,0.0,0.0,0.0,0.0,0.0,0.0,0.0,0.0,0.0,0.0,0.0,0.0,0.0,0.0,0.0,0.0,0.0,0.0,0.0,0.0,0.0,0.0,0.0,0.0,0.0,0.0,0.0,0.0,0.0,0.0,0.0,0.0,0.0,0.0,0.0,0.0,0.0,0.0,0.0,0.0,0.0,0.0,0.0,0.0,0.0,0.0,0.0,0.0,0.0,0.0,0.0,0.0,0.0,0.0,0.0,0.0,0.0,0.0,0.0,0.0,0.0,0.0,0.0,0.0,0.0,0.0,0.0,0.0,0.0,0.0,0.0,0.0,0.0,0.0,0.0,0.0,0.0,0.0,0.0,0.0,0.0,0.0,0.0,0.0,0.0,0.0,0.0,0.0,0.0,0.0,0.0,0.0,0.0,0.0,0.0,0.0,0.0,0.0,0.0,0.0,0.0,0.0,0.0,0.0,0.0,0.0,0.0,0.0,0.0,0.0,0.0,0.0,0.0,0.0,0.0,0.0,0.0,0.0,0.0,0.0,0.0,0.0,0.0,0.0,0.0,0.0,0.0,0.0,0.0,0.0,0.0,0.0,0.0,0.0,0.0,0.0,0.0,0.0,0.0,0.0,0.0,0.0,0.0,0.0,0.0,0.0,0.0,0.0,0.0,0.0,0.0,0.0,0.0,0.0,0.0,0.0,0.0,0.0,0.0,0.0,0.0,0.0,0.0,0.0,0.0,0.0,0.0,0.0,0.0,0.0,0.0,0.0,0.0,0.0,0.0,0.0,0.0,0.0,0.0,0.0,0.0,0.0,0.0,0.0,0.0,0.0,0.0,0.0,0.0,0.0,0.0,0.0,0.0,0.0,0.0,0.0,0.0,0.0,0.0,0.0,0.0,0.0,0.0,0.0,0.0,0.0,0.0,0.0,0.0,0.0,0.0,0.0,0.0,0.0,0.0,0.0,0.0,0.0,0.0,0.0,0.0,0.0,0.0,0.0,0.0,0.0,0.0,0.0,0.0,0.0,0.0,0.0,0.0,0.0,0.0,0.0,0.0,0.0,0.0,0.0,0.0,0.0,0.0,0.0,0.0,0.0,0.0,0.0,0.0,0.0,0.0,0.0,0.0,0.0,0.0,0.0,0.0,0.0,0.0,0.0,0.0,0.0,0.0,0.0,0.0,0.0,0.0,0.0,0.0,0.0,0.0,0.0,0.0,0.0,0.0,0.0,0.0,0.0,0.0,0.0,0.0,0.0,0.0,0.0,0.0,0.0,0.0,0.0,0.0,0.0,0.0,0.0,0.0,0.0,0.0,0.0,0.0,0.0,0.0,0.0,0.0,0.0,0.0,0.0,0.0,0.0,0.0,0.0,0.0,0.0,0.0,0.0,0.0,0.0,0.0,0.0,0.0,0.0,0.0,0.0,0.0,0.0,0.0,0.0,0.0,0.0,0.0,0.0,0.0,0.0,0.0,0.0,0.0,0.0,0.0,0.0,0.0,0.0,0.0,0.0,0.0,0.0,0.0,0.0,0.0,0.0,0.0,0.0,0.0,0.0,0.0,0.0,0.0,0.0,0.0,0.0,0.0,0.0,0.0,0.0,0.0,0.0,0.0,0.0,0.0,0.0,0.0,0.0,0.0,0.0,0.0,0.0,0.0,0.0,0.0,0.0,0.0,0.0,0.0,0.0,0.0,0.0,0.0,0.0,0.0,0.0,0.0,0.0,0.0,0.0,0.0,0.0,0.0,0.0,0.0,0.0,0.0,0.0,0.0,0.0,0.0,0.0,0.0,0.0,0.0,0.0,0.0,0.0,0.0,0.0,0.0,0.0,0.0,0.0,0.0,0.0,0.0,0.0,0.0,0.0,0.0,0.0,0.0,0.0,0.0,0.0,0.0,0.0,0.0,0.0,0.0,0.0,0.0,0.0,0.0,0.0,0.0,0.0,0.0,0.0,0.0,0.0,0.0,0.0,0.0,0.0,0.0,0.0,0.0,0.0,0.0,0.0,0.0,0.0,0.0,0.0,0.0,0.0,0.0,0.0,0.0,0.0,0.0,0.0,0.0,0.0,0.0,0.0,0.0,0.0,0.0,0.0,0.0,0.0,0.0,0.0,0.0,0.0,0.0,0.0,0.0,0.0,0.0,0.0,0.0,0.0,0.0,0.0,0.0,0.0,0.0,0.0,0.0,0.0,0.0,0.0,0.0,0.0,0.0,0.0,0.0,0.0,0.0,0.0,0.0,0.0,0.0,0.0,0.0,0.0,0.0,0.0,0.0,0.0,0.0,0.0,0.0,0.0,0.0,0.0,0.0,0.0,0.0,0.0,0.0,0.0,0.0,0.0,0.0,0.0,0.0,0.0,0.0,0.0,0.0,0.0,0.0,0.0,0.0,0.0,0.0,0.0,0.0,0.0,0.0,0.0,0.0,0.0,0.0,0.0,0.0,0.0,0.0,0.0,0.0,0.0,0.0,0.0,0.0,0.0,0.0,0.0,0.0,0.0,0.0,0.0,0.0,0.0,0.0,0.0,0.0,0.0,0.0,0.0,0.0,0.0,0.0,0.0,0.0,0.0,0.0,0.0,0.0,0.0,0.0,0.0,0.0,0.0,0.0,0.0,0.0,0.0,0.0,0.0,0.0,0.0,0.0,0.0,0.0,0.0,0.0,0.0,0.0,0.0,0.0,0.0,0.0,0.0,0.0,0.0,0.0,0.0,0.0,0.0,0.0,0.0,0.0,0.0,0.0,0.0,0.0,0.0,0.0,0.0,0.0,0.0,0.0,0.0,0.0,0.0,0.0,0.0,0.0,0.0,0.0,0.0,0.0,0.0,0.0,0.0,0.0,0.0,0.0,0.0,0.0,0.0,0.0,0.0,0.0,0.0,0.0,0.0,0.0,0.0,0.0,0.0,0.0,0.0,0.0,0.0,0.0,0.0,0.0,0.0,0.0,0.0,0.0,0.0,0.0,0.0,0.0,0.0,0.0,0.0,0.0,0.0,0.0,0.0,0.0,0.0,0.0,0.0,0.0,0.0,0.0,0.0,0.0,0.0,0.0,0.0,0.0,0.0,0.0,0.0,0.0,0.0,0.0,0.0,0.0,0.0,0.0,0.0,0.0,0.0,0.0,0.0,0.0,0.0,0.0,0.0,0.0,0.0,0.0,0.0,0.0,0.0,0.0,0.0,0.0,0.0,0.0,0.0,0.0,0.0,0.0,0.0,0.0,0.0,0.0,0.0,0.0,0.0,0.0,0.0,0.0,0.0,0.0,0.0,0.0,0.0,0.0,0.0,0.0,0.0,0.0,2.0829,0.0,0.0,0.0,0.0,0.0,0.0,0.0,0.0,0.0,0.0,0.0,0.0,0.0,0.0,0.0,0.0,0.0,0.0,0.0,0.0,0.0,0.0,0.0,0.0,0.0,0.0,0.0,0.0,0.0,0.0,0.0,0.0,0.0,0.0,0.0,0.0,0.0,0.0,0.0,0.0,0.0,0.0,0.0,0.0,0.0,0.0,0.0,0.0,0.0,0.0,0.0,0.0,0.0,0.0,0.0,0.0,0.0,0.0,0.0,0.0,0.0,0.0,0.0,0.0,0.0,0.0,0.0,0.0,0.0,0.0,0.0,0.0,0.0,0.0,0.0,0.0,0.0,0.0,0.0,0.0,0.0,0.0,0.0,0.0,0.0,0.0,0.0,0.0,0.0,0.0,0.0,0.0,0.0,0.0,0.0,0.0,0.0,0.0,0.0,0.0,0.0,0.0,0.0,0.0,0.0,0.0,0.0,0.0,0.0,0.0,0.0,0.0,0.0,0.0,0.0,0.0,2.0704,0.0,0.0,0.0,0.0,0.0,0.0,0.0,0.0,0.0,0.0,0.0,0.0,0.0,0.0,0.0,0.0,0.0,0.0,0.0,0.0,0.0,0.0,0.0,0.0,0.0,0.0,0.0,0.0,0.0,0.0,0.0,0.0,0.0,0.0,0.0,0.0,0.0,0.0,0.0,0.0,0.0,0.0,0.0,0.0,0.0,0.0,0.0,0.0,0.0,0.0,0.0,0.0,0.0,0.0,0.0,0.0,0.0,0.0,0.0,0.0,0.0,0.0,0.0,0.0,0.0,0.0,0.0,0.0,0.0,0.0,0.0,0.0,0.0,0.0,0.0,0.0,0.0,0.0,0.0,0.0,0.0,0.0,0.0,0.0,0.0,0.0,0.0,0.0,0.0,0.0,0.0,0.0,0.0,0.0,0.0,0.0,0.0,0.0,0.0,0.0,0.0,0.0,0.0,0.0,0.0,0.0,0.0,0.0,2.2083,2.199,2.1882,2.1638,2.1271,2.0903,2.0903,2.0903,2.0925,0.0,0.0,0.0,0.0,0.0,0.0,0.0,0.0,0.0,0.0,0.0,0.0,0.0,0.0,0.0,0.0,0.0,0.0,0.0,0.0,0.0,0.0,0.0,4.2986,4.2986,4.2986,4.2986,0.0,0.0,0.0,0.0,0.0,0.0,0.0,0.0,0.0,0.0,0.0,0.0,4.2057,4.2057,4.1434,4.0178,3.9426,0.0,0.0,0.0,0.0,0.0,0.0,0.0,0.0,0.0,0.0,0.0,0.0,0.0,0.0,0.0,0.0,0.0,0.0,0.0,0.0,0.0,0.0,0.0,0.0,0.0,0.0,0.0,0.0,0.0,0.0,0.0,0.0,0.0,0.0,0.0,0.0,0.0,0.0,0.0,0.0,0.0,0.0,0.0,2.8984,2.9355,0.0,0.0,0.0,0.0,0.0,0.0,0.0,0.0,0.0,0.0,0.0,0.0,0.0,0.0,2.2242,2.274,2.2988,2.2988,2.3163,2.3178,2.279,2.2531,2.2141,2.1881,2.1881,0.0,2.0335,1.992,0.0,0.0,0.0,0.0,0.0,0.0,0.0,0.0,0.0,0.0,0.0,0.0,0.0,0.0,0.0,0.0,0.0,0.0,0.0,0.0,0.0,4.2986,4.2986,4.2986,4.2986,4.2986,0.0,0.0,0.0,0.0,0.0,0.0,0.0,0.0,0.0,0.0,4.1932,4.2308,4.261,4.261,4.2028,4.0739,4.0499,3.8747,3.596,3.4733,0.0,0.0,0.0,0.0,0.0,0.0,0.0,0.0,0.0,0.0,0.0,0.0,0.0,0.0,0.0,0.0,0.0,0.0,0.0,0.0,0.0,0.0,0.0,0.0,0.0,0.0,0.0,0.0,0.0,0.0,0.0,0.0,0.0,0.0,0.0,0.0,0.0,0.0,0.0,2.9023,2.9355,2.9551,2.9609,2.9453,0.0,0.0,0.0,0.0,0.0,0.0,0.0,0.0,0.0,2.449,2.3668,2.334,2.353,2.3348,2.335,2.3666,2.3116,2.2813,2.2517,2.2127,2.1773,2.1496,2.167,2.1456,2.0949,2.0655,2.0441,2.0146,0.0,0.0,0.0,0.0,1.6589,1.6339,0.0,0.0,0.0,0.0,0.0,0.0,0.0,0.0,0.0,0.0,0.0,0.0,4.2961,4.2986,4.3037,4.3162,4.3062,4.3037,4.3187,0.0,0.0,0.0,0.0,0.0,0.0,0.0,0.0,4.2158,4.2308,4.2585,4.2986,4.2986,4.2513,4.1558,4.1215,3.9104,3.5539,3.4508,3.3633,3.2892,0.0,0.0,0.0,0.0,0.0,0.0,0.0,0.0,0.0,0.0,0.0,0.0,0.0,0.0,0.0,0.0,0.0,0.0,0.0,0.0,0.0,0.0,0.0,0.0,0.0,0.0,0.0,0.0,0.0,0.0,0.0,0.0,0.0,0.0,0.0,0.0,0.0,2.9648,3.0019,2.9922,3.0371,3.0312,0.0,0.0,0.0,0.0,0.0,0.0,2.5727,2.5423,2.5015,2.4859,2.4471,2.4291,2.4437,2.4014,2.3794,2.4023,2.3203,2.2759,2.2408,2.2096,2.1844,2.1563,2.179,2.1844,2.1737,2.09,2.0472,2.0112,1.8384,1.7591,1.7387,1.5857,1.5266,1.5073,0.0,0.0,0.0,0.0,0.0,0.0,0.0,0.0,0.0,0.0,0.0,4.2384,4.2911,4.2986,4.3187,4.3714,4.3288,4.3212,4.374,4.2258,0.0,0.0,0.0,0.0,0.0,0.0,0.0,4.2158,4.2685,4.2961,4.2986,4.2986,4.2986,4.2849,4.1672,3.9384,3.6522,3.6063,3.4911,3.3306,3.2892,0.0,0.0,0.0,0.0,0.0,0.0,0.0,0.0,0.0,0.0,0.0,0.0,0.0,0.0,0.0,0.0,0.0,0.0,0.0,0.0,0.0,0.0,0.0,0.0,0.0,0.0,0.0,0.0,0.0,0.0,0.0,0.0,0.0,0.0,0.0,0.0,0.0,0.0,3.0879,3.1562,0.0,0.0,0.0,0.0,2.8064,2.7208,2.6404,2.5866,2.5801,2.5458,2.4613,2.4525,2.4408,2.4115,2.4393,2.4407,2.4023,2.3919,2.376,2.3352,2.3238,2.3073,2.2779,2.2792,2.2632,2.2178,2.0011,1.9164,1.8836,1.6952,1.6129,1.5803,1.4465,1.3854,1.3564,0.0,0.0,0.0,0.0,0.0,0.0,0.0,0.0,0.0,4.1254,4.1831,4.2359,4.2911,4.2986,4.3062,4.3263,4.3087,4.2911,4.276,4.2183,0.0,0.0,0.0,0.0,0.0,0.0,4.1781,4.2685,4.2886,4.2986,4.2986,4.2986,4.2513,4.1672,4.0384,3.8866,3.7025,3.6566,3.5403,3.3782,3.3327,3.3141,0.0,0.0,0.0,0.0,0.0,0.0,0.0,0.0,0.0,0.0,0.0,0.0,0.0,0.0,0.0,0.0,0.0,0.0,0.0,0.0,0.0,0.0,0.0,0.0,0.0,0.0,0.0,0.0,0.0,0.0,0.0,0.0,0.0,0.0,0.0,0.0,0.0,3.25,3.3535,0.0,0.0,2.9996,2.8714,2.686,2.5882,2.5206,2.472,2.493,2.4979,2.4569,2.4774,2.4785,2.4738,2.4381,2.4167,2.3941,2.3447,2.3038,2.2714,2.2686,2.2579,2.2298,2.2298,2.2231,2.1965,2.0135,1.9289,1.9124,1.7363,1.6032,1.5062,1.3545,1.3009,1.2713,0.0,0.0,0.0,0.0,0.0,0.0,0.0,0.0,0.0,4.1254,4.1831,4.2359,4.2911,4.2986,4.3062,4.3237,4.3087,4.2811,4.2459,4.2082,0.0,0.0,0.0,0.0,0.0,4.153,4.2057,4.2986,4.2986,4.2986,4.2986,4.2986,4.2263,4.11,4.0268,3.8953,3.7527,3.7046,3.5875,3.4258,3.3803,3.3513,3.3053,0.0,0.0,0.0,0.0,0.0,0.0,0.0,0.0,0.0,0.0,0.0,0.0,0.0,0.0,0.0,0.0,0.0,0.0,0.0,0.0,0.0,0.0,0.0,0.0,0.0,0.0,0.0,0.0,0.0,0.0,0.0,0.0,0.0,0.0,0.0,3.2753,3.302,3.3765,3.3219,3.0936,2.9967,2.864,2.6751,2.5697,2.5183,2.5066,2.5271,2.533,2.5227,2.5432,2.5397,2.512,2.463,2.4218,2.3997,2.3419,2.2889,2.2565,2.2672,2.2565,2.2285,2.2285,2.2231,2.1965,2.0248,1.9173,1.8615,1.6936,1.5634,1.466,1.3113,1.2418,1.219,0.0,0.0,0.0,0.0,0.0,0.0,0.0,0.0,4.0701,4.1254,4.1806,4.2333,4.2911,4.2986,4.3187,4.374,4.3288,4.2961,4.2936,4.1932,0.0,0.0,0.0,0.0,4.1329,4.1882,4.2434,4.2986,4.2986,4.2986,4.2986,4.2986,4.2263,4.11,4.0985,3.9823,3.7986,3.7527,3.6367,3.4734,3.4279,3.3706,3.2942,0.0,0.0,0.0,0.0,0.0,0.0,0.0,0.0,0.0,0.0,0.0,0.0,0.0,0.0,0.0,0.0,0.0,0.0,0.0,0.0,0.0,0.0,0.0,0.0,0.0,0.0,0.0,0.0,0.0,0.0,0.0,0.0,0.0,3.2207,3.2373,3.232,3.2356,3.2141,3.1395,3.0035,2.9158,2.8522,2.7988,2.7034,2.6647,2.6954,2.6969,2.6822,2.65,2.6486,2.6179,2.5549,2.5135,2.4844,2.4414,2.3694,2.3283,2.2873,2.318,2.3153,2.2859,2.2846,2.2686,2.2217,2.031,1.8769,1.7292,1.5502,1.478,1.4345,1.3079,1.2345,1.2012,0.0,0.0,0.0,0.0,0.0,0.0,0.0,3.9823,4.0249,4.1229,4.1455,4.1932,4.2861,4.2986,4.3037,4.3187,4.3062,4.2635,4.1831,4.1505,0.0,0.0,0.0,0.0,4.1329,4.1882,4.2434,4.2986,4.2986,4.2986,4.2986,4.2037,4.1444,4.0985,3.9193,3.7976,3.7406,3.6784,3.6018,3.519,3.4755,3.4486,3.4221,0.0,0.0,0.0,0.0,0.0,0.0,0.0,0.0,0.0,0.0,0.0,0.0,0.0,0.0,0.0,0.0,0.0,0.0,0.0,0.0,0.0,0.0,0.0,0.0,0.0,0.0,0.0,0.0,0.0,0.0,0.0,0.0,3.3086,3.3086,3.3462,3.3933,3.4518,3.3909,3.286,3.1118,3.0718,2.9688,2.7845,2.723,2.6793,2.6647,2.6413,2.6237,2.6149,2.6149,2.578,2.5031,2.5031,2.4498,2.3593,2.3372,2.3225,2.2859,2.2953,2.2939,2.2846,2.2632,2.2378,2.2071,2.1306,2.0115,1.836,1.5834,1.4223,1.3274,1.289,1.254,1.2207,0.0,0.0,0.0,0.0,0.0,0.0,0.0,3.9697,4.0099,4.1204,4.1329,4.1756,4.2861,4.2986,4.2886,4.266,4.2635,4.2158,4.1053,4.0777,0.0,0.0,0.0,4.1003,4.1329,4.2108,4.266,4.2986,4.2986,4.2986,4.2986,4.2263,4.1679,4.1297,3.9072,3.8011,3.7797,3.6687,3.608,3.5956,3.55,3.5107,3.4734,3.4104,3.3595,3.3187,3.2852,3.2733,3.2713,3.2077,0.0,0.0,0.0,0.0,0.0,0.0,0.0,0.0,0.0,0.0,0.0,0.0,0.0,0.0,0.0,0.0,0.0,0.0,0.0,0.0,0.0,0.0,0.0,0.0,3.2206,3.2906,3.3266,3.3516,3.3757,3.4105,3.305,3.1983,3.087,3.0437,2.9731,2.8262,2.7773,2.751,2.732,2.6998,2.6764,2.6632,2.6632,2.6214,2.5356,2.5341,2.4828,2.3958,2.3434,2.3233,2.3046,2.2926,2.2859,0.0,2.2686,2.2365,2.1977,2.1136,2.0165,0.0,0.0,0.0,0.0,0.0,1.2588,1.2377,0.0,0.0,0.0,0.0,0.0,0.0,0.0,3.9697,4.0074,4.1103,4.1304,4.1731,4.276,4.2886,4.2685,4.2208,4.2108,4.163,4.0576,0.0,0.0,3.9798,4.0777,4.1404,4.153,4.2484,4.3037,4.3162,4.3112,4.3112,4.3162,4.305,4.2593,4.1707,4.0058,3.9039,3.8477,3.7024,3.6601,3.6763,3.6411,3.5728,3.4921,3.4677,3.4268,3.3758,3.3619,3.3558,3.3558,3.3072,0.0,0.0,0.0,0.0,0.0,0.0,0.0,0.0,0.0,0.0,0.0,0.0,0.0,0.0,0.0,0.0,0.0,0.0,0.0,0.0,0.0,0.0,0.0,0.0,3.1463,3.2329,3.3146,3.3045,3.2757,3.2332,3.0861,2.9925,2.9925,2.9398,2.9017,2.8944,2.8666,2.8476,2.8432,0.0,0.0,0.0,0.0,2.6952,2.594,2.5876,2.5395,2.4802,2.3829,2.3394,2.3313,2.3046,2.2899,2.2859,2.2819,2.2512,2.1899,2.0617,1.9625,1.8652,1.7238,1.5944,1.4502,1.3164,1.258,1.2515,0.0,0.0,0.0,0.0,0.0,0.0,0.0,3.9697,3.9923,4.0601,4.1053,4.158,4.2233,4.2308,4.2258,4.2158,4.1756,4.1229,0.0,0.0,3.9898,4.035,4.0978,4.1756,4.2635,4.2861,4.3413,4.4292,4.3865,4.3865,4.4317,4.3247,4.2186,4.0912,4.0699,3.9321,3.7317,3.8316,3.804,3.6825,3.7115,3.668,3.5852,3.5727,3.5438,3.5129,3.5493,3.5886,3.6013,3.5012,3.5062,3.5271,3.4044,3.3047,0.0,0.0,0.0,0.0,0.0,0.0,0.0,0.0,0.0,0.0,0.0,0.0,0.0,0.0,0.0,0.0,0.0,0.0,0.0,3.1861,3.2617,3.3044,3.2904,3.2841,3.2714,3.2761,3.1209,3.0261,3.0261,3.0144,2.9851,2.9325,2.8988,2.8695,2.8447,2.8125,0.0,2.7861,2.7546,2.7036,2.6608,2.5977,2.5296,2.469,0.0,0.0,2.3327,2.326,2.31,2.2846,2.2605,2.2445,2.2298,2.1555,1.9714,1.7238,1.5814,1.439,1.3218,1.2923,1.2686,1.2556,0.0,0.0,0.0,0.0,0.0,0.0,0.0,3.9697,3.9898,4.045,4.0752,4.1128,4.1681,4.1756,4.163,4.1354,4.0827,0.0,0.0,4.0249,4.035,4.0902,4.1455,4.2133,4.2961,4.3237,4.379,4.4618,4.4644,4.4644,4.4618,4.4308,4.3839,4.3048,4.1434,4.0231,3.9122,3.8616,3.7971,3.7177,3.7405,3.7218,3.6784,3.6556,3.6181,3.5951,3.635,3.6616,3.6526,3.5977,3.6037,3.5958,3.4995,3.4277,3.3574,0.0,0.0,0.0,0.0,0.0,0.0,0.0,0.0,0.0,0.0,0.0,0.0,0.0,0.0,3.1488,0.0,0.0,3.0766,3.1061,3.1462,3.1684,3.1747,3.2006,3.2052,3.1884,3.1063,3.0583,3.0583,3.0451,3.0217,2.9895,2.9559,2.931,2.9164,2.8681,2.8278,2.8125,2.7654,2.7027,2.642,2.5965,2.5446,2.485,2.4409,2.3968,2.3541,2.3394,2.3153,2.2859,2.2712,2.2472,2.2151,2.1577,2.0067,1.7882,1.7227,1.5294,1.284,1.284,1.2775,1.2686,0.0,0.0,0.0,0.0,0.0,0.0,0.0,0.0,0.0,4.03,4.045,4.0676,4.1128,4.1178,4.0953,4.04,0.0,0.0,0.0,4.0727,4.1078,4.163,4.2183,4.2785,4.3463,4.389,4.4443,4.5121,4.5573,4.5623,4.5271,4.5748,4.583,4.542,4.2753,4.1476,4.1239,3.9045,3.7874,3.7632,3.7632,3.7632,3.746,3.7068,3.6814,3.6595,3.6912,3.6942,3.6643,3.6658,3.6443,3.6166,3.5897,3.5449,3.4824,3.3535,3.3711,0.0,0.0,0.0,0.0,0.0,0.0,0.0,0.0,0.0,3.2536,3.2134,3.2258,3.1868,3.0405,3.0024,3.0019,3.0129,3.0056,3.0246,3.0832,3.1095,3.1124,3.0861,3.0876,3.089,3.0832,3.0583,3.0422,3.0349,3.01,2.991,2.9778,2.9266,2.8646,2.8289,2.7634,2.6892,2.6224,2.591,2.5418,2.5077,2.4489,2.4048,2.3754,2.346,2.3153,2.2859,2.2859,2.2525,2.1951,2.147,2.0464,1.9108,1.9108,1.6882,1.3613,1.3358,1.2964,1.2816,0.0,0.0,0.0,0.0,0.0,0.0,0.0,0.0,0.0,3.9772,4.0199,4.0551,4.0601,4.0601,4.0375,0.0,0.0,0.0,4.0526,4.143,4.2208,4.276,4.3313,4.4116,4.5196,4.5271,4.5824,4.6853,4.6928,4.7154,4.7531,4.7606,4.6985,4.5803,4.502,4.3264,4.0979,4.0171,3.9235,3.8109,3.8109,3.7955,3.7534,3.7493,3.7473,3.7534,3.7556,3.7582,3.7525,3.7291,3.7409,3.7669,3.723,3.6797,3.6191,3.4883,0.0,3.2773,3.1738,0.0,0.0,3.25,3.2656,3.3066,0.0,0.0,3.4766,3.5899,3.521,3.4181,3.3259,3.2423,3.1554,3.0748,3.0715,3.0846,3.1198,3.1037,3.0861,3.0832,3.1081,3.1139,3.0846,3.0788,3.0656,3.0364,3.032,3.0042,2.9456,2.9051,2.8576,2.8289,2.7435,2.6955,2.6539,2.5918,2.5331,2.5077,2.4489,2.4048,2.3754,2.346,2.3153,2.2859,2.2859,2.2525,2.1977,2.1911,2.094,1.9398,1.9398,1.8205,1.6333,1.5173,1.3875,1.2832,0.0,0.0,0.0,0.0,0.0,0.0,0.0,0.0,0.0,0.0,3.9898,4.0049,4.0049,4.0049,3.9948,0.0,0.0,0.0,4.0953,4.1731,4.2534,4.3413,4.3991,4.4819,4.5949,4.5974,4.6502,4.7581,4.7933,4.8033,4.7908,4.8259,4.7808,4.6562,4.5857,4.429,4.2073,4.1397,4.0115,3.8585,3.8874,3.8677,3.8294,3.8024,3.7726,3.7213,3.6864,3.6574,0.0,3.6269,3.6485,3.674,3.6855,3.6641,3.6074,3.5019,3.4316,0.0,3.3164,0.0,0.0,0.0,3.4101,3.4863,3.5586,3.5996,3.6228,3.638,3.5283,3.4139,3.3364,3.2013,3.1151,0.0,3.111,3.1154,3.1285,3.1359,3.1256,3.0876,3.111,3.1183,3.0861,3.0817,3.0773,3.0627,3.0627,3.0345,2.992,2.9396,2.8802,2.8033,2.7203,2.6547,2.627,2.5644,2.5197,2.5077,2.4649,2.4209,2.3768,2.3647,2.3327,2.2846,2.2672,2.2458,2.2218,2.2058,2.1648,2.0979,2.0825,1.9764,1.8228,1.6923,1.5924,1.5173,0.0,0.0,0.0,0.0,0.0,0.0,0.0,0.0,0.0,0.0,0.0,3.9697,3.9697,0.0,0.0,0.0,0.0,0.0,0.0,4.2057,4.2961,4.3765,4.4769,4.5698,4.6527,4.6828,4.738,4.8159,4.8711,4.8786,4.8385,4.8812,4.856,4.7683,4.6597,4.53,4.3938,4.2725,4.1303,3.9584,3.992,3.9521,3.8562,3.8167,3.7355,3.6543,3.5958,3.5303,3.4844,3.4844,3.5059,3.5371,3.582,3.582,3.5488,3.4609,3.4101,3.3809,3.375,0.0,0.0,3.459,3.5684,3.6601,3.6836,3.7383,3.7778,3.7408,3.5816,3.4362,3.3885,3.2002,3.0803,3.1359,3.1446,3.1476,3.1563,3.1622,3.149,3.1007,3.1007,3.0993,3.0846,3.0817,3.0817,3.0817,3.0817,3.0622,3.005,2.9442,2.879,2.7811,2.701,2.6432,2.5959,2.5451,2.5157,2.5077,2.4703,2.4302,2.3888,2.3728,2.3367,2.2846,2.2632,2.2539,2.2525,2.2231,2.2111,2.2071,2.179,2.1085,1.9968,1.8982,1.8023,1.685,0.0,0.0,0.0,0.0,0.0,0.0,0.0,0.0,0.0,0.0,0.0,0.0,0.0,0.0,0.0,0.0,0.0,0.0,0.0,4.2559,4.3765,4.379,4.5899,4.7079,4.7104,4.8159,4.8711,4.8736,4.9289,4.9565,4.954,4.9565,4.9565,4.949,4.7499,4.6583,4.6405,4.4603,4.2948,4.1634,4.1634,4.0295,3.8248,3.7395,3.6423,3.542,3.527,3.4586,3.3476,3.3476,3.3496,3.3574,3.4004,3.4414,3.457,3.3711,3.2578,3.1797,0.0,0.0,3.4453,3.6172,3.7226,3.8086,3.8926,3.9121,3.9394,4.0121,3.7769,3.5532,3.5909,3.3352,3.1388,3.1724,3.1783,3.19,3.2207,3.171,3.1315,3.13,3.0759,3.0495,0.0,3.0817,3.0817,3.0817,3.0817,3.052,2.9735,2.9363,2.859,2.751,2.6974,2.652,2.5959,2.5651,2.5358,2.5077,2.4489,2.4209,2.4168,2.3607,2.3166,2.2859,2.2846,2.2846,2.2819,2.2525,2.2405,2.2378,2.2084,2.1804,2.159,2.1739,1.9756,1.685,0.0,0.0,0.0,0.0,0.0,0.0,0.0,0.0,0.0,0.0,0.0,0.0,0.0,0.0,0.0,0.0,0.0,0.0,0.0,4.1882,4.2861,4.3237,4.5045,4.6376,4.7104,4.7832,4.856,4.9314,4.9515,4.959,4.959,4.959,4.9389,4.9063,4.87,4.8101,4.7136,4.655,4.5605,4.4505,4.2787,4.1754,4.0814,3.8139,3.6354,3.514,0.0,3.3191,3.2559,3.2266,3.2363,3.2656,3.3086,3.3125,0.0,3.1992,3.2246,3.291,0.0,0.0,3.6484,3.7637,3.8789,3.9726,4.0019,4.0293,4.0586,4.0898,3.8738,3.6355,3.5539,3.3451,3.1644,3.1219,3.152,3.1915,3.2237,3.209,3.1798,3.1359,3.1124,0.0,0.0,0.0,0.0,3.0484,3.0332,2.9955,2.9174,2.8814,2.8276,2.7579,2.7378,2.6841,2.6253,2.6146,2.5758,2.5077,2.4489,2.4209,2.4182,2.3594,2.3273,2.3153,2.2953,2.2859,2.2859,2.2752,2.2712,2.2686,2.2392,2.2218,2.2111,2.2017,2.1319,2.0067,0.0,0.0,0.0,0.0,0.0,0.0,0.0,0.0,0.0,0.0,0.0,0.0,0.0,0.0,0.0,0.0,0.0,0.0,0.0,0.0,4.2032,4.2384,4.3991,4.5221,4.5924,4.6476,4.7079,4.7807,4.8033,4.8234,4.8435,4.8636,4.8636,4.8485,4.8837,4.8451,4.7653,4.7653,4.6944,4.5512,4.3773,4.2171,4.0669,3.7853,3.5773,0.0,3.2844,3.207,3.166,3.1387,3.1484,3.1758,3.2031,3.2031,0.0,0.0,3.2441,3.3848,0.0,3.6348,3.8008,3.9023,4.0019,4.0762,4.0762,4.0976,4.1172,4.1172,3.9047,3.6841,3.514,3.3355,3.1678,3.0573,3.0949,3.1607,3.2046,3.1915,3.1695,3.1505,3.1183,3.0934,0.0,0.0,0.0,3.015,3.0179,2.9844,2.8824,2.8646,2.8315,2.7696,2.7415,2.7041,2.6547,2.6333,2.5905,2.5224,2.4743,2.4462,2.4342,2.3861,2.3527,2.3313,2.3113,2.2966,2.2859,2.2859,2.2859,2.2832,2.2539,2.2418,2.2392,2.2205,2.2138,2.1965,0.0,0.0,0.0,0.0,0.0,0.0,0.0,0.0,0.0,0.0,0.0,0.0,0.0,0.0,0.0,0.0,0.0,0.0,0.0,0.0,0.0,4.1304,4.2861,4.374,4.3765,4.4292,4.4593,4.4618,4.5171,4.5698,4.6225,4.6753,4.7255,4.7732,4.7732,4.7757,4.7782,4.7757,4.6687,4.4924,4.4247,4.1683,3.8244,3.678,3.4797,3.2714,3.1799,3.125,3.0898,0.0,0.0,0.0,0.0,0.0,0.0,0.0,0.0,3.4609,3.6289,3.7695,3.8984,4.0234,4.0859,4.1172,4.1172,4.1172,4.1172,4.1113,3.9144,3.6849,0.0,0.0,3.1731,2.973,3.038,3.1263,3.1754,3.1315,3.1154,0.0,0.0,0.0,0.0,0.0,0.0,3.015,0.0,2.9844,2.8824,2.8824,2.8519,2.7736,2.7455,2.7161,2.6854,2.6253,2.5812,2.5531,2.5224,2.493,2.4649,2.4329,2.3875,2.3354,2.3313,2.314,2.2859,2.2859,2.2859,2.2832,2.2552,2.2445,2.2445,2.2445,2.2445,2.2257,0.0,0.0,0.0,0.0,0.0,0.0,0.0,0.0,0.0,0.0,0.0,0.0,0.0,0.0,0.0,0.0,0.0,0.0,0.0,0.0,0.0,0.0,0.0,0.0,0.0,0.0,0.0,4.4618,4.4769,4.492,4.5045,4.5196,4.5347,4.5447,4.5447,4.5698,4.6075,4.5648,4.561,4.5746,4.3168,4.173,4.0814,3.6902,3.4768,3.3871,3.2137,3.125,0.0,0.0,0.0,0.0,0.0,0.0,3.3437,0.0,0.0,3.6641,3.7402,3.8789,4.0176,4.084,4.1094,4.1172,4.1172,4.1172,4.0996,4.0351,3.9213,3.7511,0.0,0.0,0.0,3.1355,3.236,0.0,3.2602,3.2383,0.0,0.0,0.0,3.1466,3.072,3.062,0.0,0.0,2.9495,2.9328,2.8487,2.8318,2.8278,2.803,2.7963,2.7669,2.7161,2.636,2.5919,2.5838,2.5331,2.5037,2.4943,2.4209,2.3794,2.3634,2.318,2.2939,2.2859,2.2859,2.2859,2.2859,2.2779,2.2752,2.2752,2.2752,2.2752,2.2739,0.0,0.0,0.0,0.0,0.0,0.0,0.0,0.0,0.0,0.0,0.0,0.0,0.0,0.0,0.0,0.0,0.0,0.0,0.0,0.0,0.0,0.0,0.0,0.0,0.0,0.0,0.0,4.2811,4.2811,4.3062,4.3539,4.3539,4.3664,4.389,4.389,4.4091,4.4367,4.4041,4.4141,0.0,0.0,4.0998,4.0101,3.7176,3.515,3.3738,3.2464,0.0,0.0,0.0,0.0,3.3027,3.3223,3.416,3.5254,3.543,0.0,3.8223,3.8672,3.9785,4.0918,4.1348,4.1308,4.1133,4.0937,4.0742,4.0371,3.9492,3.8476,0.0,0.0,0.0,0.0,0.0,0.0,0.0,3.2602,3.2427,3.2383,0.0,3.2368,0.0,3.1034,3.1106,3.0709,0.0,2.9397,2.8978,2.8318,2.8136,2.8136,2.8136,2.8016,2.7669,2.7081,2.6453,2.6146,2.6146,2.5678,2.5398,2.5251,2.4623,2.4128,2.3754,0.0,2.3113,2.2859,2.2859,2.2859,2.2859,2.2859,2.2859,2.2859,2.2859,2.2859,2.2859,0.0,0.0,0.0,0.0,0.0,0.0,0.0,0.0,0.0,0.0,0.0,0.0,0.0,0.0,0.0,0.0,0.0,0.0,0.0,0.0,0.0,0.0,0.0,0.0,0.0,0.0,0.0,0.0,4.04,4.0902,4.1831,4.1831,4.2082,4.2534,4.2534,4.2534,4.2534,4.2534,4.2258,4.1781,4.1304,4.003,3.8335,0.0,3.564,3.3529,0.0,0.0,0.0,0.0,3.4034,3.4414,3.4883,3.5957,3.707,3.7441,3.8418,3.9473,3.9863,4.0566,4.125,4.1621,4.1445,4.1035,4.0547,4.0117,3.9531,3.8594,0.0,3.6228,3.4471,3.35,3.2492,3.0972,0.0,3.1783,3.3,3.2737,3.2767,3.344,3.3055,3.2451,3.166,3.1695,3.1382,3.0382,2.9395,2.871,2.8372,2.8332,2.8136,2.8136,2.7816,2.7402,2.6881,2.652,2.6333,2.6333,2.6039,2.5745,2.5451,2.5157,2.4569,2.3768,0.0,0.0,2.2859,2.2859,2.2886,2.2926,2.2886,2.2886,2.2926,2.2873,2.2859,2.2859,0.0,0.0,0.0,0.0,0.0,0.0,0.0,0.0,0.0,0.0,3.9697,3.9697,0.0,0.0,0.0,0.0,0.0,0.0,0.0,0.0,0.0,0.0,0.0,0.0,0.0,0.0,0.0,0.0,0.0,3.9948,4.0124,4.0124,4.0174,4.0275,4.0275,4.0275,4.0275,4.0275,4.0199,4.0124,3.979,3.9481,3.8939,3.7655,0.0,0.0,0.0,0.0,0.0,0.0,3.577,3.582,3.6601,3.7734,3.8769,3.8848,3.9551,4.0312,4.0391,4.0781,4.1191,4.1269,4.123,4.0976,4.0176,3.9648,0.0,0.0,3.707,3.6426,3.5355,3.5912,3.6055,3.4949,0.0,0.0,0.0,0.0,3.6841,0.0,0.0,0.0,0.0,0.0,0.0,0.0,0.0,0.0,2.9023,2.8453,2.8136,2.8136,2.7615,2.7295,2.7188,2.6413,2.6039,2.6026,2.5732,2.5438,2.5144,2.485,2.4369,2.3754,2.3514,0.0,2.2859,2.2859,2.3006,2.322,2.2966,2.302,2.322,2.2953,2.2859,2.2859,0.0,0.0,0.0,0.0,0.0,0.0,0.0,3.9697,3.9697,3.9697,3.9697,3.9697,3.9697,3.9697,3.9697,0.0,0.0,0.0,0.0,0.0,0.0,0.0,0.0,0.0,0.0,0.0,0.0,0.0,0.0,0.0,0.0,0.0,0.0,3.9697,3.9998,4.0124,4.0099,3.9823,3.9848,4.0099,3.9694,3.9465,3.9362,0.0,0.0,0.0,0.0,0.0,0.0,0.0,3.7968,3.8788,3.8655,3.9375,4.0234,4.0234,4.0527,4.0859,4.0859,4.1016,4.1269,4.1719,4.1504,4.0957,4.0098,0.0,0.0,0.0,3.5957,3.5449,3.4824,3.5046,0.0,0.0,0.0,0.0,0.0,0.0,0.0,0.0,0.0,0.0,0.0,0.0,0.0,0.0,0.0,0.0,2.9118,2.848,2.8136,2.8136,2.7575,2.7268,2.7268,2.64,2.5959,2.5959,2.5812,2.5504,2.5077,2.509,2.469,2.3981,2.3848,0.0,2.334,2.334,2.342,2.3541,2.3394,2.3327,2.3313,2.3153,2.3006,2.2859,0.0,0.0,0.0,0.0,0.0,0.0,0.0,3.9697,3.9697,3.9697,3.9697,3.9697,3.9697,3.9697,3.9697,0.0,0.0,0.0,0.0,0.0,0.0,0.0,0.0,0.0,0.0,0.0,0.0,0.0,0.0,0.0,0.0,0.0,0.0,0.0,0.0,4.045,4.0325,3.9998,4.0049,0.0,0.0,3.9873,0.0,0.0,0.0,0.0,0.0,0.0,0.0,0.0,3.9809,4.1216,4.0473,4.0833,4.146,4.1072,4.1035,4.1191,4.1289,4.125,4.1348,4.2109,4.1719,4.0898,3.9844,3.8672,0.0,0.0,3.5019,3.4629,3.4394,3.4069,3.3937,0.0,0.0,0.0,0.0,0.0,0.0,0.0,0.0,0.0,0.0,0.0,0.0,0.0,0.0,0.0,2.935,2.8439,2.8136,2.8136,2.7575,2.7268,2.7268,2.64,2.5959,2.5959,2.5959,2.5678,2.5184,2.5411,2.5064,2.4289,2.4222,0.0,0.0,2.3768,2.3808,2.3861,2.3794,2.3621,2.342,2.342,2.322,2.2966,0.0,0.0,0.0,0.0,0.0,0.0,0.0,3.9697,3.9697,3.9697,3.9697,3.9697,3.9697,3.9697,3.9697,0.0,0.0,0.0,0.0,0.0,0.0,0.0,0.0,0.0,0.0,0.0,0.0,0.0,0.0,0.0,0.0,0.0,0.0,0.0,0.0,0.0,0.0,4.0249,0.0,0.0,0.0,0.0,0.0,0.0,0.0,0.0,0.0,0.0,0.0,0.0,0.0,4.0978,4.1374,4.201,4.2269,4.0571,0.0,0.0,4.1641,4.1465,4.1289,4.1738,4.1504,4.0742,3.9082,0.0,0.0,3.5664,3.5019,3.4824,3.5195,3.5237,3.5549,0.0,0.0,3.7904,0.0,0.0,0.0,0.0,0.0,0.0,0.0,0.0,0.0,0.0,0.0,0.0,0.0,2.916,2.8136,2.8136,2.7575,2.7268,2.7268,2.64,2.5959,2.5959,2.5959,2.5785,2.5478,2.5504,2.517,2.4583,2.4315,0.0,0.0,2.3768,2.3928,2.4142,2.3875,2.3754,2.3728,2.3728,2.3541,2.3327,0.0,0.0,0.0,0.0,0.0,0.0,3.98,3.9697,3.9697,3.9697,3.9697,3.9697,3.9697,3.9697,3.9697,3.9697,0.0,0.0,0.0,0.0,0.0,0.0,0.0,0.0,0.0,0.0,0.0,4.0526,0.0,0.0,0.0,0.0,0.0,0.0,0.0,0.0,0.0,0.0,0.0,0.0,0.0,0.0,0.0,0.0,0.0,0.0,0.0,0.0,0.0,0.0,0.0,0.0,4.0792,4.1436,0.0,0.0,4.1933,4.2049,4.3042,4.3386,4.3195,4.2447,4.1465,4.0469,3.9238,0.0,3.623,3.5195,3.4824,3.4668,3.4609,3.5039,3.5566,3.6074,3.6367,0.0,0.0,0.0,0.0,0.0,0.0,0.0,0.0,0.0,0.0,0.0,0.0,0.0,0.0,3.2412,3.1271,3.1271,3.0632,2.9822,2.8868,2.7933,2.7017,2.5959,2.5959,2.5705,2.5251,2.5438,2.5197,2.4623,2.4516,0.0,0.0,2.4289,2.4356,2.4449,2.4342,2.4182,2.4035,2.4035,2.3848,2.3607,0.0,0.0,0.0,0.0,0.0,4.0945,4.0262,3.9878,3.9697,3.9697,3.9697,3.9697,3.9697,3.9697,3.9697,3.9697,3.9697,0.0,0.0,0.0,0.0,0.0,0.0,0.0,0.0,0.0,4.0425,4.0752,4.0752,0.0,0.0,0.0,0.0,0.0,0.0,0.0,0.0,0.0,0.0,0.0,0.0,0.0,0.0,0.0,0.0,0.0,0.0,0.0,0.0,0.0,0.0,0.0,0.0,0.0,0.0,0.0,4.2578,4.2837,4.3635,4.436,4.444,4.2862,4.1465,4.0254,0.0,0.0,3.5918,3.4902,3.4805,3.4766,3.4336,3.4883,3.543,3.5566,3.582,3.6426,3.7578,0.0,0.0,0.0,0.0,0.0,0.0,0.0,0.0,0.0,0.0,0.0,0.0,3.5994,3.4538,3.3397,3.2825,3.1997,3.0626,2.9829,2.8608,2.6845,2.6845,2.6275,2.5344,2.5464,2.5237,2.4756,0.0,0.0,0.0,2.4636,2.4636,2.4636,2.4636,2.4462,2.4209,2.4302,2.4155,2.3915,0.0,0.0,0.0,0.0,0.0,0.0,4.1219,4.0364,3.9697,3.9697,3.9697,3.9697,3.9697,3.9697,3.9697,3.9697,3.9697,0.0,0.0,0.0,0.0,0.0,0.0,0.0,0.0,0.0,4.0249,4.1329,4.1329,4.1882,4.2961,4.2961,0.0,0.0,0.0,0.0,0.0,0.0,0.0,0.0,0.0,0.0,0.0,0.0,0.0,0.0,0.0,0.0,0.0,0.0,0.0,0.0,0.0,0.0,0.0,0.0,4.1624,4.3486,4.331,4.3731,4.3874,4.2624,4.1465,4.0176,0.0,0.0,3.6289,3.498,3.5059,3.5234,3.4785,3.5078,3.5527,3.5937,3.6016,3.6328,3.7187,0.0,0.0,0.0,0.0,0.0,0.0,0.0,0.0,0.0,0.0,0.0,0.0,3.9254,3.7472,3.356,3.3225,3.2714,3.238,3.2015,3.0887,2.8856,2.8856,2.7919,2.5932,2.5651,2.5358,0.0,0.0,0.0,0.0,2.4636,2.4636,2.4636,2.4636,2.4462,2.4235,2.4529,2.4449,2.4235,0.0,0.0,0.0,0.0,0.0,0.0,0.0,4.0945,4.0465,3.98,3.9697,3.9697,3.9697,3.9697,3.9697,3.9697,3.9697,0.0,0.0,0.0,0.0,0.0,0.0,0.0,0.0,0.0,4.0601,4.1329,4.1329,4.1907,4.2961,4.2208,4.1882,4.1882,0.0,0.0,0.0,0.0,0.0,0.0,0.0,0.0,0.0,0.0,0.0,0.0,0.0,0.0,0.0,0.0,0.0,0.0,0.0,0.0,0.0,4.1448,4.2474,0.0,4.4258,4.5113,4.5107,4.2303,4.0914,3.9674,3.8137,0.0,3.5586,3.4844,3.4824,3.4785,3.4355,3.4629,3.5156,3.5898,3.6016,3.6211,3.6797,0.0,0.0,0.0,0.0,0.0,0.0,0.0,0.0,0.0,0.0,0.0,0.0,3.9902,3.8938,3.6992,3.6623,3.5748,3.4273,3.3748,3.2593,3.0531,3.0531,2.9592,2.7606,2.7293,0.0,0.0,0.0,0.0,0.0,2.485,2.4823,2.4636,2.4636,2.4583,2.4516,2.4609,2.4583,2.4516,0.0,0.0,0.0,0.0,0.0,0.0,0.0,4.1789,4.1119,4.0844,4.0185,3.9878,4.0262,3.9878,3.9697,3.9697,3.9697,0.0,0.0,0.0,0.0,0.0,0.0,0.0,3.9697,4.0023,4.0576,4.1329,4.1329,4.1907,4.2961,4.2057,4.1731,4.1831,4.1505,0.0,0.0,0.0,0.0,0.0,0.0,0.0,4.2082,0.0,0.0,0.0,0.0,0.0,0.0,0.0,0.0,0.0,0.0,0.0,0.0,0.0,4.2919,4.3891,0.0,4.5004,4.5044,4.238,4.0672,0.0,0.0,0.0,3.5254,3.4805,3.4707,3.457,3.416,3.4414,3.4883,3.543,3.5664,3.5996,3.6582,0.0,0.0,0.0,0.0,0.0,0.0,0.0,0.0,0.0,0.0,0.0,0.0,0.0,3.9745,3.9114,3.855,3.7504,3.585,3.5463,3.4298,3.2217,3.2217,3.1277,2.9275,2.9215,0.0,0.0,0.0,0.0,0.0,2.5714,2.539,2.4636,2.4636,2.4636,2.4636,2.4636,2.4636,2.4623,0.0,0.0,0.0,0.0,0.0,0.0,0.0,4.2861,4.1815,4.2695,4.1045,4.0185,4.1119,4.0262,3.9697,3.9697,0.0,0.0,0.0,0.0,0.0,0.0,0.0,0.0,3.9697,3.9697,4.0224,4.1279,4.1279,4.1856,4.2911,4.2308,4.1781,4.1329,4.1254,4.0953,0.0,0.0,0.0,0.0,0.0,0.0,0.0,0.0,0.0,0.0,0.0,0.0,0.0,0.0,0.0,0.0,0.0,0.0,0.0,0.0,0.0,0.0,0.0,4.364,0.0,0.0,0.0,0.0,0.0,0.0,0.0,3.4877,3.4779,3.4531,3.4101,3.4336,3.4629,3.4687,3.5098,3.5703,3.6543,0.0,0.0,0.0,0.0,0.0,0.0,0.0,0.0,0.0,0.0,0.0,0.0,0.0,4.0353,3.9902,3.9193,3.8316,3.7429,3.7062,3.5887,3.3919,3.3919,3.2961,3.1125,3.1093,0.0,0.0,0.0,0.0,0.0,2.7027,2.6149,2.4811,2.4663,2.4649,2.4636,2.4636,2.4636,2.4596,0.0,0.0,0.0,0.0,0.0,0.0,0.0,0.0,0.0,0.0,4.1617,4.0945,4.1119,4.0262,3.9697,0.0,0.0,0.0,0.0,0.0,0.0,0.0,0.0,0.0,3.9697,3.9697,4.0023,4.0701,4.0701,4.1279,4.2333,4.1354,4.1053,4.1304,4.045,4.0249,0.0,0.0,0.0,0.0,0.0,0.0,0.0,0.0,0.0,0.0,3.9747,4.0049,0.0,0.0,0.0,0.0,0.0,0.0,0.0,0.0,4.2837,4.2871,4.2665,0.0,4.366,4.1857,4.1271,4.0634,0.0,0.0,0.0,0.0,0.0,3.4082,3.3652,3.3652,3.3945,3.459,3.5098,3.5703,3.6543,0.0,0.0,0.0,0.0,0.0,0.0,0.0,0.0,0.0,0.0,0.0,0.0,0.0,4.0841,4.0353,3.9951,3.9088,3.7908,3.7491,3.6764,3.5605,3.5605,3.4786,3.3162,3.2875,0.0,0.0,0.0,0.0,2.9454,2.8522,2.7594,2.6714,2.5405,2.4836,2.4636,2.4636,2.4636,2.4596,0.0,0.0,0.0,0.0,0.0,0.0,0.0,0.0,0.0,0.0,0.0,4.211,4.2571,4.1716,0.0,0.0,0.0,0.0,0.0,0.0,0.0,0.0,0.0,3.9697,3.9697,3.9697,3.9973,4.0526,4.0526,4.1078,4.2133,4.1279,4.1053,4.1279,4.0199,3.9848,0.0,0.0,0.0,0.0,4.0953,0.0,0.0,0.0,0.0,0.0,3.9697,3.9898,0.0,4.0425,4.1078,4.1781,0.0,0.0,0.0,0.0,4.2849,4.3062,4.2812,4.2955,4.2895,4.1995,4.1322,4.0655,3.9747,0.0,0.0,0.0,0.0,0.0,3.3583,0.0,0.0,3.4297,3.4961,3.5898,0.0,0.0,0.0,0.0,0.0,0.0,0.0,0.0,0.0,0.0,0.0,0.0,0.0,0.0,4.1016,4.0841,4.0453,3.9662,3.8648,3.7796,3.7237,3.6793,3.6441,3.5754,3.4971,3.4759,3.4119,0.0,0.0,0.0,3.1055,3.0367,2.9392,2.8197,2.7335,2.6939,2.6634,2.5932,2.5556,2.5388,0.0,0.0,0.0,0.0,0.0,0.0,0.0,0.0,0.0,0.0,0.0,0.0,0.0,0.0,0.0,0.0,0.0,0.0,0.0,0.0,0.0,0.0,3.98,3.9697,3.9697,3.9697,3.9923,4.04,4.04,4.0953,4.2007,4.1379,4.1078,4.1053,4.0124,3.9697,0.0,0.0,0.0,0.0,4.04,0.0,0.0,0.0,0.0,0.0,0.0,0.0,0.0,4.0224,4.0752,4.1229,4.1229,0.0,0.0,0.0,0.0,0.0,4.2986,4.265,4.2421,4.2421,4.1494,4.0665,4.0824,0.0,0.0,0.0,0.0,0.0,0.0,0.0,0.0,0.0,0.0,0.0,0.0,0.0,0.0,0.0,0.0,0.0,0.0,0.0,0.0,0.0,0.0,0.0,0.0,0.0,0.0,4.1172,4.0705,4.0182,3.9413,3.8349,3.7633,3.7427,3.6701,3.6201,3.6201,3.6201,3.6017,0.0,0.0,0.0,3.2659,3.232,3.1203,2.9568,2.9425,2.925,2.9059,2.7795,2.7182,2.6757,0.0,0.0,0.0,0.0,0.0,0.0,0.0,0.0,0.0,0.0,0.0,0.0,0.0,0.0,0.0,0.0,0.0,0.0,0.0,0.0,0.0,4.0945,4.0185,3.9697,3.9697,3.9697,3.9747,3.9823,3.9823,4.0375,4.1455,4.0425,3.9948,3.9948,3.9772,3.9697,3.9697,3.9697,0.0,0.0,0.0,0.0,0.0,0.0,0.0,0.0,0.0,0.0,0.0,3.9798,4.0199,4.0651,4.0651,0.0,0.0,0.0,0.0,0.0,4.2308,4.2961,4.3362,4.2623,4.2528,4.233,4.1387,0.0,0.0,0.0,0.0,0.0,0.0,0.0,0.0,0.0,0.0,0.0,0.0,0.0,0.0,0.0,0.0,0.0,0.0,0.0,0.0,0.0,0.0,0.0,0.0,0.0,0.0,4.1172,4.0469,4.0063,4.0355,3.9109,3.8236,3.7427,3.6998,3.6516,3.6201,3.6201,3.6182,0.0,0.0,3.5394,3.4957,3.329,3.2185,3.154,3.0227,2.9472,2.9202,2.8916,2.8884,2.8694,0.0,0.0,0.0,0.0,0.0,0.0,0.0,0.0,0.0,0.0,0.0,0.0,0.0,0.0,0.0,0.0,0.0,0.0,0.0,0.0,4.211,4.211,4.1617,4.087,3.9697,3.9973,4.0149,4.0149,4.0425,4.1003,4.1756,4.0953,4.0425,4.0124,3.9823,3.9697,3.9697,3.9697,3.9697,3.9697,0.0,0.0,0.0,0.0,0.0,0.0,0.0,0.0,0.0,0.0,4.0074,4.0475,4.0174,0.0,0.0,0.0,0.0,0.0,4.2158,4.2735,4.3363,4.3187,4.3184,4.3078,4.2627,0.0,0.0,0.0,0.0,0.0,0.0,0.0,0.0,0.0,0.0,0.0,0.0,0.0,0.0,0.0,0.0,0.0,0.0,0.0,0.0,0.0,0.0,0.0,0.0,0.0,0.0,0.0,4.0098,3.998,4.0176,3.9426,3.8667,3.8027,3.7166,3.6664,3.6516,3.6349,3.6201,3.6182,0.0,3.5504,3.5121,3.3983,3.3287,3.2914,3.2208,3.1804,3.1632,3.0567,2.9639,2.89,0.0,0.0,0.0,0.0,0.0,0.0,0.0,0.0,0.0,0.0,0.0,0.0,0.0,0.0,0.0,0.0,0.0,0.0,0.0,4.3273,4.3177,4.3177,4.2889,4.1914,4.0083,4.0641,4.0711,4.0526,4.1078,4.148,4.1756,4.148,4.0978,4.03,3.9873,3.9697,3.9697,3.9697,3.9697,3.9697,0.0,0.0,0.0,0.0,0.0,0.0,0.0,0.0,0.0,0.0,0.0,0.0,0.0,0.0,0.0,4.045,4.1003,4.1806,4.1932,4.2359,4.2911,4.3463,0.0,4.3298,4.3721,0.0,0.0,0.0,0.0,0.0,0.0,0.0,0.0,0.0,0.0,0.0,0.0,0.0,0.0,0.0,0.0,0.0,0.0,0.0,0.0,0.0,0.0,0.0,0.0,0.0,0.0,0.0,3.9687,3.9629,3.9726,3.9277,3.8954,3.8624,3.7611,3.696,3.6812,3.6516,3.6312,3.6054,3.565,3.5247,3.4844,3.444,3.4092,3.3817,3.3817,3.3817,3.3641,3.2191,3.0941,2.9897,0.0,0.0,0.0,0.0,0.0,0.0,0.0,0.0,0.0,0.0,0.0,0.0,0.0,0.0,0.0,0.0,0.0,0.0,0.0,4.4712,4.4219,4.4219,4.3273,4.2306,4.1119,4.1719,4.1518,4.0526,4.1078,4.1103,4.0651,4.1128,4.0777,3.9747,3.9722,3.9697,3.9697,3.9697,3.9697,3.9697,3.9697,0.0,0.0,0.0,0.0,0.0,0.0,0.0,0.0,0.0,0.0,0.0,0.0,0.0,3.9798,3.9772,4.0174,4.0752,4.1254,4.1806,4.2359,4.2886,4.266,0.0,4.4152,4.3986,0.0,0.0,0.0,0.0,0.0,0.0,0.0,0.0,0.0,0.0,0.0,0.0,0.0,0.0,0.0,0.0,0.0,0.0,0.0,0.0,0.0,0.0,0.0,0.0,0.0,0.0,0.0,3.8848,3.9258,3.8828,3.8681,3.8624,3.8054,3.7568,3.6812,3.6812,3.6312,3.5632,3.5247,3.4844,3.4422,3.4018,3.3835,3.3817,3.3817,3.3817,3.3817,3.3641,3.3484,3.343,0.0,0.0,0.0,0.0,0.0,0.0,0.0,0.0,0.0,0.0,0.0,0.0,0.0,0.0,0.0,0.0,0.0,0.0,0.0,4.5504,4.5293,4.5293,4.4926,4.4247,4.315,4.2743,4.2033,4.1028,4.158,4.1555,4.1028,4.0877,4.0425,3.9697,3.9697,3.9697,3.9697,3.9697,3.9697,3.9697,3.9697,3.9697,0.0,0.0,0.0,0.0,0.0,0.0,0.0,0.0,3.9697,3.9697,3.9697,3.9697,3.9697,3.9697,4.0074,4.0551,4.0777,4.1229,4.1781,4.2333,4.2057,0.0,0.0,0.0,0.0,0.0,0.0,0.0,0.0,0.0,0.0,0.0,0.0,0.0,0.0,0.0,0.0,0.0,0.0,0.0,0.0,0.0,0.0,0.0,0.0,0.0,0.0,0.0,0.0,0.0,3.875,3.8652,3.8809,3.8652,3.8652,3.8534,3.8233,3.7862,3.7549,3.701,3.6511,3.5887,3.5222,3.4833,3.4367,3.3982,3.3817,3.3817,3.3817,3.3817,3.3817,3.3817,3.3651,3.3395,0.0,0.0,0.0,0.0,0.0,0.0,0.0,0.0,0.0,0.0,0.0,0.0,0.0,0.0,0.0,0.0,0.0,0.0,4.5956,4.5985,4.5895,4.5895,4.5895,4.5384,4.4312,4.3868,4.3174,4.2342,4.2909,4.2806,4.198,4.1282,4.0719,4.0185,3.9878,3.9697,3.9697,3.9697,3.9697,3.9697,3.9697,3.9697,0.0,0.0,0.0,0.0,0.0,0.0,0.0,0.0,3.9697,3.9697,3.9697,3.9697,3.9697,3.9697,3.9948,4.03,4.0475,4.0651,4.0953,4.1505,4.148,0.0,0.0,0.0,0.0,0.0,0.0,0.0,0.0,0.0,0.0,0.0,0.0,0.0,0.0,0.0,0.0,0.0,0.0,0.0,0.0,0.0,0.0,0.0,0.0,0.0,0.0,0.0,0.0,0.0,3.8574,3.8516,3.8359,3.8496,3.8496,3.8359,3.8088,3.7943,3.7797,3.7219,3.6645,3.5931,3.535,3.4892,3.4342,3.4066,3.3955,3.3817,3.3817,3.3817,3.3798,3.367,3.345,3.3138,0.0,0.0,0.0,0.0,0.0,0.0,0.0,0.0,0.0,0.0,0.0,0.0,0.0,0.0,0.0,0.0,0.0,0.0,4.6225,4.6046,4.5895,4.5895,4.5895,4.5384,4.4312,4.4959,4.4969,4.4556,4.5153,4.4726,4.3589,4.2589,4.1794,4.1119,4.016,3.9697,3.9697,3.9697,3.9697,3.9697,3.9697,3.9697,3.9697,0.0,0.0,0.0,0.0,0.0,0.0,0.0,3.9697,3.9697,3.9697,3.9697,3.9697,3.9697,3.9697,3.9823,4.035,4.0099,3.9823,4.0375,0.0,0.0,0.0,0.0,0.0,0.0,0.0,0.0,0.0,0.0,0.0,0.0,0.0,0.0,0.0,0.0,0.0,0.0,0.0,0.0,0.0,0.0,0.0,0.0,0.0,0.0,0.0,0.0,0.0,0.0,3.8574,3.8359,3.793,3.8359,3.8359,3.791,3.791,3.7786,3.7355,3.7355,3.6732,3.5527,3.5527,3.5022,3.437,3.437,3.4094,3.3817,3.3817,3.3817,3.3762,3.3376,3.323,3.3101,0.0,0.0,0.0,0.0,0.0,0.0,0.0,0.0,0.0,0.0,0.0,0.0,0.0,0.0,0.0,0.0,0.0,0.0,4.6225,4.6135,4.6046,4.5895,4.5895,4.5776,4.5384,4.6016,4.5768,4.4455,4.4746,4.442,4.3562,4.2861,4.2467,4.2306,4.2012,4.1419,4.0743,4.0743,4.0364,3.9697,3.9697,3.9697,3.9697,0.0,0.0,0.0,0.0,0.0,0.0,0.0,0.0,0.0,3.9697,3.9697,3.9697,3.9697,3.9697,3.9722,3.9898,3.9823,0.0,0.0,0.0,0.0,0.0,0.0,0.0,0.0,0.0,0.0,0.0,0.0,0.0,0.0,0.0,0.0,0.0,0.0,0.0,0.0,0.0,0.0,0.0,0.0,0.0,0.0,0.0,0.0,0.0,0.0,0.0,0.0,3.8574,3.8359,3.793,3.8047,3.791,3.748,3.748,3.7637,3.7767,3.7164,3.6615,3.5946,3.564,3.5173,3.4784,3.4508,3.4094,3.3817,3.3817,3.3651,3.3376,3.3266,3.2863,3.2331,0.0,0.0,0.0,0.0,0.0,0.0,0.0,0.0,0.0,0.0,0.0,0.0,0.0,0.0,0.0,0.0,0.0,0.0,0.0,4.6403,4.6225,4.6046,4.6046,4.5956,4.5895,4.6505,4.6203,4.5052,4.5275,4.5176,4.4494,4.3725,4.3506,4.3726,4.3094,4.2342,4.1559,4.1324,4.0642,3.9697,3.9697,3.9697,3.9697,0.0,0.0,0.0,0.0,0.0,0.0,0.0,0.0,0.0,3.9697,3.9697,3.9697,3.9697,3.9697,3.9697,3.9697,0.0,0.0,0.0,0.0,0.0,0.0,0.0,0.0,0.0,0.0,0.0,0.0,0.0,0.0,0.0,0.0,0.0,0.0,0.0,0.0,0.0,0.0,0.0,0.0,0.0,0.0,0.0,0.0,0.0,0.0,0.0,0.0,0.0,3.8164,3.7851,3.7422,3.7598,3.7461,3.7051,3.6875,3.6914,3.7148,3.6816,3.6444,3.5973,3.5722,3.516,3.4583,3.4482,3.4171,3.3749,3.3749,3.3465,3.309,3.2924,3.2556,3.1983,0.0,0.0,0.0,0.0,0.0,0.0,0.0,0.0,0.0,0.0,0.0,0.0,0.0,0.0,0.0,0.0,0.0,0.0,0.0,4.6756,4.6491,4.6225,4.6225,4.6046,4.5895,4.6446,4.6475,4.5895,4.6505,4.6505,4.5895,4.4897,4.4772,4.5335,4.3643,4.2753,4.2462,4.1681,4.0743,3.9878,3.9878,3.98,3.9697,3.9697,0.0,0.0,0.0,0.0,0.0,0.0,0.0,0.0,3.9697,3.9697,3.9697,3.9697,3.9697,3.9697,0.0,0.0,0.0,0.0,0.0,0.0,0.0,0.0,0.0,0.0,0.0,0.0,0.0,0.0,0.0,0.0,0.0,0.0,0.0,0.0,0.0,0.0,0.0,0.0,0.0,0.0,0.0,0.0,0.0,0.0,0.0,0.0,0.0,0.0,3.75,3.709,3.668,3.7012,3.6973,0.0,3.6113,3.5898,3.5918,3.6309,3.6269,3.5898,3.5587,3.4989,3.4258,3.4279,3.405,3.3539,3.3539,3.3369,3.301,3.2655,3.2376,3.1891,0.0,0.0,0.0,0.0,0.0,0.0,0.0,0.0,0.0,0.0,0.0,0.0,0.0,0.0,0.0,0.0,0.0,0.0,0.0,4.6844,4.6668,4.6225,4.6046,4.5956,4.5895,4.6011,4.6011,4.5895,4.6505,4.6505,4.5866,4.5685,4.5912,4.6425,4.4687,4.4177,4.454,4.3036,4.1815,4.0844,4.0844,4.0364,3.9697,3.9697,3.9697,0.0,0.0,0.0,0.0,0.0,0.0,0.0,3.9697,3.9697,3.9697,3.9697,3.9697,3.9697,0.0,0.0,0.0,0.0,0.0,0.0,0.0,0.0,0.0,0.0,0.0,0.0,0.0,0.0,0.0,0.0,0.0,0.0,0.0,0.0,0.0,0.0,0.0,0.0,0.0,0.0,0.0,0.0,0.0,0.0,0.0,0.0,0.0,3.7441,3.7344,3.709,3.668,3.6426,3.6074,0.0,3.5195,3.498,3.498,3.5078,3.5078,3.5019,3.5588,3.5258,3.422,3.4528,3.4318,3.3539,3.3539,3.3331,3.3011,3.2935,3.245,3.1912,0.0,0.0,0.0,0.0,0.0,0.0,0.0,0.0,0.0,0.0,0.0,0.0,0.0,0.0,0.0,0.0,0.0,0.0,0.0,0.0,4.6844,4.6403,4.6075,4.5895,4.5895,4.5895,4.5895,4.5895,4.6214,4.6214,4.5895,4.5895,4.6214,4.6703,4.558,4.5174,4.524,4.352,4.2208,4.1119,4.0642,4.016,3.9697,3.9697,3.9697,3.9697,3.9697,0.0,0.0,0.0,0.0,0.0,0.0,0.0,3.9697,3.9697,3.9697,3.9697,0.0,0.0,0.0,0.0,0.0,0.0,0.0,0.0,0.0,0.0,0.0,0.0,0.0,0.0,0.0,0.0,0.0,0.0,0.0,0.0,0.0,0.0,0.0,0.0,0.0,0.0,0.0,0.0,0.0,0.0,0.0,3.9396,3.863,3.7763,3.7561,3.6833,3.5723,3.5508,3.5273,3.5059,3.4609,3.4297,3.4101,3.4512,3.459,3.4434,3.5098,3.4751,3.3863,3.4309,3.41,3.3455,3.3455,3.3321,3.2982,3.2982,3.2592,3.2166,0.0,0.0,0.0,0.0,0.0,0.0,0.0,0.0,0.0,0.0,0.0,0.0,0.0,0.0,0.0,0.0,0.0,0.0,0.0,0.0,0.0,4.6668,4.6254,4.6075,4.6075,4.5985,4.5956,4.5956,4.5895,4.5895,4.5895,4.5895,4.6214,4.6795,4.5974,4.5573,4.543,4.3712,4.2598,4.169,4.0844,4.0364,4.0287,4.0287,4.0083,3.9981,3.9981,3.9878,3.9697,3.9697,0.0,0.0,0.0,0.0,3.9697,3.9697,3.9697,3.9697,0.0,0.0,0.0,0.0,0.0,0.0,0.0,0.0,0.0,0.0,0.0,0.0,0.0,0.0,0.0,0.0,0.0,0.0,0.0,0.0,0.0,0.0,0.0,0.0,0.0,0.0,0.0,0.0,0.0,0.0,4.0935,4.0651,3.9776,3.8277,3.7639,3.6616,3.508,3.476,3.459,3.459,3.416,3.3769,3.3437,3.416,3.4297,3.3984,3.4473,3.4219,3.3457,3.3887,3.3809,3.3418,3.3418,3.3165,3.3058,3.3058,3.2804,3.2422,0.0,0.0,0.0,0.0,0.0,0.0,0.0,0.0,0.0,0.0,0.0,0.0,0.0,0.0,0.0,0.0,0.0,0.0,4.7309,0.0,0.0,4.6844,4.6668,4.6521,4.6521,4.6314,4.6135,4.6135,4.5985,4.5895,4.5895,4.5895,4.6214,4.6703,4.5182,4.5239,4.6489,4.4781,4.4031,4.3815,4.3748,4.315,4.2404,4.2404,4.1815,4.1019,4.1019,4.0465,3.9697,3.9697,3.9697,0.0,0.0,0.0,3.9697,3.9697,3.9697,0.0,0.0,0.0,0.0,0.0,0.0,0.0,0.0,0.0,0.0,0.0,0.0,0.0,0.0,0.0,0.0,0.0,0.0,0.0,0.0,0.0,0.0,0.0,0.0,0.0,0.0,0.0,0.0,0.0,0.0,0.0,4.1468,4.0307,3.9322,3.8568,3.7359,3.6676,3.6485,3.4963,3.416,3.416,3.3711,3.3476,3.3418,3.3535,3.3555,3.3555,3.4355,3.4219,3.3457,3.3887,3.3809,3.3418,3.3418,3.3418,3.3292,3.3292,3.3165,3.2804,0.0,0.0,0.0,0.0,0.0,0.0,0.0,0.0,0.0,0.0,0.0,0.0,0.0,0.0,0.0,4.7309,4.7309,4.7309,4.7309,4.7019,4.6931,4.6931,4.6668,4.6609,4.6609,4.6314,4.6225,4.6225,4.5956,0.0,0.0,4.5895,4.604,4.6272,4.5528,4.5648,4.6181,4.4826,4.4312,4.4219,4.3654,4.3177,4.2792,4.2792,4.211,4.1219,4.1219,4.0541,3.9697,3.9697,3.9697,3.9697,3.9697,0.0,0.0,0.0,0.0,0.0,0.0,0.0,0.0,0.0,0.0,0.0,0.0,0.0,0.0,0.0,0.0,0.0,0.0,0.0,0.0,0.0,0.0,0.0,0.0,0.0,0.0,0.0,0.0,0.0,0.0,0.0,0.0,0.0,0.0,4.2885,4.2626,4.173,4.0724,3.9466,3.883,3.7708,3.5976,3.5163,3.4452,3.3711,3.3516,3.3418,3.3418,3.3418,3.3418,3.3437,3.3828,3.3769,3.3437,3.3633,3.3594,3.3418,3.3418,3.3418,3.3418,3.3418,3.3292,3.3165,0.0,0.0,0.0,0.0,0.0,0.0,0.0,0.0,0.0,0.0,0.0,0.0,0.0,0.0,0.0,0.0,4.7309,4.7309,4.7309,4.7106,4.7019,4.7019,4.6844,4.6785,4.6785,4.6491,4.6314,4.6403,0.0,0.0,4.5956,4.5895,4.5895,0.0,4.5895,4.5895,4.5895,4.5081,4.4712,4.462,4.3843,4.3559,4.3559,4.3559,4.2861,4.1985,4.1985,4.1145,4.0083,4.0083,3.9878,3.9697,3.9697,3.9697,0.0,0.0,0.0,0.0,0.0,0.0,0.0,0.0,0.0,0.0,0.0,0.0,0.0,0.0,0.0,0.0,0.0,0.0,0.0,0.0,0.0,0.0,0.0,0.0,0.0,0.0,0.0,0.0,0.0,0.0,0.0,0.0,0.0,4.3385,4.3144,4.276,4.1923,4.029,4.0029,3.8627,3.6338,3.562,3.4718,3.3743,3.3387,3.3203,3.3105,3.3203,3.3262,3.3262,3.3379,3.3418,3.3418,3.3418,3.3418,3.3418,3.3418,3.3418,3.3418,3.3418,3.3418,3.3418,0.0,0.0,0.0,0.0,0.0,0.0,0.0,0.0,0.0,0.0,0.0,0.0,4.7309,4.7309,4.7309,4.7309,4.7309,4.7309,4.7309,4.7309,4.7309,4.7309,4.7309,0.0,4.7309,4.6756,4.6668,4.6844,0.0,0.0,4.6225,4.5956,4.5895,4.5895,4.5895,4.5895,4.5895,4.5895,4.5805,4.5776,4.5776,4.5685,4.5685,4.5685,4.511,4.4125,4.4125,4.2861,4.1119,4.1119,4.0465,3.9697,3.9697,3.9697,3.9697,0.0,0.0,0.0,0.0,0.0,0.0,0.0,0.0,0.0,0.0,0.0,0.0,0.0,0.0,0.0,0.0,0.0,0.0,0.0,0.0,0.0,0.0,0.0,0.0,0.0,0.0,0.0,0.0,0.0,0.0,0.0,0.0,4.3096,4.211,4.2014,4.1774,4.1129,3.9873,3.9121,3.898,3.6132,3.4714,3.4592,3.3411,3.2617,3.2246,3.2656,3.2832,3.2851,3.3242,3.3418,3.3418,3.3418,3.3418,3.3418,3.3418,3.3418,3.3418,3.3418,3.3418,3.3418,0.0,0.0,0.0,0.0,0.0,0.0,0.0,0.0,0.0,0.0,0.0,0.0,0.0,4.7309,4.7309,4.7309,4.7309,4.7309,4.7309,4.7309,4.7309,4.7309,4.7309,4.7309,4.7309,4.6931,4.6844,4.6931,0.0,4.6135,4.6225,4.5956,4.5895,4.5895,4.5895,4.5895,4.5895,4.5895,4.5895,0.0,4.6046,4.6135,4.6135,4.6135,0.0,0.0,0.0,0.0,0.0,4.1419,4.0945,4.0541,3.9878,3.9697,3.9697,3.9697,3.9697,0.0,0.0,0.0,0.0,0.0,0.0,0.0,0.0,0.0,0.0,0.0,0.0,0.0,0.0,0.0,0.0,0.0,0.0,0.0,0.0,0.0,0.0,0.0,0.0,0.0,0.0,0.0,0.0,0.0,0.0,0.0,4.199,4.1653,4.1389,4.1196,4.0687,3.9919,3.8734,3.6487,3.4952,3.4139,3.3658,3.3014,3.2168,3.2324,3.2383,3.2402,3.2559,3.293,3.3398,3.3125,3.3184,3.3398,3.3125,3.3184,3.3418,3.3418,3.3418,3.3418,0.0,0.0,0.0,0.0,0.0,0.0,0.0,0.0,0.0,0.0,0.0,0.0,0.0,0.0,4.7309,4.7309,4.7309,4.7309,4.7309,4.7309,4.7309,4.7309,4.7309,4.7309,4.7309,4.7019,4.6931,4.7019,4.658,4.6403,4.6403,4.6135,4.5956,4.5956,4.5985,4.5895,4.5895,0.0,0.0,4.5895,0.0,0.0,4.6135,0.0,0.0,0.0,0.0,0.0,0.0,0.0,4.2012,4.1518,4.0567,3.9981,3.9697,3.9697,3.9697,3.9697,3.9697,0.0,0.0,0.0,0.0,0.0,0.0,0.0,0.0,0.0,0.0,0.0,0.0,0.0,0.0,0.0,0.0,0.0,0.0,0.0,0.0,0.0,0.0,0.0,0.0,0.0,0.0,0.0,0.0,0.0,4.1934,4.148,4.1172,4.1172,4.1004,4.0373,3.908,3.7109,3.5742,3.4932,3.4135,3.3248,3.2316,3.2116,3.1953,3.1953,3.1953,3.2344,3.2988,3.2695,3.2832,3.3184,3.291,3.3047,3.3418,3.3418,3.3418,3.3418,0.0,0.0,0.0,0.0,0.0,0.0,0.0,0.0,0.0,4.7309,0.0,0.0,0.0,0.0,0.0,4.7309,4.7309,4.7309,4.7309,4.7309,4.7309,4.7309,4.7309,4.7309,4.7309,4.7019,4.7019,4.7309,4.6873,4.6668,4.6931,4.6373,4.6225,4.6225,4.5956,4.5895,4.5895,0.0,4.5895,4.5895,0.0,4.6135,4.5985,0.0,0.0,0.0,4.5895,4.5293,0.0,4.4312,0.0,4.2695,4.1518,4.0567,3.9697,3.9697,3.9697,3.9697,0.0,0.0,0.0,0.0,0.0,0.0,0.0,0.0,0.0,0.0,0.0,0.0,0.0,0.0,0.0,0.0,0.0,0.0,0.0,0.0,0.0,0.0,0.0,0.0,0.0,0.0,0.0,0.0,0.0,4.2141,4.1631,4.1402,4.1172,4.1172,4.0643,4.0355,4.0355,3.8143,3.6966,3.6966,3.4576,3.3215,3.2706,3.1878,3.1504,3.1504,3.1504,3.1738,3.2129,3.2148,3.2402,3.2793,3.2793,3.3027,3.3398,3.3418,3.3418,3.3418,0.0,0.0,0.0,0.0,0.0,0.0,4.7309,4.7309,4.7309,0.0,0.0,0.0,0.0,4.7309,4.7309,4.7309,4.7309,4.7309,4.7309,4.7309,4.7309,4.7309,4.7309,4.7309,4.7309,4.7222,4.7222,4.7309,4.6931,4.6756,4.6668,4.658,4.6314,4.5956,4.6046,4.6046,4.5895,4.5895,0.0,0.0,4.6314,4.6432,0.0,0.0,0.0,0.0,0.0,4.6135,0.0,0.0,4.4312,4.3531,0.0,4.0567,3.9697,3.9697,3.9697,3.9697,3.9697,0.0,0.0,0.0,0.0,0.0,0.0,0.0,0.0,0.0,0.0,0.0,0.0,0.0,0.0,0.0,0.0,0.0,0.0,0.0,0.0,0.0,0.0,0.0,0.0,0.0,0.0,0.0,4.2643,4.2005,4.1606,4.1402,4.1004,4.0619,4.009,3.9633,3.9272,3.8227,3.7331,3.6438,3.5778,3.4913,3.3909,3.2809,3.2432,3.2316,3.1406,3.1133,3.1269,3.1562,3.2129,3.2773,3.2461,3.2598,3.3008,3.3301,3.3418,3.3418,0.0,0.0,0.0,0.0,0.0,4.7309,4.7309,4.7309,4.7309,0.0,0.0,0.0,4.7309,4.7309,4.7309,4.7309,4.7309,4.7309,4.7309,4.7309,4.7309,4.7309,4.7309,4.7309,4.7309,4.7309,4.7309,4.7309,4.7106,4.7019,4.6873,4.6697,4.6491,4.6314,4.6135,4.6046,4.6046,0.0,0.0,0.0,4.6403,0.0,0.0,4.6844,4.6844,0.0,0.0,0.0,4.6106,4.5537,4.4869,0.0,0.0,0.0,4.0262,3.9775,3.9697,3.9697,3.9697,3.9697,3.9747,0.0,0.0,0.0,4.0475,4.0752,0.0,0.0,0.0,0.0,0.0,0.0,0.0,0.0,0.0,0.0,0.0,0.0,0.0,0.0,0.0,0.0,0.0,0.0,0.0,4.3262,4.2598,4.2086,4.1606,4.1492,4.1142,4.0739,3.9994,3.9465,3.9152,3.8383,3.7655,3.6881,3.6449,3.5772,3.5113,3.3888,3.3459,3.3346,3.2113,3.1772,3.1836,3.1446,3.166,3.2246,3.2187,3.2422,3.2851,3.3262,3.3418,3.3418,0.0,0.0,4.7309,4.7309,4.7309,4.7309,4.7309,4.7309,4.7309,0.0,4.7309,4.7309,4.7309,4.7309,4.7309,4.7309,4.7309,4.7309,4.7309,4.7309,4.7309,4.7309,4.7309,4.7309,4.7309,4.7309,4.7309,4.7309,4.7309,4.7309,4.7222,4.6873,4.6756,4.6844,4.6225,0.0,0.0,0.0,0.0,4.6314,4.6491,4.6609,0.0,0.0,4.6844,0.0,4.6697,4.6491,4.6314,4.6225,4.5355,0.0,0.0,0.0,4.1219,4.0185,3.9878,3.9878,3.9697,3.9697,3.9798,0.0,0.0,0.0,4.03,4.0425,0.0,0.0,0.0,0.0,0.0,0.0,0.0,0.0,0.0,0.0,0.0,0.0,0.0,0.0,0.0,0.0,0.0,4.4041,4.3514,4.3011,4.2625,4.2287,4.172,4.172,4.1468,4.1215,4.0114,3.9561,3.9513,3.8503,3.7974,3.7974,3.6858,3.6426,3.634,3.5113,3.4558,3.4558,3.3346,3.3028,3.3128,3.1716,3.125,3.1562,3.1992,3.2402,3.2793,3.3242,3.3418,3.3418,4.7309,0.0,4.7309,4.7309,4.7309,4.7309,4.7309,4.7309,4.7309,4.7309,4.7309,4.7309,4.7309,4.7309,4.7309,4.7309,4.7309,4.7309,4.7309,4.7309,4.7309,4.7309,4.7309,4.7309,4.7309,4.7309,4.7309,4.7309,4.7309,4.7222,4.7019,4.7135,4.6961,4.6668,4.6521,4.6403,0.0,0.0,0.0,4.6491,4.658,0.0,4.6697,4.7019,4.7222,4.7135,4.7135,4.7019,4.6756,0.0,4.5355,4.4312,0.0,0.0,0.0,4.1219,4.0945,4.0743,0.0,0.0,0.0,0.0,0.0,0.0,3.9823,3.9848,3.9973,0.0,0.0,0.0,0.0,0.0,0.0,0.0,0.0,0.0,0.0,0.0,0.0,0.0,0.0,0.0,0.0,4.3463,4.3087,4.2986,4.2625,4.24,4.2287,4.2086,4.1663,4.0862,4.0231,3.9588,3.8984,3.831,3.7974,3.7974,3.7761,3.7655,3.7655,3.6449,3.5904,3.5795,3.4558,3.3614,3.2809,3.2498,3.2049,3.1562,3.1992,3.2226,3.2383,3.3144,3.3418,3.3418,4.7309,4.7309,4.7309,4.7309,4.7309,4.7309,4.7309,4.7309,4.7309,4.7309,4.7309,4.7309,4.7309,4.7309,4.7309,4.7309,4.7309,4.7309,4.7309,4.7309,4.7309,4.7309,4.7309,4.7309,4.7309,4.7309,4.7309,4.7309,4.7309,4.7222,4.7106,4.7106,4.7019,4.6961,4.6668,4.6491,0.0,0.0,4.6225,4.6403,4.658,0.0,4.6961,4.7222,4.7309,4.7309,4.7309,4.7106,4.6844,4.6225,4.5656,0.0,0.0,4.3937,4.3368,0.0,4.1617,4.1119,0.0,0.0,0.0,3.9697,0.0,0.0,0.0,3.9697,3.9772,0.0,0.0,0.0,0.0,0.0,0.0,0.0,0.0,0.0,0.0,0.0,0.0,0.0,0.0,0.0,0.0,4.3463,4.2986,4.2986,4.2849,4.265,4.2513,4.2425,4.184,4.0828,4.0293,3.9649,3.8815,3.8262,3.7974,3.7974,3.7974,3.7974,3.7974,3.7334,3.7096,3.6989,3.5772,3.5002,3.4357,3.3119,3.2486,3.2033,3.1919,3.1973,3.2226,3.2637,3.3066,3.3398,4.7538,0.0,4.7309,4.7309,4.7309,4.7309,4.7309,4.7309,4.7309,4.7309,4.7482,4.7452,4.7309,4.7452,4.7452,4.7309,4.7309,4.7309,4.7309,4.7309,4.7309,4.7309,4.7309,4.7309,4.7309,4.7309,4.7309,4.7309,4.7309,4.7309,4.7309,4.7106,4.7106,4.7309,4.6873,4.6668,0.0,0.0,0.0,4.6403,0.0,4.6844,4.7222,4.7309,4.7309,4.7309,4.7309,4.7106,4.6756,4.6225,0.0,4.5927,4.4897,4.4591,0.0,0.0,0.0,0.0,0.0,0.0,0.0,0.0,0.0,3.9697,0.0,0.0,0.0,3.9697,0.0,0.0,0.0,0.0,0.0,0.0,0.0,0.0,0.0,0.0,0.0,0.0,0.0,0.0,0.0,4.3564,4.2986,4.2986,4.2986,4.2849,4.2625,4.2625,4.2152,4.1052,4.0514,3.9758,3.8924,3.8369,3.808,3.7974,3.7974,3.7974,3.7974,3.7974,3.7974,3.7974,3.6989,3.6449,3.6013,3.4134,3.314,3.2612,3.18,3.1777,3.2187,3.2266,3.2773,3.3379,4.849,4.7849,0.0,4.7309,4.7309,4.7309,4.7309,4.7309,4.7309,4.7309,4.7934,4.8187,0.0,0.0,0.0,0.0,0.0,0.0,4.7309,0.0,4.7309,4.7309,4.7309,4.7309,4.7309,4.7309,4.7309,4.7309,4.7309,4.7309,4.7309,4.7309,4.7309,4.7309,4.7019,0.0,0.0,0.0,4.6668,0.0,4.6844,4.6931,0.0,4.7222,4.7309,4.7309,4.7309,4.7048,4.658,0.0,4.6254,4.5895,0.0,4.5685,4.5293,0.0,0.0,0.0,0.0,0.0,0.0,0.0,3.9697,0.0,0.0,0.0,3.9697,3.9697,0.0,0.0,0.0,0.0,0.0,0.0,0.0,0.0,0.0,0.0,0.0,0.0,0.0,0.0,0.0,0.0,4.2986,4.2986,4.2986,4.2986,4.2986,4.2986,4.2488,4.1607,4.1062,4.0301,3.9223,3.8582,3.821,3.7974,3.7974,3.7974,3.7974,3.7974,3.7974,3.7974,3.7868,3.7227,3.6231,3.5904,3.458,3.2612,3.18,3.1777,3.2207,3.2578,3.3027,3.3418,4.8573,4.7934,0.0,4.7309,4.7309,4.7309,4.7309,4.7309,4.7309,4.7309,4.7624,0.0,0.0,0.0,0.0,0.0,0.0,0.0,0.0,0.0,4.7849,4.7309,4.7309,4.7309,4.7309,4.7309,4.7309,4.7309,4.7309,4.7309,4.7309,4.7106,4.7106,4.7309,4.7019,0.0,4.6931,0.0,0.0,0.0,0.0,0.0,0.0,4.7309,4.7309,4.7309,4.7106,4.6931,4.6756,0.0,4.6225,0.0,0.0,0.0,0.0,0.0,0.0,0.0,0.0,0.0,0.0,0.0,0.0,0.0,4.0541,0.0,3.9697,0.0,0.0,0.0,0.0,0.0,0.0,0.0,4.0701,0.0,0.0,0.0,0.0,0.0,0.0,0.0,0.0,0.0,0.0,0.0,0.0,4.2509,4.2509,4.2509,4.2148,4.1246,4.1022,4.0261,3.8973,3.8729,3.8631,3.8421,3.8315,3.821,3.821,3.808,3.7974,3.7974,3.7974,3.7761,3.7203,3.6449,3.5223,3.3593,3.2547,3.1978,3.1777,3.1719,3.2109,3.2695,4.8953,0.0,0.0,0.0,4.7309,4.7309,4.7309,4.7309,4.7309,0.0,0.0,0.0,4.7549,4.78,0.0,0.0,0.0,4.879,0.0,0.0,4.8157,0.0,0.0,0.0,0.0,4.7309,4.7309,4.7309,4.7309,4.7309,4.7309,4.7106,4.7106,4.7309,0.0,4.7019,4.7019,0.0,0.0,4.7019,4.7019,4.7106,4.7309,4.7309,4.7309,4.7309,4.7106,4.6931,4.6756,4.6403,4.6225,0.0,4.5985,0.0,0.0,0.0,0.0,0.0,4.2889,0.0,0.0,0.0,0.0,0.0,0.0,0.0,0.0,0.0,0.0,0.0,0.0,0.0,0.0,0.0,0.0,4.0487,0.0,0.0,0.0,0.0,0.0,0.0,0.0,0.0,0.0,4.1605,4.1932,4.2082,4.1932,4.1932,4.1572,4.0807,4.0782,4.0227,3.8945,3.8945,3.8841,3.8841,3.8631,3.8526,3.8526,3.8315,3.821,3.808,3.808,3.808,3.7974,3.6989,3.6013,3.4781,3.3572,3.2662,3.18,3.1388,3.1719,3.2363,4.9726,4.8407,0.0,0.0,0.0,0.0,4.7309,0.0,0.0,0.0,0.0,0.0,0.0,0.0,0.0,0.0,0.0,4.9407,4.8656,0.0,4.8157,0.0,0.0,0.0,0.0,0.0,4.7309,4.7309,4.7309,4.7309,4.7309,4.7309,4.7309,4.7309,4.7309,4.7309,4.7309,4.7309,4.7309,4.7309,4.7309,4.7309,4.7309,0.0,4.7309,4.7309,4.7309,0.0,0.0,4.6609,4.6343,0.0,0.0,0.0,0.0,0.0,0.0,0.0,0.0,0.0,0.0,4.2792,0.0,0.0,0.0,0.0,3.9981,0.0,0.0,0.0,0.0,0.0,0.0,0.0,0.0,0.0,0.0,0.0,0.0,0.0,0.0,0.0,0.0,0.0,0.0,4.2158,4.2158,4.1932,4.1404,4.1354,4.1128,4.0551,4.0551,4.017,3.9258,3.9258,3.9154,3.8841,3.8736,3.8736,3.8736,3.8736,3.8631,3.8421,3.8421,3.821,3.7974,3.7974,3.7203,3.6013,3.4781,3.3685,3.258,3.2296,3.2402,3.2832,0.0,0.0,0.0,0.0,0.0,0.0,0.0,4.7764,0.0,0.0,0.0,0.0,0.0,0.0,5.0755,0.0,0.0,5.0538,5.0229,4.9757,0.0,0.0,0.0,4.7538,0.0,0.0,4.7309,4.7309,4.7309,4.7309,4.7309,4.7106,4.7106,4.7309,0.0,4.7106,0.0,0.0,0.0,0.0,0.0,4.7309,4.7309,0.0,0.0,4.7309,4.7309,4.7106,0.0,4.6668,4.6403,4.6046,4.5956,4.5895,4.5805,4.5504,4.4897,0.0,0.0,0.0,4.3843,4.3843,0.0,0.0,0.0,0.0,0.0,0.0,0.0,0.0,0.0,0.0,0.0,4.2574,4.244,0.0,0.0,0.0,0.0,0.0,0.0,0.0,0.0,0.0,0.0,4.0551,4.0526,4.0601,4.0777,4.0802,4.0701,4.0526,4.0526,4.0249,3.9594,3.9594,3.949,3.9387,3.9258,3.9154,3.9154,3.8945,3.8736,3.8631,3.8631,3.8631,3.8526,3.8315,3.7524,3.6426,3.5772,3.4469,3.2653,3.1979,3.1836,3.2012,4.8355,0.0,0.0,0.0,0.0,0.0,0.0,0.0,0.0,0.0,5.0579,0.0,5.2289,0.0,5.198,0.0,5.214,5.1512,5.0723,5.0384,0.0,4.9439,4.8324,0.0,0.0,0.0,0.0,0.0,0.0,4.7309,4.7309,4.7106,4.7106,4.7309,0.0,4.7106,0.0,0.0,4.7309,0.0,0.0,4.7309,0.0,0.0,4.7309,4.7309,0.0,4.7106,4.6844,4.6668,4.6403,4.6135,4.5956,4.5895,4.5895,4.5895,4.5384,4.4897,4.4897,4.4897,0.0,4.4897,4.4591,0.0,4.3937,0.0,0.0,0.0,0.0,0.0,0.0,0.0,0.0,4.3368,4.3368,4.3095,0.0,4.1887,0.0,0.0,0.0,0.0,0.0,0.0,4.0438,3.9446,3.9597,3.9772,0.0,0.0,4.0023,4.0224,4.0224,4.0049,3.9697,3.9697,3.9697,3.9697,3.9465,3.9465,3.9465,3.9258,3.905,3.8945,3.8945,3.8945,3.8736,3.8631,3.808,3.7287,3.6642,3.5223,3.3409,3.2666,3.2275,3.2187,0.0,0.0,0.0,0.0,4.7309,0.0,0.0,0.0,4.9696,0.0,5.1183,5.2403,5.3101,5.3295,5.3383,5.3304,5.3386,0.0,5.0136,5.0647,0.0,0.0,4.8738,4.8656,4.8656,4.7794,0.0,0.0,0.0,4.7309,4.7309,4.7309,4.7309,4.7309,4.7309,0.0,4.7309,4.7309,4.7309,4.7309,4.7309,4.7309,4.7309,4.7309,4.7309,4.7309,4.7309,4.7106,4.6931,4.6668,4.6403,4.6225,4.5956,4.5895,4.5895,4.5895,4.5895,4.5895,4.5895,4.5895,4.5895,4.5895,0.0,0.0,0.0,0.0,4.3177,0.0,0.0,0.0,0.0,0.0,0.0,4.4406,4.4406,4.3808,4.2167,0.0,0.0,0.0,0.0,0.0,0.0,4.1492,4.1647,3.9095,3.932,0.0,0.0,0.0,3.9145,3.9672,3.9697,3.9697,3.9697,3.9697,3.9697,3.9697,3.9697,3.9697,3.9697,3.9697,3.9594,3.9362,3.9362,3.9154,3.8841,3.8841,3.8841,3.8736,3.7287,3.5968,3.478,3.4106,3.3598,3.3242,4.8355,4.7934,4.7764,0.0,4.7309,4.7309,0.0,0.0,0.0,0.0,5.3326,5.4939,5.566,5.5259,5.5018,5.5018,5.4014,0.0,0.0,0.0,0.0,5.1434,5.0229,4.9487,4.9487,4.8738,0.0,4.7309,0.0,0.0,4.7309,4.7309,4.7309,4.7309,0.0,0.0,4.7309,4.7309,4.7309,4.7309,4.7309,4.7309,0.0,0.0,4.7309,4.7309,4.7309,4.7309,4.7106,4.6931,4.6668,4.6403,4.6225,4.6046,4.5895,4.5895,4.5895,4.5895,4.5895,4.5895,4.5895,4.5895,4.5685,4.5384,0.0,0.0,0.0,0.0,0.0,0.0,0.0,0.0,0.0,0.0,4.5504,4.5052,0.0,0.0,0.0,4.2644,0.0,0.0,4.0919,3.9853,3.9146,3.8969,3.8592,0.0,0.0,0.0,0.0,3.9697,3.9697,3.9697,3.9697,3.9697,3.9697,3.9697,3.9697,3.9697,3.9697,3.9697,3.9697,3.9594,3.9594,3.9594,3.9465,3.9258,3.9154,3.9154,3.8502,3.7068,3.5084,3.2962,3.2253,3.25,4.8301,0.0,0.0,4.7764,0.0,0.0,4.8304,0.0,0.0,5.2477,5.462,0.0,5.6647,5.6614,5.6448,5.6117,5.4759,0.0,0.0,0.0,0.0,5.1835,5.0876,5.0384,5.0384,4.9599,0.0,4.7849,0.0,0.0,4.7309,4.7309,4.7309,4.7309,0.0,4.7309,0.0,4.7309,4.7309,4.7309,4.7309,0.0,0.0,4.7309,4.7309,4.7309,4.7309,4.7309,4.7309,4.7019,4.6756,4.658,4.6314,4.5842,4.5518,4.5808,4.5488,4.5169,4.5721,4.5663,4.5518,4.5808,4.5895,4.5776,4.511,4.5504,4.5685,0.0,0.0,0.0,0.0,0.0,0.0,0.0,0.0,0.0,0.0,0.0,0.0,0.0,4.2681,0.0,4.1959,4.0005,3.8405,3.7887,3.7914,0.0,0.0,0.0,0.0,3.9697,3.9923,3.9948,3.9697,3.9923,3.9923,3.9697,3.9697,3.9697,3.9697,3.9697,3.9697,3.9697,3.9697,3.9697,3.9697,3.9594,3.9465,3.9362,3.795,3.6564,3.5156,3.2595,3.186,3.2207,0.0,0.0,0.0,0.0,0.0,0.0,0.0,5.1662,0.0,5.3642,0.0,5.6978,5.6978,5.7475,5.7541,5.6879,0.0,5.4063,5.2693,5.2573,5.2185,5.1415,5.1415,5.1275,5.1102,5.048,0.0,0.0,0.0,0.0,4.7309,4.7309,4.7309,4.7309,0.0,0.0,0.0,4.7309,4.7309,4.7309,4.7309,4.7309,4.7309,4.7309,4.7309,4.7309,4.7309,4.7309,4.7309,4.7019,4.6844,4.658,4.6314,4.5726,4.5229,4.5721,4.5024,4.4356,4.5576,4.5401,4.5053,4.5721,4.5808,4.5779,4.5866,4.5808,4.5779,4.5866,4.5895,4.5895,0.0,0.0,0.0,0.0,0.0,0.0,0.0,0.0,0.0,0.0,0.0,0.0,4.2521,4.0675,3.8678,3.6855,0.0,0.0,0.0,0.0,0.0,3.9572,4.0124,4.0224,3.9798,0.0,4.0199,3.9798,3.9722,3.9697,3.9697,3.9697,3.9697,3.9697,3.9697,3.9697,3.9697,3.9697,3.9697,3.9465,3.6942,3.5727,3.5068,3.2892,3.2153,3.2133,0.0,0.0,0.0,0.0,0.0,5.2131,5.3343,5.481,5.5783,5.5912,5.746,5.8502,5.8502,5.8071,5.774,5.7608,5.6282,0.0,0.0,0.0,0.0,5.2983,5.2983,5.2393,5.1135,5.15,5.0723,0.0,0.0,0.0,4.7309,4.7309,4.7309,4.7309,0.0,0.0,4.7019,4.7222,0.0,4.7309,4.7309,4.7309,4.7309,4.7309,4.7309,4.7309,4.7309,4.7309,4.7309,4.7222,4.7019,4.6844,4.658,4.6226,4.5989,4.5927,4.5343,4.4908,4.5663,4.5401,4.5053,4.5721,4.5459,4.5198,4.575,4.5459,4.5227,4.5779,4.5895,4.5895,4.5895,0.0,0.0,0.0,0.0,0.0,0.0,0.0,0.0,0.0,0.0,4.1828,0.0,3.9529,0.0,0.0,0.0,0.0,0.0,0.0,0.0,0.0,3.9546,0.0,0.0,0.0,4.0023,4.0375,3.9898,3.9697,3.9697,3.9697,3.9697,3.9697,3.9697,3.9697,3.9697,3.9697,3.9697,3.9569,3.8056,3.6727,3.5508,3.4112,3.2903,3.1896,0.0,0.0,0.0,0.0,0.0,0.0,0.0,5.797,0.0,5.7314,5.8162,5.8899,5.8899,5.8933,5.8933,5.8933,5.7243,5.6183,5.6183,5.4427,5.34,5.34,5.34,0.0,5.1762,5.2417,5.1629,4.9197,0.0,0.0,4.7309,4.7309,4.7222,4.7106,0.0,4.7019,0.0,0.0,0.0,4.7309,4.7309,4.7309,4.7309,4.7309,4.7309,4.7309,4.7309,4.7309,4.7309,4.7309,4.7106,4.6844,4.6668,4.6168,4.5786,4.5869,4.5198,4.4647,4.5605,4.5401,4.5053,4.5721,4.5634,4.5488,4.5808,4.5634,4.5488,4.5808,4.5895,4.5895,4.5895,4.5895,0.0,0.0,0.0,0.0,0.0,0.0,0.0,0.0,0.0,0.0,0.0,0.0,0.0,0.0,0.0,0.0,0.0,0.0,0.0,0.0,0.0,0.0,0.0,0.0,0.0,4.0099,3.9823,3.9697,3.9697,3.9697,3.9697,3.9697,3.9697,3.9697,3.9697,3.9697,3.9697,3.9594,3.8372,3.7049,3.5859,3.467,3.3663,3.2768,0.0,5.0793,0.0,0.0,5.5329,0.0,5.8621,6.0158,6.049,5.8734,5.8999,5.9363,5.9363,5.9761,5.9993,5.9993,5.8104,5.6912,5.6912,5.5024,5.3798,5.3665,5.3632,5.3268,5.2407,5.3069,5.2342,0.0,0.0,0.0,0.0,4.7396,4.7106,0.0,0.0,0.0,0.0,0.0,4.7309,4.7309,4.7309,4.7309,4.7309,4.7309,4.7309,4.7309,4.7309,4.7309,4.7309,4.7309,4.7106,4.6931,4.6756,4.6138,4.5669,4.59,4.5171,4.4414,4.5576,4.5401,4.5053,4.5721,4.5779,4.5721,4.5866,4.5779,4.5721,4.5866,4.5895,4.5895,4.5895,4.5895,0.0,0.0,0.0,0.0,0.0,0.0,0.0,0.0,0.0,0.0,4.252,0.0,0.0,0.0,0.0,3.7437,3.7186,3.8266,3.8818,0.0,0.0,4.0199,3.9873,0.0,4.0174,3.9873,3.9747,3.9697,3.9697,3.9697,3.9697,3.9697,3.9697,3.9697,3.9697,3.9697,3.9697,3.9594,3.8607,3.7394,3.61,3.5357,3.4354,3.3448,0.0,0.0,0.0,0.0,0.0,0.0,0.0,6.0158,6.1053,6.0821,6.0854,6.0887,6.0887,6.0357,5.9993,5.9993,5.8601,5.7674,5.7674,5.6249,5.5123,5.446,5.4427,5.3765,5.2407,5.3069,5.2598,0.0,0.0,4.9358,0.0,4.7709,4.7106,0.0,0.0,0.0,0.0,4.7222,4.7309,4.7309,4.7309,4.7309,4.7309,4.7309,4.7309,4.7309,4.7309,4.7309,4.7309,4.7309,4.7309,4.7222,4.6931,4.6726,4.6432,4.6195,4.555,4.4966,4.5692,4.5401,4.5053,4.5721,4.543,4.514,4.575,4.543,4.514,4.575,4.5895,4.5895,4.5895,4.5895,4.5895,0.0,0.0,0.0,0.0,0.0,4.5663,4.5053,0.0,0.0,0.0,3.9903,0.0,0.0,3.8278,3.8266,3.7236,3.8266,3.8617,3.809,0.0,3.9998,4.0425,3.9998,3.9998,4.0425,3.9923,3.9697,3.9697,3.9697,3.9697,3.9697,3.9697,3.9697,3.9697,3.9697,3.9697,3.9697,3.9594,3.8161,3.6254,3.6603,3.4997,3.286,0.0,0.0,0.0,0.0,0.0,0.0,0.0,6.102,6.1119,6.1119,6.1119,6.1119,6.1119,6.0854,6.0655,6.0655,5.9297,5.8469,5.8469,5.6249,5.4825,5.4527,5.4096,5.34,5.2407,5.3069,5.2417,0.0,0.0,0.0,0.0,0.0,0.0,0.0,0.0,4.7106,4.7106,4.7222,4.7309,4.7309,4.7309,4.7309,4.7309,4.7309,4.7309,4.7309,4.7309,4.7309,4.7309,4.7309,4.7309,4.7222,4.7019,4.6756,4.658,4.6314,4.5871,4.5547,4.5808,4.5692,4.5547,4.5808,4.5692,4.5547,4.5837,4.5663,4.5576,4.5837,4.5895,4.5895,4.5895,4.5895,4.5895,0.0,0.0,0.0,0.0,0.0,0.0,4.4966,0.0,4.313,0.0,0.0,0.0,0.0,0.0,3.7161,3.6709,3.7739,3.8241,3.8015,0.0,3.9798,4.0023,3.9798,3.9798,4.0023,3.9798,3.9697,3.9697,3.9697,3.9697,3.9697,3.9697,3.9697,3.9697,3.9697,3.9697,3.9697,3.9697,3.8712,3.7203,3.6633,3.5469,3.4019,5.9382,0.0,5.969,0.0,6.1649,6.1251,6.2047,6.1748,6.1351,6.1152,6.1119,6.1119,6.1119,6.1119,6.102,6.0821,5.9628,5.88,5.8601,5.6415,5.4957,5.4527,5.403,0.0,5.2407,5.287,5.2294,5.0538,5.0041,0.0,0.0,0.0,0.0,0.0,4.7106,4.7106,4.7309,4.7309,4.7309,4.7309,4.7309,4.7309,4.7309,4.7309,4.7309,4.7309,4.7309,4.7309,4.7309,4.7309,4.7309,4.7309,4.7106,4.6844,4.6668,4.6491,4.6225,4.6075,4.5956,4.5956,4.5956,4.5895,4.5895,4.5895,4.5895,4.5895,4.5895,4.5895,4.5895,4.5895,4.5895,4.5895,4.5895,4.5895,0.0,0.0,0.0,4.5595,0.0,4.4493,4.3713,4.2519,4.0849,3.9914,0.0,0.0,0.0,0.0,3.6358,3.7412,0.0,0.0,0.0,0.0,0.0,3.9697,3.9697,3.9697,3.9697,3.9697,3.9697,3.9697,3.9697,3.9697,3.9697,3.9697,3.9697,3.9697,3.9697,3.9697,3.9697,3.8921,3.7737,3.6805,3.578,3.4723,6.2013,6.2146,6.2378,6.314,6.3239,6.3007,6.2278,6.2179,6.1914,6.1218,6.1119,6.1119,6.1119,6.1119,6.0821,6.0092,5.933,5.8601,5.7839,5.7077,5.6017,0.0,0.0,5.3831,5.2407,5.2407,5.2373,5.2373,0.0,0.0,4.9726,0.0,4.7309,4.7309,4.7309,4.7309,4.7309,4.7309,4.7309,4.7309,4.7309,4.7309,4.7309,4.7309,4.7309,4.7309,4.7309,4.7309,4.7309,4.7309,4.7309,4.7309,4.7309,4.7106,4.6931,4.6931,4.6756,4.6491,4.6314,4.6225,4.6135,4.5956,4.5895,4.5895,4.5895,4.5895,4.5895,4.5895,4.5895,4.5895,4.5895,4.5895,4.5895,4.5895,0.0,0.0,0.0,4.4989,0.0,4.3469,4.203,4.0784,4.0069,3.8686,0.0,0.0,0.0,0.0,0.0,0.0,0.0,3.8015,3.9094,0.0,3.9697,3.9697,3.9697,3.9697,3.9697,3.9697,3.9697,3.9697,3.9697,3.9697,3.9697,3.9697,3.9697,3.9697,3.9697,3.9697,3.9697,3.8921,3.7785,3.709,3.587,3.4444,6.3537,6.3637,6.3868,6.4597,6.3935,6.3206,6.2974,6.208,6.1384,6.1152,6.1119,6.1119,6.1119,6.0655,6.0258,0.0,5.8866,5.8038,0.0,5.6183,5.499,5.4527,5.3599,5.2837,5.2407,5.2373,5.2125,5.1508,0.0,0.0,0.0,4.7849,4.7309,4.7309,4.7309,4.7309,4.7309,4.7309,4.7309,4.7309,4.7309,4.7309,4.7309,4.7309,4.7309,4.7309,4.7309,4.7309,4.7309,4.7309,4.7309,4.7309,4.7309,4.7106,4.6931,4.6931,4.6756,4.658,4.6491,4.6314,4.6225,4.6135,4.5956,4.5895,4.5895,4.5895,4.5895,4.5895,4.5895,4.5895,4.5895,4.5895,4.5895,4.5895,4.5895,0.0,4.5895,0.0,4.4881,4.3561,4.2942,4.1818,0.0,3.9144,0.0,0.0,0.0,0.0,0.0,0.0,0.0,0.0,3.932,0.0,3.9697,3.9697,3.9697,3.9697,3.9697,3.9697,3.9697,3.9697,3.9697,3.9697,3.9697,3.9697,3.9697,3.9697,3.9697,3.9697,3.9697,3.9465,3.8945,3.7905,3.6781,3.5466,6.4697,6.473,6.4862,6.5326,6.4664,6.4001,6.3736,6.2676,6.1815,6.155,6.1285,6.1119,6.1119,6.0191,0.0,5.9993,5.8899,5.8104,5.7806,5.6249,5.509,5.4527,5.3665,5.2937,5.2407,5.2373,0.0,5.1582,5.1285,5.0229,4.8573,4.8019,4.7624,4.7309,4.7309,4.7309,4.7309,4.7309,4.7309,4.7309,4.7309,4.7309,4.7309,4.7309,4.7309,4.7309,4.7309,4.7309,4.7309,4.7309,4.7309,4.7309,4.7309,4.7222,4.7019,4.7019,4.6931,4.6873,4.6756,4.658,4.6462,4.6403,4.6135,4.5956,4.5895,4.5895,4.5895,4.5895,4.5895,4.5895,4.5895,4.5895,4.5895,4.5895,4.5895,4.5776,4.5384,0.0,4.42,0.0,0.0,0.0,0.0,3.9046,3.8498,0.0,0.0,0.0,0.0,0.0,0.0,3.8868,3.9396,0.0,3.9697,3.9697,3.9697,3.9697,3.9697,3.9697,3.9697,3.9697,3.9697,3.9697,3.9697,3.9697,3.9697,3.9697,3.9697,3.9697,3.9697,3.9697,3.9594,3.8372,3.7394,3.6642,6.5425,6.5425,6.5425,0.0,6.5359,0.0,6.4498,6.3736,6.3007,6.2278,6.1583,6.1152,6.1119,5.986,5.933,6.0026,0.0,0.0,0.0,5.7011,5.6017,5.4659,5.4494,5.3831,5.2473,5.2407,5.2373,5.2373,5.1508,5.0306,4.8821,4.8708,4.824,4.7396,4.7396,4.7396,4.7309,4.7309,4.7309,4.7309,4.7309,4.7309,4.7309,4.7309,4.7309,4.7309,4.7309,4.7309,4.7309,4.7309,4.7309,4.7309,4.7309,4.7309,4.7309,4.7309,4.7309,4.7222,4.7019,4.6931,4.6844,4.6668,4.6403,4.6135,4.5956,4.5895,4.5895,4.5895,4.5895,4.5895,4.5895,4.5895,4.5895,4.5895,4.5895,4.5504,4.4406,4.3464,4.2501,0.0,0.0,0.0,0.0,3.8442,3.8115,0.0,0.0,0.0,0.0,0.0,3.8919,3.8919,3.9421,3.9697,3.9697,3.9697,3.9697,3.9697,3.9697,3.9697,3.98,3.98,3.98,3.98,3.98,3.98,3.98,3.9697,3.9697,3.9697,3.9697,3.9697,3.9594,3.8477,3.795,3.7631,0.0,0.0,6.5425,6.5425,6.4962,6.4564,6.4399,6.3736,6.3007,6.2278,6.2013,6.1715,6.1152,6.0788,6.0655,6.0821,5.8601,5.7144,5.6945,5.6282,5.5719,5.5388,5.4295,5.35,5.3169,5.2638,5.2373,5.2373,5.1508,5.0876,5.0461,4.9837,4.9116,4.824,4.824,4.7934,4.7309,4.7309,4.7309,4.7309,4.7309,4.7309,4.7309,4.7309,4.7309,4.7309,4.7309,4.7309,4.7309,4.7309,4.7309,4.7309,4.7309,4.7309,4.7309,4.7309,4.7309,4.7309,4.7222,4.7019,4.6931,4.6844,4.6668,4.6403,4.6225,4.6135,4.6135,4.6135,4.5956,4.5895,4.5895,4.5895,4.5895,4.5895,4.5895,4.5504,4.4406,4.4125,4.3245,0.0,4.0915,4.0361,3.9599,3.9371,3.912,0.0,0.0,0.0,0.0,3.927,3.9496,3.9496,3.9622,3.9697,3.9697,3.9697,3.98,3.9981,3.9981,4.0083,4.0313,4.0313,4.0313,4.0313,4.0313,4.0313,4.0313,4.0083,3.9981,3.9981,3.98,3.9697,3.9697,3.9362,3.8712,3.7713,6.5922,6.5657,6.5425,6.5425,6.5094,6.4862,6.4862,6.3968,6.314,6.2742,6.2113,6.155,6.1152,6.0821,6.0622,6.0622,5.8833,5.7541,5.721,5.6216,5.5487,5.5123,5.4361,5.3765,5.3434,5.3036,5.2705,5.2373,5.1908,5.1508,5.1102,5.0615,4.9757,4.8573,4.8573,4.8103,4.7309,4.7309,4.7309,4.7309,4.7309,4.7309,4.7309,4.7309,4.7309,4.7309,4.7309,4.7309,4.7309,4.7309,4.7309,4.7309,4.7309,4.7309,4.7309,4.7309,4.7309,4.7309,4.7309,4.7222,4.7019,4.6931,4.6844,4.6668,4.6403,4.6314,4.6225,4.6225,4.6046,4.5895,4.5895,4.5895,4.5895,4.5895,4.5895,4.5504,4.4406,4.3937,4.2958,4.1419,4.0743,4.0262,3.98,3.9697,3.9572,3.927,3.9521,0.0,3.927,3.9521,3.9697,3.9697,3.9697,3.9697,3.9697,3.9697,3.9775,4.0083,3.9981,4.0083,4.0517,4.0389,4.0389,4.0517,4.0517,4.0517,4.0517,4.0185,4.0083,4.0083,3.98,3.9697,3.9697,3.9697,3.9258,3.8502,6.6552,6.6022,6.5558,6.5425,6.5425,6.5392,6.526,6.4233,6.3372,6.314,6.2047,6.1218,6.1119,6.0556,6.0191,6.0191,5.9496,5.8701,5.7839,5.6647,5.562,5.4891,5.4759,5.4394,5.3765,5.3533,5.3135,5.2539,5.244,5.2053,5.1285,5.1285,5.0384,4.879,4.879,4.824,4.7309,4.7309,4.7309,4.7309,4.7309,4.7309,4.7309,4.7309,4.7309,4.7309,4.7309,4.7309,4.7309,4.7309,4.7309,4.7309,4.7309,4.7309,4.7309,4.7309,4.7309,4.7309,4.7309,4.7309,4.7222,4.6931,4.6931,4.6931,4.6668,4.6491,4.6314,4.6314,4.6135,4.5956,4.5895,4.5895,4.5985,4.5895,4.5895,4.5475,4.4219,0.0,4.2306,4.1119,4.0262,3.9697,3.9697,3.9697,3.9697,3.9697,3.9697,3.9697,3.9697,3.9697,3.9697,3.9697,3.9697,3.9697,3.9697,3.9697,3.9775,4.0083,3.9878,3.9981,4.0491,4.0287,4.0389,4.0593,4.0593,4.0593,4.0593,4.0287,4.0185,4.0185,3.9903,3.9697,3.9697,3.9697,3.9697,3.9362,6.6651,6.6419,6.6154,6.5525,6.5425,6.5227,6.463,6.4365,6.3769,6.251,6.2146,6.1781,6.1185,6.102,6.0953,6.0953,6.0258,5.9264,5.7873,5.7574,5.7111,5.6382,5.5786,5.5388,5.5289,5.4063,5.3367,5.3235,5.2672,5.2302,5.223,5.223,5.1252,4.9567,4.9567,4.8708,4.7309,4.7309,4.7309,4.7309,4.7309,4.7309,4.7309,4.7309,4.7309,4.7309,4.7309,4.7309,4.7309,4.7309,4.7309,4.7309,4.7309,4.7309,4.7309,4.7309,4.7309,4.7309,4.7309,4.7309,4.7222,4.6931,4.7106,4.7193,4.6931,4.6844,4.6756,4.658,4.6491,4.6314,4.5985,4.6046,4.6135,4.5985,4.5895,4.5201,4.3273,0.0,4.211,4.0185,3.98,3.9697,3.9697,3.9697,3.9697,3.9697,3.9697,3.9697,3.9697,3.9697,3.9697,3.9697,3.9697,3.9697,3.9697,3.9697,3.9775,4.0083,4.0083,4.0287,4.0896,4.0769,4.0896,4.1224,4.1224,4.1224,4.1123,4.0896,4.0694,4.0389,4.0185,3.9878,3.9697,3.9697,3.9697,3.9362,6.7247,6.6784,6.6287,6.5558,6.5425,6.5326,6.4995,6.4266,6.3537,6.2842,6.208,6.1483,6.1152,6.1119,6.1119,6.1119,6.0788,5.996,5.8502,5.7641,5.6879,5.615,5.5786,5.562,5.562,5.4162,5.34,5.34,5.2705,5.2373,5.2373,5.2373,5.1729,5.0461,5.0461,4.9599,4.8019,4.8019,4.7709,4.7309,4.7309,4.7309,4.7309,4.7309,4.7309,4.7309,4.7309,4.7309,4.7309,4.7309,4.7309,4.7309,4.7309,4.7309,4.7309,4.7309,4.7309,4.7309,4.7309,4.7309,4.7309,4.7106,4.7222,4.7309,4.7106,4.7019,4.6844,4.6756,4.658,4.6314,4.6135,4.6046,4.5956,4.5895,4.5895,0.0,0.0,4.3464,4.2404,4.1445,4.0364,3.9697,3.9697,3.9697,3.9697,3.9697,3.9697,3.9697,3.9697,3.9697,3.9697,3.9697,3.9697,3.9697,3.9697,3.9697,3.9775,4.0083,3.9981,4.0185,4.0694,4.0694,4.0795,4.1097,4.1224,4.1324,4.1324,4.0997,4.0795,4.0694,4.0287,3.9981,3.9878,3.98,3.9697,3.9362,6.7811,6.7181,6.6485,6.5591,6.5425,6.5359,6.5194,6.4233,6.3471,6.3305,6.2146,6.1351,6.1351,6.1218,6.1119,6.1119,6.1119,6.0556,5.9231,5.7939,5.6812,5.5918,5.5885,5.5885,5.5885,5.4593,5.3831,5.3665,5.297,5.2539,5.2373,5.2373,5.1908,5.1102,5.1102,5.0229,4.8872,4.8872,4.8407,4.7624,4.7624,4.7452,4.7309,4.7309,4.7309,4.7309,4.7309,4.7309,4.7309,4.7309,4.7309,4.7309,4.7309,4.7309,4.7309,4.7309,4.7309,4.7309,4.7309,4.7309,4.7309,4.7309,4.7309,4.7309,4.7309,4.7106,4.7019,4.6931,4.6668,4.6403,4.6314,4.6135,4.6046,4.5956,0.0,0.0,0.0,4.3937,4.2695,4.2501,4.0844,3.9697,3.9697,3.9697,3.9697,3.9697,3.9697,3.9697,3.9697,3.9697,3.9697,3.9697,3.9697,3.9697,3.9697,3.9697,3.98,3.9981,3.98,4.0006,4.0389,4.0389,4.0593,4.0896,4.1097,4.1198,4.1324,4.1097,4.0997,4.0896,4.0491,4.0287,4.0185,3.9878,3.98,3.9465,6.791,6.7579,6.7082,6.5657,6.5425,6.5194,6.4564,6.4365,6.4034,6.3372,6.2577,6.208,6.208,6.1516,6.1119,6.1119,6.1119,6.0755,5.996,5.9164,5.8104,5.668,5.6614,5.6614,5.6614,5.5852,5.5123,5.4427,5.3699,5.3003,5.2373,5.2373,5.1908,5.1102,5.1102,5.0538,4.9726,4.9726,4.9278,4.849,4.849,4.8019,4.7309,4.7309,4.7309,4.7309,4.7309,4.7309,4.7309,4.7309,4.7309,4.7309,4.7309,4.7309,4.7309,4.7309,4.7309,4.7309,4.7309,4.7309,4.7309,4.7309,4.7309,4.7309,4.7309,4.7309,4.7222,4.6931,4.7106,4.7135,4.6697,4.6609,4.6491,4.6225,0.0,0.0,4.4591,4.3464,4.2404,4.1419,4.0364,3.9697,3.9697,3.9697,3.9697,3.9697,3.9697,3.9697,3.9697,3.9697,3.9697,3.9697,3.9697,3.9697,3.9697,3.9697,3.9697,3.9697,3.9697,3.9878,4.0185,4.0185,4.0389,4.0896,4.0896,4.1097,4.1324,4.1324,4.1097,4.0896,4.0896,4.0694,4.0415,4.0185,4.0083,3.9853,6.8473,6.8274,6.7811,6.6353,6.6088,6.5856,6.5127,6.4664,6.4266,6.4001,6.2908,6.2179,6.2179,6.155,6.1119,6.1119,6.1119,6.0589,5.9396,5.9065,5.8237,5.6746,5.668,5.668,5.668,5.5984,5.5256,5.4527,5.3765,5.3069,5.2373,5.2373,5.223,5.1908,5.1908,5.1434,5.0615,5.0615,5.0151,4.9358,4.9358,4.8872,4.8103,4.8103,4.7794,4.7309,4.7309,4.7309,4.7309,4.7309,4.7309,4.7309,4.7309,4.7309,4.7309,4.7309,4.7309,4.7309,4.7309,4.7309,4.7309,4.7309,4.7309,4.7309,4.7309,4.7309,4.7309,4.7193,4.7106,4.7019,4.6844,4.6668,4.658,4.6491,0.0,4.5956,4.5537,4.3937,4.2695,4.2208,4.0769,3.9697,3.9697,3.9697,3.9697,3.9697,3.9697,3.9697,3.9697,3.9697,3.9697,3.9697,3.9697,3.9697,3.9697,3.9697,3.9697,3.9697,3.9697,3.98,3.9878,3.9981,4.0287,4.0694,4.0795,4.1097,4.1324,4.1324,4.1224,4.1097,4.0997,4.0896,4.0694,4.0491,4.0389,4.0185,6.8837,6.8506,6.7976,6.6751,6.632,6.5989,6.5492,6.5028,6.463,6.4399,6.3305,6.2444,6.2212,6.155,6.1119,6.1119,6.1119,6.0688,5.9661,5.9164,5.8237,5.6746,5.668,5.668,5.668,5.6216,5.5587,5.4858,5.4361,5.3765,5.3036,5.2804,5.2705,5.2705,5.2473,5.2053,5.1508,5.1508,5.1027,5.0229,5.0229,4.9757,4.8953,4.8738,4.824,4.7709,4.7396,4.7309,4.7309,4.7309,4.7309,4.7309,4.7309,4.7309,4.7309,4.7309,4.7309,4.7309,4.7309,4.7309,4.7309,4.7309,4.7309,4.7309,4.7309,4.7309,4.7309,4.7309,4.7106,4.7019,4.7019,4.6844,4.6668,4.6668,4.6491,4.6314,4.6225,4.4312,4.2889,4.2792,4.0945,3.9697,3.9697,3.9697,3.9697,3.9697,3.9697,3.9697,3.9697,3.9697,3.9697,3.9697,3.9697,3.9697,3.9697,3.9697,3.9697,3.9697,3.9697,3.9697,3.9697,3.9878,4.0185,4.0517,4.0694,4.0997,4.1324,4.1324,4.1324,4.1324,4.1097,4.0997,4.0997,4.0694,4.0593,4.0491,6.8837,6.8109,6.7413,6.6651,6.5922,6.5425,6.5425,6.5425,6.516,6.4465,6.3736,6.3007,6.2245,6.155,6.1119,6.1119,6.1119,6.1119,6.1086,5.9694,5.8237,5.6746,5.668,5.668,5.668,5.668,5.6349,5.562,5.562,5.5256,5.4494,5.3765,5.34,5.3367,5.2705,5.2373,5.2373,5.2373,5.1908,5.1102,5.1102,5.0615,4.9726,4.8953,4.8656,4.849,4.7624,4.7309,4.7309,4.7309,4.7309,4.7309,4.7309,4.7309,4.7309,4.7309,4.7309,4.7309,4.7309,4.7309,4.7309,4.7309,4.7309,4.7309,4.7309,4.7309,4.7309,4.7309,4.7309,4.7309,4.7309,4.7135,4.6931,4.6931,4.6756,4.6491,4.6225,4.4377,4.3054,4.2792,4.0945,3.9697,3.9697,3.9697,3.9697,3.9697,3.9697,3.9697,3.9697,3.9697,3.9697,3.9697,3.9697,3.9697,3.9697,3.9697,3.9697,3.9697,3.9697,3.9697,3.9697,3.9697,4.0006,4.0517,4.0517,4.0795,4.1324,4.1324,4.1324,4.1324,4.1324,4.1324,4.1324,4.0997,4.0896,4.0896,6.95,6.8871,6.8142,6.7413,6.6684,6.6022,6.5492,6.5425,6.516,6.4465,6.3736,6.3007,6.2245,6.155,6.1119,6.1119,6.1119,6.0655,5.9628,5.8668,5.7707,5.6713,5.668,5.668,5.668,5.668,5.6349,5.562,5.562,5.499,5.3732,5.3533,5.3169,5.2672,5.2473,5.2373,5.2373,5.2373,5.223,5.198,5.198,5.1508,5.0615,4.9757,4.9116,4.849,4.7624,4.7309,4.7309,4.7309,4.7309,4.7309,4.7309,4.7309,4.7309,4.7309,4.7309,4.7309,4.7309,4.7309,4.7309,4.7309,4.7309,4.7309,4.7309,4.7668,4.7997,4.7997,4.8356,4.8686,4.8686,4.8208,4.788,4.788,4.7316,4.6756,4.6668,4.5417,4.4069,4.3122,4.1789,4.0642,3.98,3.9697,3.9697,3.9697,3.9697,3.9697,3.9697,3.9697,3.9697,3.9697,3.9697,3.9697,3.9697,3.9697,3.9697,3.9697,3.9697,3.9697,3.9697,3.9697,4.0006,4.0517,4.0517,4.0795,4.1324,4.1324,4.1324,4.1324,4.1324,4.1324,4.1324,4.1198,4.1198,4.1097,6.9401,6.9003,6.8539,6.8109,6.7214,6.6353,6.5922,6.5591,6.516,6.4465,6.4001,6.3438,6.2676,6.1947,6.155,6.155,6.1285,6.0622,5.9396,5.8933,5.8204,5.7177,5.7144,5.6978,5.668,5.668,5.6481,5.6051,5.6051,5.5454,5.4295,5.3997,5.3467,5.2804,5.2804,5.2638,5.2407,5.2672,5.2638,5.2373,5.2373,5.2053,5.1508,5.0274,4.9487,4.8953,4.7709,4.7309,4.7309,4.7309,4.7309,4.7309,4.7309,4.7309,4.7309,4.7309,4.7309,4.7309,4.7309,4.7309,4.7309,4.7309,4.7309,4.7309,4.7309,4.7818,4.8297,4.8297,4.8805,4.9254,4.9254,4.8955,4.8596,4.8327,4.785,4.7316,4.6961,4.5869,4.472,4.3409,4.235,4.1219,3.9981,3.9878,3.98,3.9697,3.9697,3.9697,3.9697,3.9697,3.9697,3.9697,3.9697,3.9697,3.9697,3.9697,3.9697,3.9697,3.9697,3.9697,3.9697,3.9697,3.9903,4.0389,4.0491,4.0694,4.1097,4.1224,4.1324,4.1324,4.1324,4.1324,4.1324,4.1324,4.1324,4.1324,6.8904,6.8738,6.8672,6.8672,6.7479,6.6519,6.6519,6.5889,6.516,6.4465,6.4332,6.4001,6.3272,6.251,6.208,6.208,6.1483,6.0788,6.0059,5.9993,5.9363,5.7939,5.7839,5.7475,5.6812,5.6713,5.668,5.668,5.668,5.6316,5.562,5.4924,5.4229,5.35,5.35,5.3169,5.2605,5.3235,5.3102,5.2473,5.2473,5.244,5.223,5.0461,4.9805,4.9567,4.7934,4.7309,4.7309,4.7309,4.7309,4.7309,4.7309,4.7309,4.7309,4.7309,4.7309,4.7309,4.7309,4.7339,4.7399,4.7399,4.7429,4.7459,4.7399,4.7938,4.8446,4.8446,4.8985,4.9434,4.9434,4.9404,4.9164,4.8566,4.8416,4.8059,4.7257,4.6283,4.5201,4.3871,4.2765,4.169,4.0364,4.016,3.9981,3.9697,3.9697,3.9697,3.9697,3.9697,3.9697,3.9697,3.9697,3.9697,3.9697,3.9697,3.9697,3.9697,3.9697,3.9697,3.9697,3.9697,3.9878,4.0083,4.0389,4.0593,4.0896,4.1198,4.1324,4.1324,4.1324,4.1324,4.1324,4.1324,4.1324,4.1324,6.9599,6.9103,6.8672,6.8672,6.7479,6.6519,6.6519,6.5889,6.516,6.4465,6.3868,6.3239,6.2477,6.1781,6.1351,6.1351,6.1185,6.0788,6.0059,5.9993,5.9595,5.8701,5.8104,5.7707,5.7574,5.6978,5.668,5.668,5.668,5.6316,5.562,5.5454,5.499,5.4295,5.4295,5.4195,5.4063,5.4229,5.3864,5.3202,5.3202,5.287,5.223,5.0461,4.9805,4.9567,4.7934,4.7309,4.7309,4.7309,4.7309,4.7309,4.7309,4.7309,4.7309,4.7309,4.7309,4.7309,4.7309,4.7668,4.8087,4.8087,4.8446,4.8716,4.8177,4.8985,4.9823,4.9823,5.0331,5.081,5.081,5.0361,4.9972,4.9823,4.9374,4.9015,4.8776,4.812,4.7197,4.5952,4.4471,4.3026,4.169,4.0642,3.9981,3.9697,3.9697,3.9697,3.9697,3.9697,3.9697,3.9697,3.9697,3.9697,3.9697,3.9697,3.9697,3.9697,3.9697,3.9697,3.9697,3.9697,3.9878,4.0083,4.0185,4.0491,4.0896,4.0997,4.1097,4.1324,4.1324,4.1324,4.1324,4.1324,4.1324,4.1324,6.9334,6.9235,6.9202,6.9202,6.8307,6.7446,6.7115,6.6419,6.569,6.4962,6.4531,6.4133,6.3769,6.2775,6.1881,6.1185,6.1119,6.0953,6.0556,6.0523,6.0191,5.9463,5.8701,5.8303,5.8303,5.7243,5.668,5.668,5.668,5.6316,5.562,5.562,5.5222,5.4527,5.4891,5.4858,5.4527,5.4527,5.4096,5.3367,5.3069,5.2705,5.223,5.0461,4.9805,4.9567,4.7934,4.7309,4.7309,4.7309,4.7309,4.7309,4.7309,4.7309,4.7369,4.7668,4.7788,4.7848,4.8147,4.8506,4.8745,4.8745,4.9254,4.9553,4.8895,4.9523,5.0242,5.0242,5.075,5.1229,5.1229,5.093,5.0601,5.0301,4.9942,4.9613,4.9314,4.8985,4.8238,4.6795,4.5401,4.3739,4.1644,4.0668,4.0083,3.9878,3.98,3.9697,3.9697,3.9697,3.9697,3.9697,3.9697,3.9697,3.9697,3.9697,3.9697,3.9697,3.9697,3.9697,3.9697,3.9697,3.98,3.9878,4.0083,4.0287,4.0694,4.0896,4.1097,4.1324,4.1324,4.1324,4.1324,4.1324,4.1324,4.1324,6.9003,6.9368,6.9798,6.9798,6.9169,6.8473,6.791,6.7082,6.6287,6.569,6.5392,6.5227,6.5227,6.3935,6.2543,6.1218,6.1119,6.1119,6.1119,6.1119,6.0854,6.0225,5.9363,5.8966,5.9098,5.7508,5.6746,5.6879,5.6746,5.6382,5.5819,5.5819,5.5487,5.4924,5.5388,5.5289,5.4692,5.456,5.4096,5.3367,5.2771,5.2473,5.223,5.0615,5.0041,4.9805,4.8072,4.7542,4.7489,4.7489,4.7549,4.7608,4.7519,4.7549,4.7728,4.8147,4.8356,4.8566,4.9134,4.9344,4.9434,4.9434,4.9912,5.0272,4.9733,5.0032,5.0421,5.0421,5.084,5.1229,5.1229,5.1229,5.105,5.0481,5.0421,5.0212,4.9673,4.9494,4.8953,4.7541,4.6224,4.436,4.1555,4.0721,4.0338,4.0312,4.0031,3.98,3.98,3.98,3.98,3.9697,3.9697,3.9697,3.9697,3.9697,3.9697,3.9697,3.9697,3.9697,3.9697,3.9697,3.9697,3.9697,3.9981,4.0185,4.0491,4.0694,4.0997,4.1324,4.1324,4.1324,4.1324,4.1324,4.1324,4.1324,6.9666,6.9732,6.9798,6.9798,6.9169,6.8672,6.8572,6.738,6.6485,6.6386,6.5293,6.4498,6.4465,6.3173,6.198,6.1185,6.1119,6.1119,6.1119,6.1119,6.1053,6.0953,5.9628,5.9198,5.9827,5.7773,5.7011,5.7641,5.7011,5.6647,5.6547,5.6547,5.6481,5.6382,5.5852,5.5554,5.5421,5.4792,5.4096,5.34,5.3301,5.2904,5.2302,5.1285,5.0951,5.0723,4.9035,4.8298,4.8147,4.8147,4.8536,4.8895,4.8327,4.8536,4.8895,4.8416,4.8686,4.9164,4.9254,4.9673,5.0122,5.0122,5.0601,5.105,5.096,5.102,5.1079,5.1079,5.1169,5.1229,5.1229,5.1229,5.1199,5.1109,5.1079,5.105,5.096,5.0451,4.997,4.9789,4.752,4.5191,4.3138,4.2131,4.1441,4.1234,4.0671,4.0287,4.0083,4.0083,3.9981,3.9697,3.9697,3.9697,3.9697,3.9697,3.9697,3.9697,3.9697,3.9697,3.9697,3.9697,3.9697,3.9697,3.9697,4.0006,4.0517,4.0491,4.0795,4.1324,4.1324,4.1324,4.1324,4.1324,4.1324,4.1324,6.9798,6.9798,6.9798,6.9798,6.9533,6.9169,6.8738,6.8142,6.7446,6.6618,6.5955,6.5392,6.4962,6.3637,6.2345,6.1218,6.1119,6.1119,6.1119,6.1119,6.1119,6.1119,6.0092,5.986,6.0622,5.8833,5.8071,5.8403,5.7243,5.668,5.668,5.668,5.668,5.6647,5.5951,5.562,5.5587,5.4825,5.4096,5.34,5.34,5.3235,5.2831,5.1564,5.1361,5.1456,4.9759,4.9304,4.9539,4.8984,4.9015,4.9224,4.8925,4.9045,4.9284,4.9344,4.9583,4.9883,5.0272,5.0571,5.078,5.078,5.099,5.1229,5.1229,5.1229,5.1229,5.1229,5.1229,5.1229,5.1229,5.1229,5.1229,5.1229,5.1229,5.1229,5.1229,5.096,5.0445,4.9498,4.7405,4.5539,4.4203,4.2913,4.2087,4.1673,4.1517,4.1157,4.0313,4.0796,4.0743,3.9903,4.0102,3.9998,3.9697,3.9697,3.9697,3.9697,3.9697,3.9697,3.9697,3.9697,3.9697,3.9697,3.9697,4.0006,4.0517,4.0517,4.0821,4.1324,4.1324,4.1324,4.1324,4.1324,4.1324,4.1324]},{"header":{"parameterUnit":"m.s-1","parameterCategory":1,"la1":30.6,"la2":28.766,"lo1":-90.7593,"lo2":-88.6598,"dy":0.0162,"dx":0.0183,"nx":116,"ny":114,"refTime":"2023-04-14T00:00:00:Z","depth":0,"parameterNumber":3,"parameterNumberName":"V-component_of_WINDS"},"data":[0.0,0.0,0.0,0.0,0.0,0.0,0.0,0.0,0.0,0.0,0.0,0.0,0.0,0.0,0.0,0.0,0.0,0.0,0.0,0.0,0.0,0.0,0.0,0.0,0.0,0.0,0.0,0.0,0.0,0.0,0.0,0.0,0.0,0.0,0.0,0.0,0.0,0.0,0.0,0.0,0.0,0.0,0.0,0.0,0.0,0.0,0.0,0.0,0.0,0.0,0.0,0.0,0.0,0.0,0.0,0.0,0.0,0.0,0.0,0.0,0.0,0.0,0.0,0.0,0.0,0.0,0.0,0.0,0.0,0.0,0.0,0.0,0.0,0.0,0.0,0.0,0.0,0.0,0.0,0.0,0.0,0.0,0.0,0.0,0.0,0.0,0.0,0.0,0.0,0.0,0.0,0.0,0.0,0.0,0.0,0.0,0.0,0.0,0.0,0.0,0.0,0.0,0.0,0.0,0.0,0.0,0.0,0.0,0.0,0.0,0.0,0.0,0.0,0.0,0.0,0.0,0.0,0.0,0.0,0.0,0.0,0.0,0.0,0.0,0.0,0.0,0.0,0.0,0.0,0.0,0.0,0.0,0.0,0.0,0.0,0.0,0.0,0.0,0.0,0.0,0.0,0.0,0.0,0.0,0.0,0.0,0.0,0.0,0.0,0.0,0.0,0.0,0.0,0.0,0.0,0.0,0.0,0.0,0.0,0.0,0.0,0.0,0.0,0.0,0.0,0.0,0.0,0.0,0.0,0.0,0.0,0.0,0.0,0.0,0.0,0.0,0.0,0.0,0.0,0.0,0.0,0.0,0.0,0.0,0.0,0.0,0.0,0.0,0.0,0.0,0.0,0.0,0.0,0.0,0.0,0.0,0.0,0.0,0.0,0.0,0.0,0.0,0.0,0.0,0.0,0.0,0.0,0.0,0.0,0.0,0.0,0.0,0.0,0.0,0.0,0.0,0.0,0.0,0.0,0.0,0.0,0.0,0.0,0.0,0.0,0.0,0.0,0.0,0.0,0.0,0.0,0.0,0.0,0.0,0.0,0.0,0.0,0.0,0.0,0.0,0.0,0.0,0.0,0.0,0.0,0.0,0.0,0.0,0.0,0.0,0.0,0.0,0.0,0.0,0.0,0.0,0.0,0.0,0.0,0.0,0.0,0.0,0.0,0.0,0.0,0.0,0.0,0.0,0.0,0.0,0.0,0.0,0.0,0.0,0.0,0.0,0.0,0.0,0.0,0.0,0.0,0.0,0.0,0.0,0.0,0.0,0.0,0.0,0.0,0.0,0.0,0.0,0.0,0.0,0.0,0.0,0.0,0.0,0.0,0.0,0.0,0.0,0.0,0.0,0.0,0.0,0.0,0.0,0.0,0.0,0.0,0.0,0.0,0.0,0.0,0.0,0.0,0.0,0.0,0.0,0.0,0.0,0.0,0.0,0.0,0.0,0.0,0.0,0.0,0.0,0.0,0.0,0.0,0.0,0.0,0.0,0.0,0.0,0.0,0.0,0.0,0.0,0.0,0.0,0.0,0.0,0.0,0.0,0.0,0.0,0.0,0.0,0.0,0.0,0.0,0.0,0.0,0.0,0.0,0.0,0.0,0.0,0.0,0.0,0.0,0.0,0.0,0.0,0.0,0.0,0.0,0.0,0.0,0.0,0.0,0.0,0.0,0.0,0.0,0.0,0.0,0.0,0.0,0.0,0.0,0.0,0.0,0.0,0.0,0.0,0.0,0.0,0.0,0.0,0.0,0.0,0.0,0.0,0.0,0.0,0.0,0.0,0.0,0.0,0.0,0.0,0.0,0.0,0.0,0.0,0.0,0.0,0.0,0.0,0.0,0.0,0.0,0.0,0.0,0.0,0.0,0.0,0.0,0.0,0.0,0.0,0.0,0.0,0.0,0.0,0.0,0.0,0.0,0.0,0.0,0.0,0.0,0.0,0.0,0.0,0.0,0.0,0.0,0.0,0.0,0.0,0.0,0.0,0.0,0.0,0.0,0.0,0.0,0.0,0.0,0.0,0.0,0.0,0.0,0.0,0.0,0.0,0.0,0.0,0.0,0.0,0.0,0.0,0.0,0.0,0.0,0.0,0.0,0.0,0.0,0.0,0.0,0.0,0.0,0.0,0.0,0.0,0.0,0.0,0.0,0.0,0.0,0.0,0.0,0.0,0.0,0.0,0.0,0.0,0.0,0.0,0.0,0.0,0.0,0.0,0.0,0.0,0.0,0.0,0.0,0.0,0.0,0.0,0.0,0.0,0.0,0.0,0.0,0.0,0.0,0.0,0.0,0.0,0.0,0.0,0.0,0.0,0.0,0.0,0.0,0.0,0.0,0.0,0.0,0.0,0.0,0.0,0.0,0.0,0.0,0.0,0.0,0.0,0.0,0.0,0.0,0.0,0.0,0.0,0.0,0.0,0.0,0.0,0.0,0.0,0.0,0.0,0.0,0.0,0.0,0.0,0.0,0.0,0.0,0.0,0.0,0.0,0.0,0.0,0.0,0.0,0.0,0.0,0.0,0.0,0.0,0.0,0.0,0.0,0.0,0.0,0.0,0.0,0.0,0.0,0.0,0.0,0.0,0.0,0.0,0.0,0.0,0.0,0.0,0.0,0.0,0.0,0.0,0.0,0.0,0.0,0.0,0.0,0.0,0.0,0.0,0.0,0.0,0.0,0.0,0.0,0.0,0.0,0.0,0.0,0.0,0.0,0.0,0.0,0.0,0.0,0.0,0.0,0.0,0.0,0.0,0.0,0.0,0.0,0.0,0.0,0.0,0.0,0.0,0.0,0.0,0.0,0.0,0.0,0.0,0.0,0.0,0.0,0.0,0.0,0.0,0.0,0.0,0.0,0.0,0.0,0.0,0.0,0.0,0.0,0.0,0.0,0.0,0.0,0.0,0.0,0.0,0.0,0.0,0.0,0.0,0.0,0.0,0.0,0.0,0.0,0.0,0.0,0.0,0.0,0.0,0.0,0.0,0.0,0.0,0.0,0.0,0.0,0.0,0.0,0.0,0.0,0.0,0.0,0.0,0.0,0.0,0.0,0.0,0.0,0.0,0.0,0.0,0.0,0.0,0.0,0.0,0.0,0.0,0.0,0.0,0.0,0.0,0.0,0.0,0.0,0.0,0.0,0.0,0.0,0.0,0.0,0.0,0.0,0.0,0.0,0.0,0.0,0.0,0.0,0.0,0.0,0.0,0.0,0.0,0.0,0.0,0.0,0.0,0.0,0.0,0.0,0.0,0.0,0.0,0.0,0.0,0.0,0.0,0.0,0.0,0.0,0.0,0.0,0.0,0.0,0.0,0.0,0.0,0.0,0.0,0.0,0.0,0.0,0.0,0.0,0.0,0.0,0.0,0.0,0.0,0.0,0.0,0.0,0.0,0.0,0.0,0.0,0.0,0.0,0.0,0.0,0.0,0.0,0.0,0.0,0.0,0.0,0.0,0.0,0.0,0.0,0.0,0.0,0.0,0.0,0.0,0.0,0.0,0.0,0.0,0.0,0.0,0.0,0.0,0.0,0.0,0.0,0.0,0.0,0.0,0.0,0.0,0.0,0.0,0.0,0.0,0.0,0.0,0.0,0.0,0.0,0.0,0.0,0.0,0.0,0.0,0.0,0.0,0.0,0.0,0.0,0.0,0.0,0.0,0.0,0.0,0.0,0.0,0.0,0.0,0.0,0.0,0.0,0.0,0.0,0.0,0.0,0.0,0.0,0.0,0.0,0.0,0.0,0.0,0.0,0.0,0.0,0.0,0.0,0.0,0.0,0.0,0.0,0.0,0.0,0.0,0.0,0.0,0.0,0.0,0.0,0.0,0.0,0.0,0.0,0.0,0.0,0.0,0.0,0.0,0.0,0.0,0.0,0.0,0.0,0.0,0.0,0.0,0.0,0.0,0.0,0.0,0.0,0.0,0.0,0.0,0.0,0.0,0.0,0.0,0.0,0.0,0.0,0.0,0.0,0.0,0.0,0.0,0.0,0.0,0.0,0.0,0.0,0.0,0.0,0.0,0.0,0.0,0.0,0.0,0.0,0.0,0.0,0.0,0.0,0.0,0.0,0.0,0.0,0.0,0.0,0.0,0.0,0.0,0.0,0.0,0.0,0.0,0.0,0.0,0.0,0.0,0.0,0.0,0.0,0.0,0.0,0.0,0.0,0.0,0.0,0.0,0.0,0.0,0.0,0.0,0.0,0.0,0.0,0.0,0.0,0.0,0.0,0.0,0.0,0.0,0.0,0.0,0.0,0.0,0.0,0.0,0.0,0.0,0.0,0.0,0.0,0.0,0.0,0.0,0.0,0.0,0.0,0.0,0.0,0.0,0.0,0.0,0.0,0.0,0.0,0.0,0.0,0.0,0.0,0.0,0.0,0.0,0.0,0.0,0.0,0.0,0.0,0.0,0.0,0.0,0.0,0.0,0.0,0.0,0.0,0.0,0.0,0.0,0.0,0.0,0.0,0.0,0.0,0.0,0.0,0.0,0.0,0.0,0.0,0.0,0.0,0.0,0.0,0.0,0.0,0.0,0.0,0.0,0.0,0.0,0.0,0.0,0.0,0.0,0.0,0.0,0.0,0.0,0.0,0.0,0.0,0.0,0.0,0.0,0.0,0.0,0.0,0.0,0.0,0.0,0.0,0.0,0.0,0.0,0.0,0.0,0.0,0.0,0.0,0.0,0.0,0.0,0.0,0.0,0.0,0.0,0.0,0.0,0.0,0.0,0.0,0.0,0.0,0.0,0.0,0.0,0.0,0.0,0.0,0.0,0.0,0.0,0.0,0.0,0.0,0.0,0.0,0.0,0.0,0.0,0.0,0.0,0.0,0.0,0.0,0.0,0.0,0.0,0.0,0.0,0.0,0.0,0.0,0.0,0.0,0.0,0.0,0.0,0.0,0.0,0.0,0.0,0.0,0.0,0.0,0.0,0.0,0.0,0.0,0.0,0.0,0.0,0.0,0.0,0.0,0.0,0.0,0.0,0.0,0.0,0.0,0.0,0.0,0.0,0.0,0.0,0.0,0.0,0.0,0.0,0.0,0.0,0.0,0.0,0.0,0.0,0.0,0.0,0.0,0.0,0.0,0.0,0.0,0.0,0.0,0.0,0.0,0.0,0.0,0.0,0.0,0.0,0.0,0.0,0.0,0.0,0.0,0.0,0.0,0.0,0.0,0.0,0.0,0.0,0.0,0.0,0.0,0.0,0.0,0.0,0.0,0.0,0.0,0.0,0.0,0.0,0.0,0.0,0.0,0.0,0.0,0.0,0.0,0.0,0.0,0.0,0.0,0.0,0.0,0.0,0.0,0.0,0.0,0.0,0.0,0.0,0.0,0.0,0.0,0.0,0.0,0.0,0.0,0.0,0.0,0.0,0.0,0.0,0.0,0.0,0.0,0.0,0.0,0.0,0.0,0.0,0.0,0.0,0.0,0.0,0.0,0.0,0.0,0.0,0.0,0.0,0.0,0.0,0.0,0.0,0.0,0.0,0.0,0.0,0.0,0.0,0.0,0.0,0.0,0.0,0.0,0.0,0.0,0.0,0.0,0.0,0.0,0.0,0.0,0.0,0.0,0.0,0.0,0.0,0.0,0.0,0.0,0.0,0.0,0.0,0.0,0.0,0.0,0.0,0.0,0.0,0.0,0.0,0.0,0.0,0.0,0.0,0.0,0.0,0.0,0.0,0.0,0.0,0.0,0.0,0.0,0.0,0.0,0.0,0.0,0.0,0.0,0.0,0.0,0.0,0.0,0.0,0.0,0.0,0.0,0.0,0.0,0.0,0.0,0.0,0.0,0.0,0.0,0.0,0.0,0.0,0.0,0.0,0.0,0.0,0.0,0.0,0.0,0.0,0.0,0.0,0.0,0.0,0.0,0.0,0.0,0.0,0.0,0.0,0.0,0.0,0.0,0.0,0.0,0.0,0.0,0.0,0.0,0.0,0.0,0.0,0.0,0.0,0.0,0.0,0.0,0.0,0.0,0.0,0.0,0.0,0.0,0.0,0.0,0.0,0.0,0.0,0.0,0.0,0.0,0.0,0.0,0.0,0.0,0.0,0.0,0.0,0.0,0.0,0.0,0.0,0.0,0.0,0.0,0.0,0.0,0.0,0.0,-5.3217,0.0,0.0,0.0,0.0,0.0,0.0,0.0,0.0,0.0,0.0,0.0,0.0,0.0,0.0,0.0,0.0,0.0,0.0,0.0,0.0,0.0,0.0,0.0,0.0,0.0,0.0,0.0,0.0,0.0,0.0,0.0,0.0,0.0,0.0,0.0,0.0,0.0,0.0,0.0,0.0,0.0,0.0,0.0,0.0,0.0,0.0,0.0,0.0,0.0,0.0,0.0,0.0,0.0,0.0,0.0,0.0,0.0,0.0,0.0,0.0,0.0,0.0,0.0,0.0,0.0,0.0,0.0,0.0,0.0,0.0,0.0,0.0,0.0,0.0,0.0,0.0,0.0,0.0,0.0,0.0,0.0,0.0,0.0,0.0,0.0,0.0,0.0,0.0,0.0,0.0,0.0,0.0,0.0,0.0,0.0,0.0,0.0,0.0,0.0,0.0,0.0,0.0,0.0,0.0,0.0,0.0,0.0,0.0,0.0,0.0,0.0,0.0,0.0,0.0,0.0,0.0,-5.3936,0.0,0.0,0.0,0.0,0.0,0.0,0.0,0.0,0.0,0.0,0.0,0.0,0.0,0.0,0.0,0.0,0.0,0.0,0.0,0.0,0.0,0.0,0.0,0.0,0.0,0.0,0.0,0.0,0.0,0.0,0.0,0.0,0.0,0.0,0.0,0.0,0.0,0.0,0.0,0.0,0.0,0.0,0.0,0.0,0.0,0.0,0.0,0.0,0.0,0.0,0.0,0.0,0.0,0.0,0.0,0.0,0.0,0.0,0.0,0.0,0.0,0.0,0.0,0.0,0.0,0.0,0.0,0.0,0.0,0.0,0.0,0.0,0.0,0.0,0.0,0.0,0.0,0.0,0.0,0.0,0.0,0.0,0.0,0.0,0.0,0.0,0.0,0.0,0.0,0.0,0.0,0.0,0.0,0.0,0.0,0.0,0.0,0.0,0.0,0.0,0.0,0.0,0.0,0.0,0.0,0.0,0.0,0.0,-5.5704,-5.5825,-5.5909,-5.6004,-5.6145,-5.6283,-5.6283,-5.5907,-5.5231,0.0,0.0,0.0,0.0,0.0,0.0,0.0,0.0,0.0,0.0,0.0,0.0,0.0,0.0,0.0,0.0,0.0,0.0,0.0,0.0,0.0,0.0,0.0,-5.1229,-5.1229,-5.1229,-5.1229,0.0,0.0,0.0,0.0,0.0,0.0,0.0,0.0,0.0,0.0,0.0,0.0,-5.0122,-5.0122,-5.0487,-5.1195,-5.0691,0.0,0.0,0.0,0.0,0.0,0.0,0.0,0.0,0.0,0.0,0.0,0.0,0.0,0.0,0.0,0.0,0.0,0.0,0.0,0.0,0.0,0.0,0.0,0.0,0.0,0.0,0.0,0.0,0.0,0.0,0.0,0.0,0.0,0.0,0.0,0.0,0.0,0.0,0.0,0.0,0.0,0.0,0.0,-5.0202,-5.0845,0.0,0.0,0.0,0.0,0.0,0.0,0.0,0.0,0.0,0.0,0.0,0.0,0.0,0.0,-5.5051,-5.6283,-5.6899,-5.6899,-5.8428,-5.9219,-5.937,-5.9469,-5.9615,-5.9711,-5.9711,0.0,-5.5493,-5.473,0.0,0.0,0.0,0.0,0.0,0.0,0.0,0.0,0.0,0.0,0.0,0.0,0.0,0.0,0.0,0.0,0.0,0.0,0.0,0.0,0.0,-5.1229,-5.1229,-5.1229,-5.1229,-5.1229,0.0,0.0,0.0,0.0,0.0,0.0,0.0,0.0,0.0,0.0,-4.9972,-5.0421,-5.078,-5.078,-5.1212,-5.2144,-5.1836,-5.1653,-5.1595,-5.2476,0.0,0.0,0.0,0.0,0.0,0.0,0.0,0.0,0.0,0.0,0.0,0.0,0.0,0.0,0.0,0.0,0.0,0.0,0.0,0.0,0.0,0.0,0.0,0.0,0.0,0.0,0.0,0.0,0.0,0.0,0.0,0.0,0.0,0.0,0.0,0.0,0.0,0.0,0.0,-5.027,-5.0845,-5.1183,-5.1285,-5.1014,0.0,0.0,0.0,0.0,0.0,0.0,0.0,0.0,0.0,-5.533,-5.6789,-5.7768,-5.8239,-5.8522,-5.89,-5.932,-5.983,-5.9821,-5.9432,-5.9578,-5.9417,-5.9061,-5.9538,-5.8951,-5.7556,-5.6748,-5.6161,-5.5728,0.0,0.0,0.0,0.0,-5.4688,-5.4722,0.0,0.0,0.0,0.0,0.0,0.0,0.0,0.0,0.0,0.0,0.0,0.0,-5.1199,-5.1229,-5.1289,-5.1439,-5.1319,-5.1289,-5.1468,0.0,0.0,0.0,0.0,0.0,0.0,0.0,0.0,-5.0242,-5.0421,-5.075,-5.1229,-5.1229,-5.1572,-5.2245,-5.2516,-5.2605,-5.2689,-5.3138,-5.3049,-5.2638,0.0,0.0,0.0,0.0,0.0,0.0,0.0,0.0,0.0,0.0,0.0,0.0,0.0,0.0,0.0,0.0,0.0,0.0,0.0,0.0,0.0,0.0,0.0,0.0,0.0,0.0,0.0,0.0,0.0,0.0,0.0,0.0,0.0,0.0,0.0,0.0,0.0,-5.1352,-5.1995,-5.1826,-5.2604,-5.2503,0.0,0.0,0.0,0.0,0.0,0.0,-5.455,-5.6111,-5.719,-5.7514,-5.9078,-6.0122,-6.0484,-6.0191,-6.0404,-6.0986,-6.0843,-6.0468,-5.9932,-6.0298,-6.0015,-5.9245,-5.9869,-6.0015,-5.9722,-5.8612,-5.781,-5.7192,-5.658,-5.6218,-5.5995,-5.5758,-5.5517,-5.5287,0.0,0.0,0.0,0.0,0.0,0.0,0.0,0.0,0.0,0.0,0.0,-5.0511,-5.1139,-5.1229,-5.1468,-5.2097,-5.1588,-5.1498,-5.2127,-5.0361,0.0,0.0,0.0,0.0,0.0,0.0,0.0,-5.0242,-5.087,-5.1199,-5.1229,-5.1229,-5.1229,-5.1293,-5.2154,-5.3224,-5.4146,-5.3466,-5.3248,-5.3301,-5.2638,0.0,0.0,0.0,0.0,0.0,0.0,0.0,0.0,0.0,0.0,0.0,0.0,0.0,0.0,0.0,0.0,0.0,0.0,0.0,0.0,0.0,0.0,0.0,0.0,0.0,0.0,0.0,0.0,0.0,0.0,0.0,0.0,0.0,0.0,0.0,0.0,0.0,0.0,-5.3484,-5.4668,0.0,0.0,0.0,0.0,-5.3341,-5.457,-5.6303,-5.8438,-5.8637,-5.9255,-6.0539,-6.0701,-6.0412,-5.9687,-6.0375,-6.0791,-6.0986,-6.1907,-6.2303,-6.2457,-6.3415,-6.3392,-6.2585,-6.2622,-6.2181,-6.1349,-5.9375,-5.8545,-5.8405,-5.7229,-5.6249,-5.557,-5.5933,-5.5564,-5.4912,0.0,0.0,0.0,0.0,0.0,0.0,0.0,0.0,0.0,-4.9164,-4.9853,-5.0481,-5.1139,-5.1229,-5.1319,-5.1558,-5.1349,-5.1139,-5.096,-5.0272,0.0,0.0,0.0,0.0,0.0,0.0,-4.9793,-5.087,-5.1109,-5.1229,-5.1229,-5.1229,-5.1572,-5.2154,-5.3108,-5.3989,-5.4891,-5.4211,-5.3999,-5.4063,-5.3334,-5.3036,0.0,0.0,0.0,0.0,0.0,0.0,0.0,0.0,0.0,0.0,0.0,0.0,0.0,0.0,0.0,0.0,0.0,0.0,0.0,0.0,0.0,0.0,0.0,0.0,0.0,0.0,0.0,0.0,0.0,0.0,0.0,0.0,0.0,0.0,0.0,0.0,0.0,-5.6292,-5.8084,0.0,0.0,-5.7929,-5.8227,-5.6952,-5.8131,-5.9023,-5.9313,-5.9817,-6.0305,-6.081,-6.1317,-6.1734,-6.2005,-6.1894,-6.2146,-6.2777,-6.2713,-6.2448,-6.1985,-6.2328,-6.2034,-6.1263,-6.1263,-6.108,-6.0761,-5.9745,-5.9367,-5.9297,-5.8615,-5.8305,-5.824,-5.809,-5.7492,-5.6758,0.0,0.0,0.0,0.0,0.0,0.0,0.0,0.0,0.0,-4.9164,-4.9853,-5.0481,-5.1139,-5.1229,-5.1319,-5.1528,-5.1349,-5.102,-5.0601,-5.0152,0.0,0.0,0.0,0.0,0.0,-4.9494,-5.0122,-5.1229,-5.1229,-5.1229,-5.1229,-5.1229,-5.1727,-5.2606,-5.3196,-5.4359,-5.5636,-5.4924,-5.4718,-5.4825,-5.4096,-5.3632,-5.3413,0.0,0.0,0.0,0.0,0.0,0.0,0.0,0.0,0.0,0.0,0.0,0.0,0.0,0.0,0.0,0.0,0.0,0.0,0.0,0.0,0.0,0.0,0.0,0.0,0.0,0.0,0.0,0.0,0.0,0.0,0.0,0.0,0.0,0.0,0.0,-5.8484,-5.8962,-6.1229,-6.2148,-6.0389,-6.1441,-6.1769,-6.0438,-6.1656,-6.2331,-6.2041,-6.2549,-6.2693,-6.244,-6.2947,-6.3256,-6.3366,-6.293,-6.3089,-6.3758,-6.3057,-6.2462,-6.1998,-6.2291,-6.1998,-6.1227,-6.1227,-6.108,-6.0761,-6.0078,-5.9897,-5.995,-5.9553,-5.9383,-5.9349,-5.915,-5.8421,-5.7351,0.0,0.0,0.0,0.0,0.0,0.0,0.0,0.0,-4.8506,-4.9164,-4.9823,-5.0451,-5.1139,-5.1229,-5.1468,-5.2127,-5.1588,-5.1199,-5.1169,-4.9972,0.0,0.0,0.0,0.0,-4.9254,-4.9912,-5.0571,-5.1229,-5.1229,-5.1229,-5.1229,-5.1229,-5.1727,-5.2606,-5.2695,-5.4065,-5.6316,-5.5636,-5.5469,-5.5587,-5.4858,-5.4203,-5.3756,0.0,0.0,0.0,0.0,0.0,0.0,0.0,0.0,0.0,0.0,0.0,0.0,0.0,0.0,0.0,0.0,0.0,0.0,0.0,0.0,0.0,0.0,0.0,0.0,0.0,0.0,0.0,0.0,0.0,0.0,0.0,0.0,0.0,-5.5784,-5.9008,-6.143,-6.15,-6.4113,-6.5089,-6.2969,-6.3982,-6.4439,-6.3607,-6.4865,-6.5953,-6.6714,-6.675,-6.6388,-6.5591,-6.5555,-6.4794,-6.3237,-6.3403,-6.3475,-6.36,-6.2954,-6.2691,-6.2842,-6.3686,-6.3613,-6.2805,-6.2768,-6.2328,-6.1459,-6.0263,-5.9984,-6.0304,-5.9942,-5.9279,-5.8622,-5.8997,-5.8077,-5.6511,0.0,0.0,0.0,0.0,0.0,0.0,0.0,-4.7459,-4.7967,-4.9134,-4.9404,-4.9972,-5.1079,-5.1229,-5.1289,-5.1468,-5.1319,-5.081,-4.9853,-4.9464,0.0,0.0,0.0,0.0,-4.9254,-4.9912,-5.0571,-5.1229,-5.1229,-5.1229,-5.1229,-5.1911,-5.2336,-5.2695,-5.3945,-5.4998,-5.5718,-5.6643,-5.681,-5.6316,-5.562,-5.5189,-5.5032,0.0,0.0,0.0,0.0,0.0,0.0,0.0,0.0,0.0,0.0,0.0,0.0,0.0,0.0,0.0,0.0,0.0,0.0,0.0,0.0,0.0,0.0,0.0,0.0,0.0,0.0,0.0,0.0,0.0,0.0,0.0,0.0,-5.7306,-5.7306,-6.0994,-6.4157,-6.5262,-6.764,-6.8892,-6.8282,-6.8592,-6.8278,-6.6812,-6.6559,-6.6315,-6.5953,-6.5374,-6.4939,-6.4722,-6.4722,-6.4617,-6.4367,-6.4367,-6.4237,-6.3951,-6.3782,-6.3379,-6.2805,-6.3062,-6.3025,-6.2768,-6.2181,-6.1484,-6.0639,-5.9752,-5.9257,-5.9129,-5.9613,-5.9817,-5.9874,-5.9998,-5.8994,-5.7428,0.0,0.0,0.0,0.0,0.0,0.0,0.0,-4.7309,-4.7788,-4.9105,-4.9254,-4.9763,-5.1079,-5.1229,-5.1109,-5.084,-5.081,-5.0242,-4.8925,-4.8596,0.0,0.0,0.0,-4.8865,-4.9254,-5.0182,-5.084,-5.1229,-5.1229,-5.1229,-5.1229,-5.1727,-5.2398,-5.3096,-5.4274,-5.5306,-5.6302,-5.731,-5.774,-5.7541,-5.6812,-5.6183,-5.5587,-5.5381,-5.4822,-5.4156,-5.4405,-5.4477,-5.4443,-5.4186,0.0,0.0,0.0,0.0,0.0,0.0,0.0,0.0,0.0,0.0,0.0,0.0,0.0,0.0,0.0,0.0,0.0,0.0,0.0,0.0,0.0,0.0,0.0,0.0,-6.0253,-6.1562,-6.2565,-6.4728,-6.6973,-6.9157,-7.0876,-7.1834,-7.1852,-7.1273,-7.0469,-6.9513,-6.8742,-6.809,-6.7619,-6.6822,-6.6243,-6.5917,-6.5917,-6.5706,-6.5204,-6.5587,-6.5532,-6.494,-6.4383,-6.3833,-6.3319,-6.2989,-6.2805,0.0,-6.2328,-6.1447,-6.0382,-6.0103,-5.9405,0.0,0.0,0.0,0.0,0.0,-5.9224,-5.823,0.0,0.0,0.0,0.0,0.0,0.0,0.0,-4.7309,-4.7758,-4.8985,-4.9224,-4.9733,-5.096,-5.1109,-5.087,-5.0301,-5.0182,-4.9613,-4.8356,0.0,0.0,-4.7429,-4.8596,-4.9344,-4.9494,-5.0631,-5.1289,-5.1439,-5.1379,-5.1379,-5.1439,-5.1533,-5.2364,-5.3866,-5.4135,-5.5496,-5.7586,-5.7837,-5.829,-5.8833,-5.827,-5.7177,-5.5885,-5.6037,-5.5647,-5.5088,-5.5402,-5.5576,-5.5576,-5.5866,0.0,0.0,0.0,0.0,0.0,0.0,0.0,0.0,0.0,0.0,0.0,0.0,0.0,0.0,0.0,0.0,0.0,0.0,0.0,0.0,0.0,0.0,0.0,0.0,-6.523,-6.7024,-6.9492,-6.928,-6.9849,-7.262,-7.3596,-7.4066,-7.4066,-7.2762,-7.182,-7.1639,-7.0951,-7.048,-7.0372,0.0,0.0,0.0,0.0,-6.7556,-6.6276,-6.6972,-6.703,-6.6335,-6.5029,-6.4273,-6.4053,-6.3319,-6.2915,-6.2805,-6.2695,-6.1851,-6.0577,-6.0737,-5.9955,-5.871,-5.914,-5.9502,-5.983,-5.9378,-5.9185,-5.888,0.0,0.0,0.0,0.0,0.0,0.0,0.0,-4.7309,-4.7578,-4.8386,-4.8925,-4.9553,-5.0331,-5.0421,-5.0361,-5.0242,-4.9763,-4.9134,0.0,0.0,-4.7549,-4.8087,-4.8835,-4.9763,-5.081,-5.1079,-5.1738,-5.2785,-5.2276,-5.2276,-5.2815,-5.3645,-5.4483,-5.5543,-5.5506,-5.6681,-5.8576,-5.8442,-5.8576,-5.8933,-5.9396,-5.8701,-5.7376,-5.7454,-5.6989,-5.6492,-5.7919,-5.8274,-5.8196,-5.8849,-5.9228,-5.9285,-5.8376,-5.7239,0.0,0.0,0.0,0.0,0.0,0.0,0.0,0.0,0.0,0.0,0.0,0.0,0.0,0.0,0.0,0.0,0.0,0.0,0.0,-6.5688,-6.7623,-6.967,-7.262,-7.2905,-7.3048,-7.3583,-7.4424,-7.4899,-7.4899,-7.4609,-7.3885,-7.2581,-7.1748,-7.1024,-7.0408,-6.9611,0.0,-6.8959,-6.9044,-6.9077,-6.8866,-6.8564,-6.811,-6.7376,0.0,0.0,-6.409,-6.3906,-6.3466,-6.2768,-6.2108,-6.1667,-6.1263,-6.0037,-5.935,-5.914,-5.9537,-5.9937,-6.0246,-6.0151,-5.9682,-5.9071,0.0,0.0,0.0,0.0,0.0,0.0,0.0,-4.7309,-4.7549,-4.8207,-4.8566,-4.9015,-4.9673,-4.9763,-4.9613,-4.9284,-4.8656,0.0,0.0,-4.7967,-4.8087,-4.8745,-4.9404,-5.0212,-5.1199,-5.1528,-5.2187,-5.3174,-5.3204,-5.3204,-5.3174,-5.399,-5.4622,-5.5099,-5.574,-5.6662,-5.8,-5.8899,-5.9317,-5.9496,-5.986,-5.9562,-5.8866,-5.8502,-5.8183,-5.8096,-5.9318,-5.9751,-5.9898,-6.0774,-6.0875,-6.074,-6.0309,-5.937,-5.8152,0.0,0.0,0.0,0.0,0.0,0.0,0.0,0.0,0.0,0.0,0.0,0.0,0.0,0.0,-5.8909,0.0,0.0,-6.5605,-6.9765,-7.1083,-7.2436,-7.4791,-7.5402,-7.551,-7.5114,-7.5458,-7.5696,-7.5696,-7.537,-7.479,-7.3993,-7.316,-7.2545,-7.2183,-7.0987,-7.0434,-7.0495,-6.9757,-6.95,-6.9733,-6.8986,-6.8513,-6.8274,-6.7063,-6.5852,-6.4677,-6.4273,-6.3613,-6.2805,-6.2401,-6.1741,-6.086,-5.9281,-5.8695,-5.8949,-5.9103,-5.9673,-6.0408,-6.0408,-6.0102,-5.9682,0.0,0.0,0.0,0.0,0.0,0.0,0.0,0.0,0.0,-4.8027,-4.8207,-4.8476,-4.9015,-4.9075,-4.8805,-4.8147,0.0,0.0,0.0,-4.8536,-4.8955,-4.9613,-5.0272,-5.099,-5.1798,-5.2306,-5.2965,-5.3773,-5.4311,-5.4371,-5.3952,-5.4521,-5.486,-5.5099,-5.5969,-5.6825,-5.7815,-5.9272,-6.0027,-6.0225,-6.0225,-6.0225,-6.024,-5.961,-5.9491,-5.9718,-6.0531,-6.0879,-6.1287,-6.2232,-6.2177,-6.1706,-6.1863,-6.14,-6.0317,-5.8084,-5.8389,0.0,0.0,0.0,0.0,0.0,0.0,0.0,0.0,0.0,-5.7216,-5.9493,-6.0668,-6.2544,-6.6718,-6.7832,-6.9454,-7.3645,-7.4392,-7.4863,-7.6311,-7.6963,-7.7036,-7.6384,-7.642,-7.6456,-7.6311,-7.5696,-7.5297,-7.5116,-7.45,-7.403,-7.3704,-7.2436,-7.1801,-7.1816,-7.0605,-7.0055,-7.014,-6.9299,-6.8898,-6.8898,-6.7283,-6.6072,-6.5264,-6.4457,-6.3613,-6.2805,-6.2805,-6.1887,-6.0309,-5.8988,-5.86,-5.8809,-5.8809,-5.9365,-6.0159,-6.0256,-6.0342,-6.0293,0.0,0.0,0.0,0.0,0.0,0.0,0.0,0.0,0.0,-4.7399,-4.7908,-4.8327,-4.8386,-4.8386,-4.8117,0.0,0.0,0.0,-4.8297,-4.9374,-5.0301,-5.096,-5.1618,-5.2576,-5.3862,-5.3952,-5.461,-5.5837,-5.5927,-5.6196,-5.6645,-5.6735,-5.7251,-5.8101,-5.7623,-5.8468,-6.0186,-5.9837,-6.0128,-6.0986,-6.0986,-6.1036,-6.125,-6.1183,-6.115,-6.125,-6.2197,-6.2546,-6.2762,-6.3944,-6.4146,-6.3949,-6.416,-6.3734,-6.2685,-6.0419,0.0,-5.6765,-5.4972,0.0,0.0,-5.6292,-5.6562,-5.7273,0.0,0.0,-6.0216,-6.2493,-6.4179,-6.6011,-6.8571,-7.0736,-7.3004,-7.5629,-7.6022,-7.6348,-7.7217,-7.6818,-7.6384,-7.6311,-7.6927,-7.7072,-7.6348,-7.6203,-7.5877,-7.5152,-7.5044,-7.4356,-7.2907,-7.2817,-7.2543,-7.1816,-7.1938,-7.1619,-7.0982,-7.0254,-6.9596,-6.8898,-6.7283,-6.6072,-6.5264,-6.4457,-6.3613,-6.2805,-6.2805,-6.1887,-6.0382,-6.0199,-5.9964,-5.9701,-5.9701,-5.9545,-5.9397,-5.9744,-6.0099,-6.037,0.0,0.0,0.0,0.0,0.0,0.0,0.0,0.0,0.0,0.0,-4.7549,-4.7728,-4.7728,-4.7728,-4.7608,0.0,0.0,0.0,-4.8805,-4.9733,-5.069,-5.1738,-5.2426,-5.3414,-5.476,-5.479,-5.5418,-5.6705,-5.7124,-5.7244,-5.7094,-5.7513,-5.7483,-5.7243,-5.7909,-5.8774,-5.9809,-6.0516,-6.1186,-6.1748,-6.2212,-6.2197,-6.1883,-6.2049,-6.1865,-6.1628,-6.1656,-6.1782,0.0,-6.2505,-6.2876,-6.3316,-6.3835,-6.3463,-6.2482,-6.0655,-5.9438,0.0,-5.7442,0.0,0.0,0.0,-5.9066,-6.0385,-6.1637,-6.2347,-6.3385,-6.563,-6.7419,-6.9227,-7.1549,-7.3187,-7.4745,0.0,-7.7,-7.7108,-7.7434,-7.7615,-7.7362,-7.642,-7.7,-7.7181,-7.6384,-7.6275,-7.6167,-7.5804,-7.5804,-7.5581,-7.4994,-7.4151,-7.3588,-7.3508,-7.2277,-7.1479,-7.1207,-6.9981,-6.9229,-6.8898,-6.7724,-6.6512,-6.5301,-6.4971,-6.409,-6.2768,-6.2291,-6.1704,-6.1043,-6.0603,-6.0294,-6.0075,-5.9632,-5.9499,-5.9619,-6.0003,-5.9952,-5.9744,0.0,0.0,0.0,0.0,0.0,0.0,0.0,0.0,0.0,0.0,0.0,-4.7309,-4.7309,0.0,0.0,0.0,0.0,0.0,0.0,-5.0122,-5.1199,-5.2157,-5.3354,-5.4461,-5.5448,-5.5807,-5.6466,-5.7393,-5.8052,-5.8141,-5.7663,-5.8171,-5.7872,-5.7079,-5.8319,-5.9037,-5.9379,-6.0735,-6.1523,-6.2134,-6.2661,-6.2637,-6.2315,-6.2283,-6.1862,-6.1119,-6.074,-6.0536,-6.0351,-6.0351,-6.0723,-6.1264,-6.2042,-6.2042,-6.1467,-5.9945,-5.9066,-5.8558,-5.8457,0.0,0.0,-5.9911,-6.1806,-6.3396,-6.3802,-6.4749,-6.6098,-6.8186,-6.9915,-7.1638,-7.3503,-7.4937,-7.6239,-7.7615,-7.7833,-7.7905,-7.8122,-7.8267,-7.7941,-7.6746,-7.6746,-7.671,-7.6348,-7.6275,-7.6275,-7.6275,-7.6275,-7.627,-7.6287,-7.5225,-7.4514,-7.4385,-7.2724,-7.1647,-7.1321,-6.9926,-6.9119,-6.8898,-6.7871,-6.6769,-6.5632,-6.5191,-6.42,-6.2768,-6.2181,-6.1924,-6.1887,-6.108,-6.075,-6.0639,-5.9869,-5.9541,-5.9678,-6.0203,-5.9885,-5.9252,0.0,0.0,0.0,0.0,0.0,0.0,0.0,0.0,0.0,0.0,0.0,0.0,0.0,0.0,0.0,0.0,0.0,0.0,0.0,-5.072,-5.2157,-5.2187,-5.47,-5.6107,-5.6137,-5.7393,-5.8052,-5.8082,-5.874,-5.9069,-5.9039,-5.9069,-5.9069,-5.8979,-5.9448,-5.9624,-5.9664,-6.0004,-6.0769,-6.1724,-6.1724,-6.2048,-6.2416,-6.1929,-6.0918,-5.9833,-5.9876,-5.901,-5.7983,-5.7983,-5.8017,-5.8152,-5.8896,-5.9607,-5.9877,-5.8389,-5.6427,-5.5074,0.0,0.0,-5.9674,-6.2651,-6.4478,-6.5967,-6.7421,-6.776,-6.8233,-6.9843,-7.1408,-7.2851,-7.3624,-7.5799,-7.7688,-7.8521,-7.8666,-7.8955,-7.9716,-7.8484,-7.7507,-7.747,-7.613,-7.5478,0.0,-7.6275,-7.6275,-7.6275,-7.6275,-7.6016,-7.5487,-7.5507,-7.4968,-7.358,-7.3612,-7.2863,-7.1321,-7.0477,-6.9669,-6.8898,-6.7283,-6.6512,-6.6402,-6.4861,-6.3649,-6.2805,-6.2768,-6.2768,-6.2695,-6.1887,-6.1557,-6.1484,-6.0676,-5.9905,-5.9318,-6.0136,-5.9913,-5.9252,0.0,0.0,0.0,0.0,0.0,0.0,0.0,0.0,0.0,0.0,0.0,0.0,0.0,0.0,0.0,0.0,0.0,0.0,0.0,-4.9912,-5.1079,-5.1528,-5.3683,-5.5269,-5.6137,-5.7004,-5.7872,-5.877,-5.9009,-5.9099,-5.9099,-5.9099,-5.886,-5.8471,-5.9077,-5.9666,-6.0332,-6.0392,-6.1352,-6.2682,-6.2547,-6.249,-6.2549,-6.1933,-6.0504,-5.8773,0.0,-5.72,-5.6393,-5.5886,-5.6055,-5.6562,-5.7306,-5.7374,0.0,-5.5412,-5.5852,-5.7002,0.0,0.0,-6.3193,-6.5189,-6.7184,-6.8808,-6.9316,-6.9789,-7.0297,-7.0838,-7.0976,-7.135,-7.2065,-7.3401,-7.5004,-7.6787,-7.8014,-7.8992,-7.9788,-7.9426,-7.8702,-7.7615,-7.7036,0.0,0.0,0.0,0.0,-7.6409,-7.6512,-7.6534,-7.6501,-7.6053,-7.5629,-7.5262,-7.4712,-7.3744,-7.2129,-7.1835,-7.077,-6.8898,-6.7283,-6.6512,-6.6439,-6.4824,-6.3943,-6.3613,-6.3062,-6.2805,-6.2805,-6.2511,-6.2401,-6.2328,-6.152,-6.1043,-6.075,-6.0493,-6.0204,-5.9974,0.0,0.0,0.0,0.0,0.0,0.0,0.0,0.0,0.0,0.0,0.0,0.0,0.0,0.0,0.0,0.0,0.0,0.0,0.0,0.0,-5.0092,-5.0511,-5.2426,-5.3892,-5.473,-5.5388,-5.6107,-5.6974,-5.7244,-5.7483,-5.7723,-5.7962,-5.7962,-5.7782,-5.8201,-5.8776,-5.9375,-5.9375,-6.0086,-6.1226,-6.0805,-6.0789,-6.0866,-5.9994,-5.8664,0.0,-5.6318,-5.5547,-5.4837,-5.4363,-5.4532,-5.5006,-5.548,-5.548,0.0,0.0,-5.619,-5.8626,0.0,-6.2956,-6.5831,-6.759,-6.9316,-7.0601,-7.0601,-7.0973,-7.1312,-7.1312,-7.0806,-7.0395,-7.0867,-7.194,-7.3291,-7.473,-7.6601,-7.8231,-7.9318,-7.8992,-7.8448,-7.7977,-7.7181,-7.6565,0.0,0.0,0.0,-7.6541,-7.6614,-7.6745,-7.7092,-7.6617,-7.624,-7.6093,-7.5322,-7.4294,-7.2936,-7.2349,-7.1174,-6.9302,-6.7981,-6.721,-6.688,-6.5558,-6.464,-6.4053,-6.3503,-6.3099,-6.2805,-6.2805,-6.2805,-6.2732,-6.1924,-6.1594,-6.152,-6.1006,-6.0823,-6.0761,0.0,0.0,0.0,0.0,0.0,0.0,0.0,0.0,0.0,0.0,0.0,0.0,0.0,0.0,0.0,0.0,0.0,0.0,0.0,0.0,0.0,-4.9224,-5.1079,-5.2127,-5.2157,-5.2785,-5.3144,-5.3174,-5.3832,-5.4461,-5.5089,-5.5718,-5.6316,-5.6885,-5.6885,-5.6915,-5.6944,-5.6915,-5.7142,-5.75,-5.6889,-5.7109,-5.7507,-5.6366,-5.5686,-5.5261,-5.4801,-5.4126,-5.3518,0.0,0.0,0.0,0.0,0.0,0.0,0.0,0.0,-5.9945,-6.2854,-6.529,-6.7523,-6.9688,-7.077,-7.1312,-7.1312,-7.1312,-7.1312,-7.121,-7.0619,-7.0038,0.0,0.0,-7.2543,-7.2669,-7.4724,-7.6895,-7.8593,-7.7507,-7.7108,0.0,0.0,0.0,0.0,0.0,0.0,-7.6541,0.0,-7.6745,-7.7092,-7.7092,-7.6789,-7.6203,-7.5432,-7.4625,-7.378,-7.2129,-7.0917,-7.0146,-6.9302,-6.8495,-6.7724,-6.6843,-6.5595,-6.4163,-6.4053,-6.3576,-6.2805,-6.2805,-6.2805,-6.2732,-6.1961,-6.1667,-6.1667,-6.1667,-6.1667,-6.1569,0.0,0.0,0.0,0.0,0.0,0.0,0.0,0.0,0.0,0.0,0.0,0.0,0.0,0.0,0.0,0.0,0.0,0.0,0.0,0.0,0.0,0.0,0.0,0.0,0.0,0.0,0.0,-5.3174,-5.3354,-5.3533,-5.3683,-5.3862,-5.4042,-5.4162,-5.4162,-5.4461,-5.491,-5.4401,-5.484,-5.5741,-5.5005,-5.5127,-5.5663,-5.549,-5.5104,-5.4468,-5.4559,-5.4126,0.0,0.0,0.0,0.0,0.0,0.0,-5.7915,0.0,0.0,-6.3463,-6.4783,-6.7184,-6.9586,-7.0737,-7.1176,-7.1312,-7.1312,-7.1312,-7.1007,-6.9891,-6.8608,-6.7325,0.0,0.0,0.0,-7.1684,-7.4868,0.0,-8.0188,-8.0151,0.0,0.0,0.0,-7.8372,-7.7492,-7.7238,0.0,0.0,-7.6838,-7.6902,-7.7217,-7.7279,-7.7169,-7.7011,-7.6827,-7.6019,-7.4625,-7.2422,-7.1211,-7.0991,-6.9596,-6.8788,-6.8531,-6.6512,-6.5375,-6.4934,-6.3686,-6.3025,-6.2805,-6.2805,-6.2805,-6.2805,-6.2585,-6.2511,-6.2511,-6.2511,-6.2511,-6.2475,0.0,0.0,0.0,0.0,0.0,0.0,0.0,0.0,0.0,0.0,0.0,0.0,0.0,0.0,0.0,0.0,0.0,0.0,0.0,0.0,0.0,0.0,0.0,0.0,0.0,0.0,0.0,-5.102,-5.102,-5.1319,-5.1887,-5.1887,-5.2037,-5.2306,-5.2306,-5.2546,-5.2875,-5.2486,-5.2606,0.0,0.0,-5.2239,-5.2735,-5.2603,-5.2856,-5.3214,-5.3499,0.0,0.0,0.0,0.0,-5.7205,-5.7543,-5.9167,-6.1061,-6.1366,0.0,-6.6203,-6.6981,-6.891,-7.0872,-7.1616,-7.1548,-7.1244,-7.0906,-7.0567,-6.9925,-6.8402,-6.6643,0.0,0.0,0.0,0.0,0.0,0.0,0.0,-8.0188,-8.0259,-8.0151,0.0,-8.0114,0.0,-7.7788,-7.7969,-7.7959,0.0,-7.7085,-7.6993,-7.7279,-7.7304,-7.7304,-7.7304,-7.6974,-7.6019,-7.4404,-7.2679,-7.1835,-7.1835,-7.055,-6.9779,-6.9376,-6.765,-6.6292,-6.5264,0.0,-6.3503,-6.2805,-6.2805,-6.2805,-6.2805,-6.2805,-6.2805,-6.2805,-6.2805,-6.2805,-6.2805,0.0,0.0,0.0,0.0,0.0,0.0,0.0,0.0,0.0,0.0,0.0,0.0,0.0,0.0,0.0,0.0,0.0,0.0,0.0,0.0,0.0,0.0,0.0,0.0,0.0,0.0,0.0,0.0,-4.8147,-4.8745,-4.9853,-4.9853,-5.0152,-5.069,-5.069,-5.069,-5.069,-5.069,-5.0361,-4.9793,-4.9224,-4.9213,-4.9511,0.0,-5.0197,-5.1631,0.0,0.0,0.0,0.0,-5.8653,-5.9607,-6.0419,-6.2279,-6.4208,-6.485,-6.6542,-6.8368,-6.9045,-7.0263,-7.1447,-7.209,-7.1785,-7.1075,-7.0229,-6.9485,-6.847,-6.6846,0.0,-6.3385,-6.3158,-6.5044,-6.6989,-6.7963,0.0,-7.5793,-7.918,-7.9035,-7.9107,-8.0731,-8.0298,-7.9322,-7.7872,-7.8448,-7.8658,-7.8128,-7.7587,-7.7302,-7.7426,-7.7316,-7.7304,-7.7304,-7.6423,-7.5285,-7.3854,-7.2863,-7.2349,-7.2349,-7.1541,-7.0734,-6.9926,-6.9119,-6.7504,-6.5301,0.0,0.0,-6.2805,-6.2805,-6.2879,-6.2989,-6.2879,-6.2879,-6.2989,-6.2842,-6.2805,-6.2805,0.0,0.0,0.0,0.0,0.0,0.0,0.0,0.0,0.0,0.0,-4.7309,-4.7309,0.0,0.0,0.0,0.0,0.0,0.0,0.0,0.0,0.0,0.0,0.0,0.0,0.0,0.0,0.0,0.0,0.0,-4.7608,-4.7818,-4.7818,-4.7878,-4.7997,-4.7997,-4.7997,-4.7997,-4.7997,-4.7908,-4.7818,-4.7842,-4.7895,-4.8086,-4.8852,0.0,0.0,0.0,0.0,0.0,0.0,-6.0125,-6.2042,-6.3396,-6.5358,-6.7151,-6.7286,-6.8504,-6.9823,-6.9958,-7.0635,-7.1345,-7.1481,-7.1413,-7.0973,-6.9586,-6.8673,0.0,0.0,-6.4208,-6.3091,-6.1859,-6.3475,-6.572,-6.7857,0.0,0.0,0.0,0.0,-7.8115,0.0,0.0,0.0,0.0,0.0,0.0,0.0,0.0,0.0,-7.8144,-7.7646,-7.7304,-7.7304,-7.5873,-7.4992,-7.4698,-7.2569,-7.1541,-7.1505,-7.0697,-6.9889,-6.9082,-6.8274,-6.6953,-6.5264,-6.4604,0.0,-6.2805,-6.2805,-6.3209,-6.3796,-6.3099,-6.3246,-6.3796,-6.3062,-6.2805,-6.2805,0.0,0.0,0.0,0.0,0.0,0.0,0.0,-4.7309,-4.7309,-4.7309,-4.7309,-4.7309,-4.7309,-4.7309,-4.7309,0.0,0.0,0.0,0.0,0.0,0.0,0.0,0.0,0.0,0.0,0.0,0.0,0.0,0.0,0.0,0.0,0.0,0.0,-4.7309,-4.7668,-4.7818,-4.7788,-4.7459,-4.7489,-4.7788,-4.7516,-4.7452,-4.7538,0.0,0.0,0.0,0.0,0.0,0.0,0.0,-5.9597,-6.268,-6.5952,-6.8199,-6.9688,-6.9688,-7.0195,-7.077,-7.077,-7.1041,-7.1481,-7.2259,-7.1887,-7.0939,-6.9451,0.0,0.0,0.0,-6.2279,-6.14,-6.0317,-6.2259,0.0,0.0,0.0,0.0,0.0,0.0,0.0,0.0,0.0,0.0,0.0,0.0,0.0,0.0,0.0,0.0,-7.84,-7.7719,-7.7304,-7.7304,-7.5763,-7.4918,-7.4918,-7.2532,-7.1321,-7.1321,-7.0917,-7.0073,-6.8898,-6.8935,-6.7834,-6.5888,-6.5521,0.0,-6.4127,-6.4127,-6.4347,-6.4677,-6.4273,-6.409,-6.4053,-6.3613,-6.3209,-6.2805,0.0,0.0,0.0,0.0,0.0,0.0,0.0,-4.7309,-4.7309,-4.7309,-4.7309,-4.7309,-4.7309,-4.7309,-4.7309,0.0,0.0,0.0,0.0,0.0,0.0,0.0,0.0,0.0,0.0,0.0,0.0,0.0,0.0,0.0,0.0,0.0,0.0,0.0,0.0,-4.8207,-4.8057,-4.7668,-4.7728,0.0,0.0,-4.7519,0.0,0.0,0.0,0.0,0.0,0.0,0.0,0.0,-5.8194,-6.1393,-6.6046,-6.8976,-7.0737,-7.0782,-7.1075,-7.1345,-7.1515,-7.1447,-7.1616,-7.2935,-7.2259,-7.0838,-6.9011,-6.6981,0.0,0.0,-6.0655,-5.9979,-5.9573,-6.1462,-6.3491,0.0,0.0,0.0,0.0,0.0,0.0,0.0,0.0,0.0,0.0,0.0,0.0,0.0,0.0,0.0,-7.798,-7.7609,-7.7304,-7.7304,-7.5763,-7.4918,-7.4918,-7.2532,-7.1321,-7.1321,-7.1321,-7.055,-6.9192,-6.9816,-6.8862,-6.6733,-6.6549,0.0,0.0,-6.5301,-6.5411,-6.5558,-6.5375,-6.4897,-6.4347,-6.4347,-6.3796,-6.3099,0.0,0.0,0.0,0.0,0.0,0.0,0.0,-4.7309,-4.7309,-4.7309,-4.7309,-4.7309,-4.7309,-4.7309,-4.7309,0.0,0.0,0.0,0.0,0.0,0.0,0.0,0.0,0.0,0.0,0.0,0.0,0.0,0.0,0.0,0.0,0.0,0.0,0.0,0.0,0.0,0.0,-4.7967,0.0,0.0,0.0,0.0,0.0,0.0,0.0,0.0,0.0,0.0,0.0,0.0,0.0,-5.7185,-6.1051,-6.5312,-6.8977,-6.9221,0.0,0.0,-7.2124,-7.1819,-7.1515,-7.2293,-7.1887,-7.0567,-6.7692,0.0,0.0,-6.1772,-6.0655,-6.0317,-6.096,-6.1341,-6.2198,0.0,0.0,-6.6656,0.0,0.0,0.0,0.0,0.0,0.0,0.0,0.0,0.0,0.0,0.0,0.0,0.0,-7.6966,-7.7304,-7.7304,-7.5763,-7.4918,-7.4918,-7.2532,-7.1321,-7.1321,-7.1321,-7.0844,-7.0,-7.0073,-6.9155,-6.754,-6.6806,0.0,0.0,-6.5301,-6.5742,-6.6329,-6.5595,-6.5264,-6.5191,-6.5191,-6.4677,-6.409,0.0,0.0,0.0,0.0,0.0,0.0,-4.7222,-4.7309,-4.7309,-4.7309,-4.7309,-4.7309,-4.7309,-4.7309,-4.7309,-4.7309,0.0,0.0,0.0,0.0,0.0,0.0,0.0,0.0,0.0,0.0,0.0,-4.8297,0.0,0.0,0.0,0.0,0.0,0.0,0.0,0.0,0.0,0.0,0.0,0.0,0.0,0.0,0.0,0.0,0.0,0.0,0.0,0.0,0.0,0.0,0.0,0.0,-5.6404,-5.973,0.0,0.0,-6.7762,-6.9294,-7.0931,-7.1499,-7.1888,-7.2785,-7.1819,-7.0094,-6.7963,0.0,-6.2753,-6.096,-6.0317,-6.0047,-5.9945,-6.0689,-6.1603,-6.2482,-6.299,0.0,0.0,0.0,0.0,0.0,0.0,0.0,0.0,0.0,0.0,0.0,0.0,0.0,0.0,-7.5441,-7.5963,-7.5963,-7.441,-7.3812,-7.4233,-7.183,-7.0843,-7.1321,-7.1321,-7.0624,-6.9376,-6.9889,-6.9229,-6.765,-6.7357,0.0,0.0,-6.6733,-6.6916,-6.7173,-6.688,-6.6439,-6.6035,-6.6035,-6.5521,-6.4861,0.0,0.0,0.0,0.0,0.0,-4.6077,-4.6726,-4.7106,-4.7309,-4.7309,-4.7309,-4.7309,-4.7309,-4.7309,-4.7309,-4.7309,-4.7309,0.0,0.0,0.0,0.0,0.0,0.0,0.0,0.0,0.0,-4.8177,-4.8566,-4.8566,0.0,0.0,0.0,0.0,0.0,0.0,0.0,0.0,0.0,0.0,0.0,0.0,0.0,0.0,0.0,0.0,0.0,0.0,0.0,0.0,0.0,0.0,0.0,0.0,0.0,0.0,0.0,-6.4943,-6.7241,-6.9831,-7.0991,-7.1815,-7.313,-7.1819,-6.9722,0.0,0.0,-6.2212,-6.0452,-6.0283,-6.0216,-5.9471,-6.0419,-6.1366,-6.1603,-6.2042,-6.3091,-6.5087,0.0,0.0,0.0,0.0,0.0,0.0,0.0,0.0,0.0,0.0,0.0,0.0,-7.3799,-7.4492,-7.501,-7.3726,-7.3152,-7.3483,-7.1572,-7.0806,-7.1326,-7.1326,-7.0747,-6.9633,-6.9963,-6.9339,-6.8017,0.0,0.0,0.0,-6.7687,-6.7687,-6.7687,-6.7687,-6.721,-6.6512,-6.6769,-6.6366,-6.5705,0.0,0.0,0.0,0.0,0.0,0.0,-4.5779,-4.6638,-4.7309,-4.7309,-4.7309,-4.7309,-4.7309,-4.7309,-4.7309,-4.7309,-4.7309,0.0,0.0,0.0,0.0,0.0,0.0,0.0,0.0,0.0,-4.7967,-4.9254,-4.9254,-4.9912,-5.1199,-5.1199,0.0,0.0,0.0,0.0,0.0,0.0,0.0,0.0,0.0,0.0,0.0,0.0,0.0,0.0,0.0,0.0,0.0,0.0,0.0,0.0,0.0,0.0,0.0,0.0,-6.2295,-6.5701,-6.8975,-7.0324,-7.1246,-7.3088,-7.1819,-6.9586,0.0,0.0,-6.2854,-6.0588,-6.0723,-6.1028,-6.025,-6.0757,-6.1535,-6.2245,-6.2381,-6.2922,-6.441,0.0,0.0,0.0,0.0,0.0,0.0,0.0,0.0,0.0,0.0,0.0,0.0,-7.2296,-7.3148,-7.4937,-7.4189,-7.3476,-7.2727,-7.1906,-7.1462,-7.1422,-7.1422,-7.1332,-7.1248,-7.0477,-6.9669,0.0,0.0,0.0,0.0,-6.7687,-6.7687,-6.7687,-6.7687,-6.721,-6.6586,-6.7393,-6.7173,-6.6586,0.0,0.0,0.0,0.0,0.0,0.0,0.0,-4.6077,-4.655,-4.7222,-4.7309,-4.7309,-4.7309,-4.7309,-4.7309,-4.7309,-4.7309,0.0,0.0,0.0,0.0,0.0,0.0,0.0,0.0,0.0,-4.8386,-4.9254,-4.9254,-4.9942,-5.1199,-5.0301,-4.9912,-4.9912,0.0,0.0,0.0,0.0,0.0,0.0,0.0,0.0,0.0,0.0,0.0,0.0,0.0,0.0,0.0,0.0,0.0,0.0,0.0,0.0,0.0,-5.4016,-5.74,0.0,-6.4095,-6.564,-6.6873,-6.836,-6.7424,-6.6029,-6.5395,0.0,-6.1637,-6.0351,-6.0317,-6.025,-5.9505,-5.9979,-6.0892,-6.2178,-6.2381,-6.2719,-6.3734,0.0,0.0,0.0,0.0,0.0,0.0,0.0,0.0,0.0,0.0,0.0,0.0,-7.1985,-7.2467,-7.3392,-7.2659,-7.2092,-7.1854,-7.1152,-7.07,-7.0637,-7.0637,-7.057,-7.0532,-6.9732,0.0,0.0,0.0,0.0,0.0,-6.8274,-6.8201,-6.7687,-6.7687,-6.754,-6.7357,-6.7614,-6.754,-6.7357,0.0,0.0,0.0,0.0,0.0,0.0,0.0,-4.5207,-4.5869,-4.6166,-4.6844,-4.7106,-4.6726,-4.7106,-4.7309,-4.7309,-4.7309,0.0,0.0,0.0,0.0,0.0,0.0,0.0,-4.7309,-4.7698,-4.8356,-4.9254,-4.9254,-4.9942,-5.1199,-5.0122,-4.9733,-4.9853,-4.9464,0.0,0.0,0.0,0.0,0.0,0.0,0.0,-5.0152,0.0,0.0,0.0,0.0,0.0,0.0,0.0,0.0,0.0,0.0,0.0,0.0,0.0,-5.3957,-5.7459,0.0,-6.2228,-6.3736,-6.5259,-6.4774,0.0,0.0,0.0,-6.1061,-6.0283,-6.0114,-5.9877,-5.9167,-5.9607,-6.0419,-6.1366,-6.1772,-6.2347,-6.3362,0.0,0.0,0.0,0.0,0.0,0.0,0.0,0.0,0.0,0.0,0.0,0.0,0.0,-7.2072,-7.2416,-7.1744,-7.1283,-7.1124,-7.0357,-6.9933,-6.9884,-6.9884,-6.9839,-6.9813,-6.9245,0.0,0.0,0.0,0.0,0.0,-6.787,-6.7909,-6.7687,-6.7687,-6.7687,-6.7687,-6.7687,-6.7687,-6.765,0.0,0.0,0.0,0.0,0.0,0.0,0.0,-4.4191,-4.5235,-4.4406,-4.5987,-4.6844,-4.5869,-4.6726,-4.7309,-4.7309,0.0,0.0,0.0,0.0,0.0,0.0,0.0,0.0,-4.7309,-4.7309,-4.7938,-4.9194,-4.9194,-4.9883,-5.1139,-5.0421,-4.9793,-4.9254,-4.9164,-4.8805,0.0,0.0,0.0,0.0,0.0,0.0,0.0,0.0,0.0,0.0,0.0,0.0,0.0,0.0,0.0,0.0,0.0,0.0,0.0,0.0,0.0,0.0,0.0,-5.9791,0.0,0.0,0.0,0.0,0.0,0.0,0.0,-6.0106,-5.9937,-5.981,-5.9066,-5.9471,-5.9979,-6.008,-6.0791,-6.1839,-6.3294,0.0,0.0,0.0,0.0,0.0,0.0,0.0,0.0,0.0,0.0,0.0,0.0,0.0,-7.1688,-7.1985,-7.1439,-7.0938,-7.0394,-6.9704,-6.9307,-6.9161,-6.9161,-6.9104,-6.9094,-6.9023,0.0,0.0,0.0,0.0,0.0,-6.6895,-6.7243,-6.7707,-6.776,-6.7724,-6.7687,-6.7687,-6.7687,-6.7577,0.0,0.0,0.0,0.0,0.0,0.0,0.0,0.0,0.0,0.0,-4.5417,-4.6077,-4.5869,-4.6726,-4.7309,0.0,0.0,0.0,0.0,0.0,0.0,0.0,0.0,0.0,-4.7309,-4.7309,-4.7698,-4.8506,-4.8506,-4.9194,-5.0451,-4.9284,-4.8925,-4.9224,-4.8207,-4.7967,0.0,0.0,0.0,0.0,0.0,0.0,0.0,0.0,0.0,0.0,-4.7369,-4.7728,0.0,0.0,0.0,0.0,0.0,0.0,0.0,0.0,-5.1506,-5.2238,-5.316,0.0,-5.6898,-5.7611,-5.8128,-5.8574,0.0,0.0,0.0,0.0,0.0,-5.9032,-5.8287,-5.8287,-5.8795,-5.9911,-6.0791,-6.1839,-6.3294,0.0,0.0,0.0,0.0,0.0,0.0,0.0,0.0,0.0,0.0,0.0,0.0,0.0,-7.1457,-7.1688,-7.0974,-7.0516,-7.0182,-7.014,-6.9509,-6.8397,-6.8397,-6.8642,-6.9138,-6.8539,0.0,0.0,0.0,0.0,-6.774,-6.8858,-6.873,-6.7819,-6.8403,-6.8238,-6.7687,-6.7687,-6.7687,-6.7577,0.0,0.0,0.0,0.0,0.0,0.0,0.0,0.0,0.0,0.0,0.0,-4.4961,-4.447,-4.5326,0.0,0.0,0.0,0.0,0.0,0.0,0.0,0.0,0.0,-4.7309,-4.7309,-4.7309,-4.7638,-4.8297,-4.8297,-4.8955,-5.0212,-4.9194,-4.8925,-4.9194,-4.7908,-4.7489,0.0,0.0,0.0,0.0,-4.8805,0.0,0.0,0.0,0.0,0.0,-4.7309,-4.7549,0.0,-4.8177,-4.8955,-4.9793,0.0,0.0,0.0,0.0,-5.1293,-5.1777,-5.1476,-5.2574,-5.3926,-5.4482,-5.5336,-5.6214,-5.6765,0.0,0.0,0.0,0.0,0.0,-5.7876,0.0,0.0,-5.9404,-6.0554,-6.2178,0.0,0.0,0.0,0.0,0.0,0.0,0.0,0.0,0.0,0.0,0.0,0.0,0.0,0.0,-7.1401,-7.1457,-7.1138,-7.0822,-7.0446,-6.9976,-6.9301,-6.8475,-6.8176,-6.8319,-6.8635,-6.8218,-6.8059,0.0,0.0,0.0,-6.6979,-6.7807,-6.7597,-6.6834,-6.7234,-6.7099,-6.6758,-6.7117,-6.7011,-6.6573,0.0,0.0,0.0,0.0,0.0,0.0,0.0,0.0,0.0,0.0,0.0,0.0,0.0,0.0,0.0,0.0,0.0,0.0,0.0,0.0,0.0,0.0,-4.7222,-4.7309,-4.7309,-4.7309,-4.7578,-4.8147,-4.8147,-4.8805,-5.0062,-4.9314,-4.8955,-4.8925,-4.7818,-4.7309,0.0,0.0,0.0,0.0,-4.8147,0.0,0.0,0.0,0.0,0.0,0.0,0.0,0.0,-4.7938,-4.8566,-4.9134,-4.9134,0.0,0.0,0.0,0.0,0.0,-5.1229,-5.1509,-5.2152,-5.2855,-5.3833,-5.4705,-5.5171,0.0,0.0,0.0,0.0,0.0,0.0,0.0,0.0,0.0,0.0,0.0,0.0,0.0,0.0,0.0,0.0,0.0,0.0,0.0,0.0,0.0,0.0,0.0,0.0,0.0,0.0,-7.1312,-7.1219,-7.1022,-7.0738,-6.9541,-6.8953,-6.8932,-6.8303,-6.8083,-6.8083,-6.8083,-6.7738,0.0,0.0,0.0,-6.5863,-6.59,-6.5788,-6.564,-6.5704,-6.5697,-6.5653,-6.6283,-6.603,-6.5402,0.0,0.0,0.0,0.0,0.0,0.0,0.0,0.0,0.0,0.0,0.0,0.0,0.0,0.0,0.0,0.0,0.0,0.0,0.0,0.0,0.0,-4.6077,-4.6844,-4.7309,-4.7309,-4.7309,-4.7369,-4.7459,-4.7459,-4.8117,-4.9404,-4.8177,-4.7608,-4.7608,-4.7399,-4.7309,-4.7309,-4.7309,0.0,0.0,0.0,0.0,0.0,0.0,0.0,0.0,0.0,0.0,0.0,-4.7429,-4.7908,-4.8446,-4.8446,0.0,0.0,0.0,0.0,0.0,-5.0421,-5.1199,-5.2137,-5.1937,-5.2518,-5.2978,-5.2031,0.0,0.0,0.0,0.0,0.0,0.0,0.0,0.0,0.0,0.0,0.0,0.0,0.0,0.0,0.0,0.0,0.0,0.0,0.0,0.0,0.0,0.0,0.0,0.0,0.0,0.0,-7.1312,-7.0094,-6.9742,-7.025,-6.9834,-6.9336,-6.8932,-6.8143,-6.7959,-6.8083,-6.8083,-6.8049,0.0,0.0,-6.6919,-6.6796,-6.677,-6.6356,-6.5756,-6.6327,-6.6196,-6.559,-6.5716,-6.5645,-6.56,0.0,0.0,0.0,0.0,0.0,0.0,0.0,0.0,0.0,0.0,0.0,0.0,0.0,0.0,0.0,0.0,0.0,0.0,0.0,0.0,-4.4961,-4.4961,-4.5417,-4.6195,-4.7309,-4.7638,-4.7848,-4.7848,-4.8177,-4.8865,-4.9763,-4.8805,-4.8177,-4.7818,-4.7459,-4.7309,-4.7309,-4.7309,-4.7309,-4.7309,0.0,0.0,0.0,0.0,0.0,0.0,0.0,0.0,0.0,0.0,-4.7758,-4.8237,-4.7878,0.0,0.0,0.0,0.0,0.0,-5.0242,-5.093,-5.1678,-5.1927,-5.2386,-5.2725,-5.2639,0.0,0.0,0.0,0.0,0.0,0.0,0.0,0.0,0.0,0.0,0.0,0.0,0.0,0.0,0.0,0.0,0.0,0.0,0.0,0.0,0.0,0.0,0.0,0.0,0.0,0.0,0.0,-6.9451,-6.9248,-6.9586,-6.8981,-6.8693,-6.8603,-6.8096,-6.7879,-6.7959,-6.8004,-6.8083,-6.8049,0.0,-6.6773,-6.6401,-6.5982,-6.5329,-6.4598,-6.4953,-6.4847,-6.4497,-6.4446,-6.4663,-6.4912,0.0,0.0,0.0,0.0,0.0,0.0,0.0,0.0,0.0,0.0,0.0,0.0,0.0,0.0,0.0,0.0,0.0,0.0,0.0,-4.3843,-4.3937,-4.3937,-4.4219,-4.5144,-4.6931,-4.7585,-4.8089,-4.8297,-4.8955,-4.9434,-4.9763,-4.9434,-4.8835,-4.8027,-4.7519,-4.7309,-4.7309,-4.7309,-4.7309,-4.7309,0.0,0.0,0.0,0.0,0.0,0.0,0.0,0.0,0.0,0.0,0.0,0.0,0.0,0.0,0.0,-4.8207,-4.8865,-4.9823,-4.9972,-5.0481,-5.1139,-5.1798,0.0,-5.2292,-5.3512,0.0,0.0,0.0,0.0,0.0,0.0,0.0,0.0,0.0,0.0,0.0,0.0,0.0,0.0,0.0,0.0,0.0,0.0,0.0,0.0,0.0,0.0,0.0,0.0,0.0,0.0,0.0,-6.8741,-6.8639,-6.8808,-6.803,-6.7811,-6.8268,-6.7851,-6.7719,-6.7799,-6.7959,-6.7935,-6.7807,-6.7049,-6.629,-6.5531,-6.4772,-6.4117,-6.36,-6.36,-6.36,-6.3604,-6.352,-6.3791,-6.4114,0.0,0.0,0.0,0.0,0.0,0.0,0.0,0.0,0.0,0.0,0.0,0.0,0.0,0.0,0.0,0.0,0.0,0.0,0.0,-4.2431,-4.2889,-4.2889,-4.3843,-4.4776,-4.5869,-4.6538,-4.7342,-4.8297,-4.8955,-4.8985,-4.8446,-4.9015,-4.8596,-4.7369,-4.7339,-4.7309,-4.7309,-4.7309,-4.7309,-4.7309,-4.7309,0.0,0.0,0.0,0.0,0.0,0.0,0.0,0.0,0.0,0.0,0.0,0.0,0.0,-4.7429,-4.7399,-4.7878,-4.8566,-4.9164,-4.9823,-5.0481,-5.1109,-5.084,0.0,-5.2852,-5.2888,0.0,0.0,0.0,0.0,0.0,0.0,0.0,0.0,0.0,0.0,0.0,0.0,0.0,0.0,0.0,0.0,0.0,0.0,0.0,0.0,0.0,0.0,0.0,0.0,0.0,0.0,0.0,-6.7286,-6.7996,-6.7252,-6.7337,-6.8268,-6.7604,-6.7428,-6.7799,-6.7799,-6.7581,-6.7014,-6.629,-6.5531,-6.4738,-6.3979,-6.3634,-6.36,-6.36,-6.36,-6.36,-6.3604,-6.3643,-6.3539,0.0,0.0,0.0,0.0,0.0,0.0,0.0,0.0,0.0,0.0,0.0,0.0,0.0,0.0,0.0,0.0,0.0,0.0,0.0,-4.1696,-4.1868,-4.1868,-4.2262,-4.2916,-4.3909,-4.6239,-4.793,-4.8895,-4.9553,-4.9523,-4.8895,-4.8716,-4.8177,-4.7309,-4.7309,-4.7309,-4.7309,-4.7309,-4.7309,-4.7309,-4.7309,-4.7309,0.0,0.0,0.0,0.0,0.0,0.0,0.0,0.0,-4.7309,-4.7309,-4.7309,-4.7309,-4.7309,-4.7309,-4.7758,-4.8327,-4.8596,-4.9134,-4.9793,-5.0451,-5.0122,0.0,0.0,0.0,0.0,0.0,0.0,0.0,0.0,0.0,0.0,0.0,0.0,0.0,0.0,0.0,0.0,0.0,0.0,0.0,0.0,0.0,0.0,0.0,0.0,0.0,0.0,0.0,0.0,0.0,-6.7117,-6.6948,-6.7218,-6.6948,-6.6948,-6.7421,-6.7233,-6.7263,-6.7394,-6.7112,-6.6896,-6.6789,-6.5551,-6.4828,-6.4634,-6.391,-6.36,-6.36,-6.36,-6.36,-6.36,-6.36,-6.3289,-6.2806,0.0,0.0,0.0,0.0,0.0,0.0,0.0,0.0,0.0,0.0,0.0,0.0,0.0,0.0,0.0,0.0,0.0,0.0,-4.1198,-4.1224,-4.1324,-4.1324,-4.1324,-4.1769,-4.2792,-4.5228,-4.7117,-4.8282,-4.8928,-4.8811,-4.808,-4.791,-4.7466,-4.6844,-4.7106,-4.7309,-4.7309,-4.7309,-4.7309,-4.7309,-4.7309,-4.7309,0.0,0.0,0.0,0.0,0.0,0.0,0.0,0.0,-4.7309,-4.7309,-4.7309,-4.7309,-4.7309,-4.7309,-4.7608,-4.8027,-4.8237,-4.8446,-4.8805,-4.9464,-4.9434,0.0,0.0,0.0,0.0,0.0,0.0,0.0,0.0,0.0,0.0,0.0,0.0,0.0,0.0,0.0,0.0,0.0,0.0,0.0,0.0,0.0,0.0,0.0,0.0,0.0,0.0,0.0,0.0,0.0,-6.6812,-6.6711,-6.644,-6.6677,-6.6677,-6.644,-6.6641,-6.6724,-6.6806,-6.646,-6.6109,-6.5833,-6.477,-6.4263,-6.4249,-6.3732,-6.3526,-6.36,-6.36,-6.36,-6.3565,-6.3324,-6.291,-6.2324,0.0,0.0,0.0,0.0,0.0,0.0,0.0,0.0,0.0,0.0,0.0,0.0,0.0,0.0,0.0,0.0,0.0,0.0,-4.0896,-4.1097,-4.1324,-4.1324,-4.1324,-4.1769,-4.2792,-4.3416,-4.4578,-4.6139,-4.6757,-4.6517,-4.5335,-4.6275,-4.6417,-4.5869,-4.6814,-4.7309,-4.7309,-4.7309,-4.7309,-4.7309,-4.7309,-4.7309,-4.7309,0.0,0.0,0.0,0.0,0.0,0.0,0.0,-4.7309,-4.7309,-4.7309,-4.7309,-4.7309,-4.7309,-4.7309,-4.7459,-4.8087,-4.7788,-4.7459,-4.8117,0.0,0.0,0.0,0.0,0.0,0.0,0.0,0.0,0.0,0.0,0.0,0.0,0.0,0.0,0.0,0.0,0.0,0.0,0.0,0.0,0.0,0.0,0.0,0.0,0.0,0.0,0.0,0.0,0.0,0.0,-6.6812,-6.644,-6.5696,-6.644,-6.644,-6.5662,-6.5662,-6.5779,-6.6024,-6.6024,-6.5255,-6.4093,-6.4093,-6.3837,-6.3302,-6.3302,-6.3452,-6.36,-6.36,-6.36,-6.3496,-6.2772,-6.2496,-6.2255,0.0,0.0,0.0,0.0,0.0,0.0,0.0,0.0,0.0,0.0,0.0,0.0,0.0,0.0,0.0,0.0,0.0,0.0,-4.0896,-4.0997,-4.1097,-4.1324,-4.1324,-4.1398,-4.1769,-4.2351,-4.3814,-4.6236,-4.6335,-4.5998,-4.5307,-4.5166,-4.4947,-4.4776,-4.5052,-4.5598,-4.6255,-4.6255,-4.6638,-4.7309,-4.7309,-4.7309,-4.7309,0.0,0.0,0.0,0.0,0.0,0.0,0.0,0.0,0.0,-4.7309,-4.7309,-4.7309,-4.7309,-4.7309,-4.7339,-4.7549,-4.7459,0.0,0.0,0.0,0.0,0.0,0.0,0.0,0.0,0.0,0.0,0.0,0.0,0.0,0.0,0.0,0.0,0.0,0.0,0.0,0.0,0.0,0.0,0.0,0.0,0.0,0.0,0.0,0.0,0.0,0.0,0.0,0.0,-6.6812,-6.644,-6.5696,-6.5899,-6.5662,-6.4918,-6.4918,-6.5189,-6.5745,-6.4695,-6.4063,-6.3859,-6.3315,-6.3128,-6.3076,-6.3227,-6.3452,-6.36,-6.36,-6.3289,-6.2772,-6.2565,-6.1806,-6.0806,0.0,0.0,0.0,0.0,0.0,0.0,0.0,0.0,0.0,0.0,0.0,0.0,0.0,0.0,0.0,0.0,0.0,0.0,0.0,-4.0694,-4.0896,-4.1097,-4.1097,-4.1198,-4.1324,-4.1873,-4.2897,-4.4272,-4.4491,-4.4201,-4.3725,-4.3725,-4.3887,-4.4109,-4.4237,-4.5011,-4.6156,-4.5895,-4.6344,-4.7309,-4.7309,-4.7309,-4.7309,0.0,0.0,0.0,0.0,0.0,0.0,0.0,0.0,0.0,-4.7309,-4.7309,-4.7309,-4.7309,-4.7309,-4.7309,-4.7309,0.0,0.0,0.0,0.0,0.0,0.0,0.0,0.0,0.0,0.0,0.0,0.0,0.0,0.0,0.0,0.0,0.0,0.0,0.0,0.0,0.0,0.0,0.0,0.0,0.0,0.0,0.0,0.0,0.0,0.0,0.0,0.0,0.0,-6.6102,-6.5561,-6.4816,-6.5121,-6.4884,-6.4174,-6.3869,-6.3937,-6.4343,-6.3768,-6.3441,-6.326,-6.2819,-6.2464,-6.207,-6.2529,-6.261,-6.2483,-6.2483,-6.2282,-6.1907,-6.1597,-6.0908,-6.0151,0.0,0.0,0.0,0.0,0.0,0.0,0.0,0.0,0.0,0.0,0.0,0.0,0.0,0.0,0.0,0.0,0.0,0.0,0.0,-4.0287,-4.0593,-4.0896,-4.0896,-4.1097,-4.1324,-4.1821,-4.1847,-4.1324,-4.1873,-4.1873,-4.1324,-4.2235,-4.3047,-4.3589,-4.4026,-4.5052,-4.6339,-4.5888,-4.6255,-4.7106,-4.7106,-4.7222,-4.7309,-4.7309,0.0,0.0,0.0,0.0,0.0,0.0,0.0,0.0,-4.7309,-4.7309,-4.7309,-4.7309,-4.7309,-4.7309,0.0,0.0,0.0,0.0,0.0,0.0,0.0,0.0,0.0,0.0,0.0,0.0,0.0,0.0,0.0,0.0,0.0,0.0,0.0,0.0,0.0,0.0,0.0,0.0,0.0,0.0,0.0,0.0,0.0,0.0,0.0,0.0,0.0,0.0,-6.4952,-6.4241,-6.3531,-6.4106,-6.4038,0.0,-6.255,-6.2178,-6.2212,-6.2888,-6.2821,-6.2178,-6.2581,-6.1843,-6.0551,-6.1524,-6.1428,-6.0818,-6.0818,-6.0823,-6.0796,-6.0144,-5.994,-5.9978,0.0,0.0,0.0,0.0,0.0,0.0,0.0,0.0,0.0,0.0,0.0,0.0,0.0,0.0,0.0,0.0,0.0,0.0,0.0,-4.0185,-4.0389,-4.0896,-4.1097,-4.1198,-4.1324,-4.1428,-4.1428,-4.1324,-4.1873,-4.1873,-4.1298,-4.1498,-4.1887,-4.2541,-4.2966,-4.3602,-4.4346,-4.4565,-4.5235,-4.6166,-4.6166,-4.6638,-4.7309,-4.7309,-4.7309,0.0,0.0,0.0,0.0,0.0,0.0,0.0,-4.7309,-4.7309,-4.7309,-4.7309,-4.7309,-4.7309,0.0,0.0,0.0,0.0,0.0,0.0,0.0,0.0,0.0,0.0,0.0,0.0,0.0,0.0,0.0,0.0,0.0,0.0,0.0,0.0,0.0,0.0,0.0,0.0,0.0,0.0,0.0,0.0,0.0,0.0,0.0,0.0,0.0,-6.485,-6.4681,-6.4241,-6.3531,-6.3091,-6.2482,0.0,-6.096,-6.0588,-6.0588,-6.0757,-6.0757,-6.0655,-6.1951,-6.1689,-6.0483,-6.134,-6.1279,-6.0818,-6.0818,-6.0442,-5.986,-5.9724,-5.9455,-5.9081,0.0,0.0,0.0,0.0,0.0,0.0,0.0,0.0,0.0,0.0,0.0,0.0,0.0,0.0,0.0,0.0,0.0,0.0,0.0,0.0,-4.0185,-4.0694,-4.1123,-4.1324,-4.1324,-4.1324,-4.1324,-4.1324,-4.1611,-4.1611,-4.1324,-4.1324,-4.1611,-4.2236,-4.2133,-4.2682,-4.3687,-4.4093,-4.4869,-4.5869,-4.6344,-4.6814,-4.7309,-4.7309,-4.7309,-4.7309,-4.7309,0.0,0.0,0.0,0.0,0.0,0.0,0.0,-4.7309,-4.7309,-4.7309,-4.7309,0.0,0.0,0.0,0.0,0.0,0.0,0.0,0.0,0.0,0.0,0.0,0.0,0.0,0.0,0.0,0.0,0.0,0.0,0.0,0.0,0.0,0.0,0.0,0.0,0.0,0.0,0.0,0.0,0.0,0.0,0.0,-6.2438,-6.2731,-6.2848,-6.2513,-6.2219,-6.1873,-6.1501,-6.1095,-6.0723,-5.9945,-5.9404,-5.9066,-5.9776,-5.9911,-5.9641,-6.0791,-6.0495,-5.9248,-6.0028,-5.9967,-5.9434,-5.9434,-5.9196,-5.8893,-5.8893,-5.8798,-5.8631,0.0,0.0,0.0,0.0,0.0,0.0,0.0,0.0,0.0,0.0,0.0,0.0,0.0,0.0,0.0,0.0,0.0,0.0,0.0,0.0,0.0,-4.0389,-4.0922,-4.1123,-4.1123,-4.1224,-4.1198,-4.1198,-4.1324,-4.1324,-4.1324,-4.1324,-4.1611,-4.2134,-4.176,-4.2312,-4.349,-4.3903,-4.4499,-4.5298,-4.6166,-4.6638,-4.6756,-4.6756,-4.6931,-4.7019,-4.7019,-4.7106,-4.7309,-4.7309,0.0,0.0,0.0,0.0,-4.7309,-4.7309,-4.7309,-4.7309,0.0,0.0,0.0,0.0,0.0,0.0,0.0,0.0,0.0,0.0,0.0,0.0,0.0,0.0,0.0,0.0,0.0,0.0,0.0,0.0,0.0,0.0,0.0,0.0,0.0,0.0,0.0,0.0,0.0,0.0,-6.0121,-6.0267,-6.0381,-6.0373,-5.9944,-5.9751,-5.9852,-5.9903,-5.9911,-5.9911,-5.9167,-5.849,-5.7915,-5.9167,-5.9404,-5.8863,-5.9708,-5.9268,-5.7949,-5.8693,-5.8558,-5.7881,-5.7881,-5.8027,-5.8133,-5.8133,-5.8277,-5.849,0.0,0.0,0.0,0.0,0.0,0.0,0.0,0.0,0.0,0.0,0.0,0.0,0.0,0.0,0.0,0.0,0.0,0.0,-3.9697,0.0,0.0,-4.0185,-4.0389,-4.0618,-4.0618,-4.0795,-4.0997,-4.0997,-4.1224,-4.1324,-4.1324,-4.1324,-4.1611,-4.2236,-4.2503,-4.2556,-4.2413,-4.2868,-4.3081,-4.3245,-4.3368,-4.3909,-4.4684,-4.4684,-4.5235,-4.5958,-4.5958,-4.655,-4.7309,-4.7309,-4.7309,0.0,0.0,0.0,-4.7309,-4.7309,-4.7309,0.0,0.0,0.0,0.0,0.0,0.0,0.0,0.0,0.0,0.0,0.0,0.0,0.0,0.0,0.0,0.0,0.0,0.0,0.0,0.0,0.0,0.0,0.0,0.0,0.0,0.0,0.0,0.0,0.0,0.0,0.0,-5.7603,-5.8374,-5.8572,-5.7995,-5.8642,-5.898,-5.896,-5.906,-5.9167,-5.9167,-5.8389,-5.7983,-5.7881,-5.8084,-5.8118,-5.8118,-5.9505,-5.9268,-5.7949,-5.8693,-5.8558,-5.7881,-5.7881,-5.7881,-5.7954,-5.7954,-5.8027,-5.8277,0.0,0.0,0.0,0.0,0.0,0.0,0.0,0.0,0.0,0.0,0.0,0.0,0.0,0.0,0.0,-3.9697,-3.9697,-3.9697,-3.9697,-3.9981,-4.0083,-4.0083,-4.0389,-4.0517,-4.0517,-4.0795,-4.0896,-4.0896,-4.1198,0.0,0.0,-4.1324,-4.1455,-4.1664,-4.1901,-4.1828,-4.1765,-4.2538,-4.2792,-4.2889,-4.3464,-4.3937,-4.4312,-4.4312,-4.4961,-4.5779,-4.5779,-4.6432,-4.7309,-4.7309,-4.7309,-4.7309,-4.7309,0.0,0.0,0.0,0.0,0.0,0.0,0.0,0.0,0.0,0.0,0.0,0.0,0.0,0.0,0.0,0.0,0.0,0.0,0.0,0.0,0.0,0.0,0.0,0.0,0.0,0.0,0.0,0.0,0.0,0.0,0.0,0.0,0.0,0.0,-5.6653,-5.6311,-5.6395,-5.6309,-5.6103,-5.6498,-5.6971,-5.7574,-5.7663,-5.7909,-5.8389,-5.8051,-5.7881,-5.7881,-5.7881,-5.7881,-5.7915,-5.8592,-5.849,-5.7915,-5.8254,-5.8186,-5.7881,-5.7881,-5.7881,-5.7881,-5.7881,-5.7954,-5.8027,0.0,0.0,0.0,0.0,0.0,0.0,0.0,0.0,0.0,0.0,0.0,0.0,0.0,0.0,0.0,0.0,-3.9697,-3.9697,-3.9697,-3.9878,-3.9981,-3.9981,-4.0185,-4.0313,-4.0313,-4.0593,-4.0795,-4.0694,0.0,0.0,-4.1198,-4.1324,-4.1324,0.0,-4.1324,-4.1324,-4.1324,-4.2039,-4.2431,-4.2528,-4.3273,-4.3559,-4.3559,-4.3559,-4.4191,-4.5024,-4.5024,-4.5898,-4.6931,-4.6931,-4.7106,-4.7309,-4.7309,-4.7309,0.0,0.0,0.0,0.0,0.0,0.0,0.0,0.0,0.0,0.0,0.0,0.0,0.0,0.0,0.0,0.0,0.0,0.0,0.0,0.0,0.0,0.0,0.0,0.0,0.0,0.0,0.0,0.0,0.0,0.0,0.0,0.0,0.0,-5.553,-5.5222,-5.473,-5.439,-5.4449,-5.4592,-5.5165,-5.5955,-5.6183,-5.6654,-5.7285,-5.7538,-5.7509,-5.734,-5.7509,-5.7611,-5.7611,-5.7814,-5.7881,-5.7881,-5.7881,-5.7881,-5.7881,-5.7881,-5.7881,-5.7881,-5.7881,-5.7881,-5.7881,0.0,0.0,0.0,0.0,0.0,0.0,0.0,0.0,0.0,0.0,0.0,0.0,-3.9697,-3.9697,-3.9697,-3.9697,-3.9697,-3.9697,-3.9697,-3.9697,-3.9697,-3.9697,-3.9697,0.0,-3.9697,-4.0287,-4.0389,-4.0185,0.0,0.0,-4.0896,-4.1198,-4.1324,-4.1324,-4.1324,-4.1324,-4.1324,-4.1324,-4.1424,-4.1398,-4.1398,-4.1498,-4.1498,-4.1498,-4.2065,-4.2985,-4.2985,-4.4191,-4.5869,-4.5869,-4.655,-4.7309,-4.7309,-4.7309,-4.7309,0.0,0.0,0.0,0.0,0.0,0.0,0.0,0.0,0.0,0.0,0.0,0.0,0.0,0.0,0.0,0.0,0.0,0.0,0.0,0.0,0.0,0.0,0.0,0.0,0.0,0.0,0.0,0.0,0.0,0.0,0.0,0.0,-5.5161,-5.3899,-5.3775,-5.3468,-5.288,-5.364,-5.4094,-5.4147,-5.511,-5.5554,-5.5629,-5.6438,-5.6494,-5.5852,-5.6562,-5.6867,-5.69,-5.7577,-5.7881,-5.7881,-5.7881,-5.7881,-5.7881,-5.7881,-5.7881,-5.7881,-5.7881,-5.7881,-5.7881,0.0,0.0,0.0,0.0,0.0,0.0,0.0,0.0,0.0,0.0,0.0,0.0,0.0,-3.9697,-3.9697,-3.9697,-3.9697,-3.9697,-3.9697,-3.9697,-3.9697,-3.9697,-3.9697,-3.9697,-3.9697,-4.0083,-4.0185,-4.0083,0.0,-4.0997,-4.0896,-4.1198,-4.1324,-4.1324,-4.1324,-4.1324,-4.1324,-4.1324,-4.1324,0.0,-4.1097,-4.0997,-4.0997,-4.0997,0.0,0.0,0.0,0.0,0.0,-4.5598,-4.6077,-4.6432,-4.7106,-4.7309,-4.7309,-4.7309,-4.7309,0.0,0.0,0.0,0.0,0.0,0.0,0.0,0.0,0.0,0.0,0.0,0.0,0.0,0.0,0.0,0.0,0.0,0.0,0.0,0.0,0.0,0.0,0.0,0.0,0.0,0.0,0.0,0.0,0.0,0.0,0.0,-5.3745,-5.3314,-5.2975,-5.2729,-5.3024,-5.3215,-5.3313,-5.384,-5.4339,-5.4899,-5.5195,-5.5492,-5.5716,-5.5987,-5.6089,-5.6122,-5.6393,-5.7036,-5.7848,-5.7374,-5.7476,-5.7848,-5.7374,-5.7476,-5.7881,-5.7881,-5.7881,-5.7881,0.0,0.0,0.0,0.0,0.0,0.0,0.0,0.0,0.0,0.0,0.0,0.0,0.0,0.0,-3.9697,-3.9697,-3.9697,-3.9697,-3.9697,-3.9697,-3.9697,-3.9697,-3.9697,-3.9697,-3.9697,-3.9981,-4.0083,-3.9981,-4.0491,-4.0694,-4.0694,-4.0997,-4.1198,-4.1198,-4.1224,-4.1324,-4.1324,0.0,0.0,-4.1324,0.0,0.0,-4.0997,0.0,0.0,0.0,0.0,0.0,0.0,0.0,-4.5052,-4.5508,-4.6462,-4.7019,-4.7309,-4.7309,-4.7309,-4.7309,-4.7309,0.0,0.0,0.0,0.0,0.0,0.0,0.0,0.0,0.0,0.0,0.0,0.0,0.0,0.0,0.0,0.0,0.0,0.0,0.0,0.0,0.0,0.0,0.0,0.0,0.0,0.0,0.0,0.0,0.0,-5.3193,-5.2854,-5.2698,-5.2698,-5.2483,-5.2379,-5.2574,-5.2507,-5.2741,-5.328,-5.3841,-5.4256,-5.4589,-5.5069,-5.5344,-5.5344,-5.5344,-5.6021,-5.7137,-5.663,-5.6867,-5.7476,-5.7002,-5.7239,-5.7881,-5.7881,-5.7881,-5.7881,0.0,0.0,0.0,0.0,0.0,0.0,0.0,0.0,0.0,-3.9697,0.0,0.0,0.0,0.0,0.0,-3.9697,-3.9697,-3.9697,-3.9697,-3.9697,-3.9697,-3.9697,-3.9697,-3.9697,-3.9697,-3.9981,-3.9981,-3.9697,-4.0211,-4.0389,-4.0083,-4.0668,-4.0896,-4.0896,-4.1198,-4.1324,-4.1324,0.0,-4.1324,-4.1324,0.0,-4.0997,-4.1224,0.0,0.0,0.0,-4.1324,-4.1868,0.0,-4.2792,0.0,-4.4406,-4.5508,-4.6462,-4.7309,-4.7309,-4.7309,-4.7309,0.0,0.0,0.0,0.0,0.0,0.0,0.0,0.0,0.0,0.0,0.0,0.0,0.0,0.0,0.0,0.0,0.0,0.0,0.0,0.0,0.0,0.0,0.0,0.0,0.0,0.0,0.0,0.0,0.0,-5.2979,-5.2337,-5.2518,-5.2698,-5.2698,-5.2021,-5.1652,-5.1652,-5.108,-5.0879,-5.0879,-5.2486,-5.2897,-5.234,-5.385,-5.4566,-5.4566,-5.4566,-5.4972,-5.5649,-5.5683,-5.6122,-5.6799,-5.6799,-5.7205,-5.7848,-5.7881,-5.7881,-5.7881,0.0,0.0,0.0,0.0,0.0,0.0,-3.9697,-3.9697,-3.9697,0.0,0.0,0.0,0.0,-3.9697,-3.9697,-3.9697,-3.9697,-3.9697,-3.9697,-3.9697,-3.9697,-3.9697,-3.9697,-3.9697,-3.9697,-3.98,-3.98,-3.9697,-4.0083,-4.0287,-4.0389,-4.0491,-4.0795,-4.1198,-4.1097,-4.1097,-4.1324,-4.1324,0.0,0.0,-4.0795,-4.072,0.0,0.0,0.0,0.0,0.0,-4.0997,0.0,0.0,-4.2792,-4.3531,0.0,-4.6462,-4.7309,-4.7309,-4.7309,-4.7309,-4.7309,0.0,0.0,0.0,0.0,0.0,0.0,0.0,0.0,0.0,0.0,0.0,0.0,0.0,0.0,0.0,0.0,0.0,0.0,0.0,0.0,0.0,0.0,0.0,0.0,0.0,0.0,0.0,-5.2425,-5.2337,-5.2306,-5.2518,-5.2483,-5.199,-5.1313,-5.0728,-5.0266,-4.9594,-4.954,-5.0153,-5.0625,-5.1037,-5.1475,-5.2506,-5.2924,-5.2994,-5.3584,-5.3923,-5.416,-5.4668,-5.5649,-5.6765,-5.6224,-5.6461,-5.7171,-5.7679,-5.7881,-5.7881,0.0,0.0,0.0,0.0,0.0,-3.9697,-3.9697,-3.9697,-3.9697,0.0,0.0,0.0,-3.9697,-3.9697,-3.9697,-3.9697,-3.9697,-3.9697,-3.9697,-3.9697,-3.9697,-3.9697,-3.9697,-3.9697,-3.9697,-3.9697,-3.9697,-3.9697,-3.9878,-3.9981,-4.0211,-4.0415,-4.0593,-4.0795,-4.0997,-4.1097,-4.1097,0.0,0.0,0.0,-4.0694,0.0,0.0,-4.0185,-4.0185,0.0,0.0,0.0,-4.0971,-4.1544,-4.2208,0.0,0.0,0.0,-4.6726,-4.7193,-4.7309,-4.7309,-4.7309,-4.7309,-4.7369,0.0,0.0,0.0,-4.8237,-4.8566,0.0,0.0,0.0,0.0,0.0,0.0,0.0,0.0,0.0,0.0,0.0,0.0,0.0,0.0,0.0,0.0,0.0,0.0,0.0,-5.2017,-5.1906,-5.1972,-5.2306,-5.2397,-5.2424,-5.2144,-5.119,-5.0513,-5.0112,-4.9127,-4.8852,-4.939,-4.971,-5.0151,-5.0615,-5.1443,-5.1769,-5.1842,-5.2661,-5.314,-5.3511,-5.3922,-5.4837,-5.5852,-5.575,-5.6156,-5.69,-5.7611,-5.7881,-5.7881,0.0,0.0,-3.9697,-3.9697,-3.9697,-3.9697,-3.9697,-3.9697,-3.9697,0.0,-3.9697,-3.9697,-3.9697,-3.9697,-3.9697,-3.9697,-3.9697,-3.9697,-3.9697,-3.9697,-3.9697,-3.9697,-3.9697,-3.9697,-3.9697,-3.9697,-3.9697,-3.9697,-3.9697,-3.9697,-3.98,-4.0211,-4.0287,-4.0185,-4.0896,0.0,0.0,0.0,0.0,-4.0795,-4.0593,-4.0517,0.0,0.0,-4.0185,0.0,-4.0415,-4.0593,-4.0795,-4.0896,-4.1743,0.0,0.0,0.0,-4.5779,-4.6844,-4.7106,-4.7106,-4.7309,-4.7309,-4.7429,0.0,0.0,0.0,-4.8027,-4.8177,0.0,0.0,0.0,0.0,0.0,0.0,0.0,0.0,0.0,0.0,0.0,0.0,0.0,0.0,0.0,0.0,0.0,-5.2486,-5.1858,-5.1259,-5.1479,-5.1757,-5.2215,-5.2215,-5.2366,-5.2516,-5.1344,-5.0636,-5.0574,-4.9281,-4.8604,-4.8604,-4.9358,-4.9678,-4.9789,-5.0615,-5.0995,-5.0995,-5.1842,-5.26,-5.3274,-5.331,-5.3855,-5.4668,-5.5412,-5.6122,-5.6799,-5.7577,-5.7881,-5.7881,-3.9697,0.0,-3.9697,-3.9697,-3.9697,-3.9697,-3.9697,-3.9697,-3.9697,-3.9697,-3.9697,-3.9697,-3.9697,-3.9697,-3.9697,-3.9697,-3.9697,-3.9697,-3.9697,-3.9697,-3.9697,-3.9697,-3.9697,-3.9697,-3.9697,-3.9697,-3.9697,-3.9697,-3.9697,-3.98,-3.9981,-3.9903,-4.0108,-4.0389,-4.0618,-4.0694,0.0,0.0,0.0,-4.0593,-4.0491,0.0,-4.0415,-3.9981,-3.98,-3.9903,-3.9903,-3.9981,-4.0287,0.0,-4.1743,-4.2792,0.0,0.0,0.0,-4.5779,-4.6077,-4.6255,0.0,0.0,0.0,0.0,0.0,0.0,-4.7459,-4.7489,-4.7638,0.0,0.0,0.0,0.0,0.0,0.0,0.0,0.0,0.0,0.0,0.0,0.0,0.0,0.0,0.0,0.0,-5.1798,-5.1349,-5.1229,-5.1479,-5.1665,-5.1757,-5.1972,-5.1911,-5.1601,-5.0804,-5.0217,-4.9897,-4.9035,-4.8604,-4.8604,-4.8769,-4.8852,-4.8852,-4.971,-5.0104,-5.0182,-5.0995,-5.1762,-5.2506,-5.2516,-5.3338,-5.4668,-5.5412,-5.5818,-5.6089,-5.7408,-5.7881,-5.7881,-3.9697,-3.9697,-3.9697,-3.9697,-3.9697,-3.9697,-3.9697,-3.9697,-3.9697,-3.9697,-3.9697,-3.9697,-3.9697,-3.9697,-3.9697,-3.9697,-3.9697,-3.9697,-3.9697,-3.9697,-3.9697,-3.9697,-3.9697,-3.9697,-3.9697,-3.9697,-3.9697,-3.9697,-3.9697,-3.98,-3.9878,-3.9878,-3.9981,-4.0108,-4.0389,-4.0593,0.0,0.0,-4.0896,-4.0694,-4.0491,0.0,-4.0108,-3.98,-3.9697,-3.9697,-3.9697,-3.9878,-4.0185,-4.0896,-4.1471,0.0,0.0,-4.3177,-4.3748,0.0,-4.5417,-4.5869,0.0,0.0,0.0,-4.7309,0.0,0.0,0.0,-4.7309,-4.7399,0.0,0.0,0.0,0.0,0.0,0.0,0.0,0.0,0.0,0.0,0.0,0.0,0.0,0.0,0.0,0.0,-5.1798,-5.1229,-5.1229,-5.1293,-5.1509,-5.1572,-5.1695,-5.1668,-5.1328,-5.0655,-5.0069,-4.9682,-4.8974,-4.8604,-4.8604,-4.8604,-4.8604,-4.8604,-4.9097,-4.9228,-4.9309,-5.0151,-5.0691,-5.1177,-5.1987,-5.2753,-5.3576,-5.4732,-5.5378,-5.5818,-5.6528,-5.7273,-5.7848,-3.9362,0.0,-3.9697,-3.9697,-3.9697,-3.9697,-3.9697,-3.9697,-3.9697,-3.9697,-3.949,-3.9465,-3.9697,-3.9465,-3.9465,-3.9697,-3.9697,-3.9697,-3.9697,-3.9697,-3.9697,-3.9697,-3.9697,-3.9697,-3.9697,-3.9697,-3.9697,-3.9697,-3.9697,-3.9697,-3.9697,-3.9878,-3.9878,-3.9697,-4.0211,-4.0389,0.0,0.0,0.0,-4.0694,0.0,-4.0185,-3.98,-3.9697,-3.9697,-3.9697,-3.9697,-3.9878,-4.0287,-4.0896,0.0,-4.1172,-4.2235,-4.2501,0.0,0.0,0.0,0.0,0.0,0.0,0.0,0.0,0.0,-4.7309,0.0,0.0,0.0,-4.7309,0.0,0.0,0.0,0.0,0.0,0.0,0.0,0.0,0.0,0.0,0.0,0.0,0.0,0.0,0.0,-5.1917,-5.1229,-5.1229,-5.1229,-5.1293,-5.1479,-5.1479,-5.1363,-5.1149,-5.0479,-4.9983,-4.9597,-4.889,-4.8521,-4.8604,-4.8604,-4.8604,-4.8604,-4.8604,-4.8604,-4.8604,-4.9309,-4.971,-5.0026,-5.1327,-5.202,-5.2445,-5.3986,-5.504,-5.575,-5.5886,-5.6765,-5.7814,-3.8056,-3.8921,0.0,-3.9697,-3.9697,-3.9697,-3.9697,-3.9697,-3.9697,-3.9697,-3.8816,-3.8502,0.0,0.0,0.0,0.0,0.0,0.0,-3.9697,0.0,-3.9697,-3.9697,-3.9697,-3.9697,-3.9697,-3.9697,-3.9697,-3.9697,-3.9697,-3.9697,-3.9697,-3.9697,-3.9697,-3.9697,-3.9981,0.0,0.0,0.0,-4.0389,0.0,-4.0185,-4.0083,0.0,-3.98,-3.9697,-3.9697,-3.9697,-4.0006,-4.0491,0.0,-4.0922,-4.1324,0.0,-4.1498,-4.1868,0.0,0.0,0.0,0.0,0.0,0.0,0.0,-4.7309,0.0,0.0,0.0,-4.7309,-4.7309,0.0,0.0,0.0,0.0,0.0,0.0,0.0,0.0,0.0,0.0,0.0,0.0,0.0,0.0,0.0,0.0,-5.1229,-5.1229,-5.1229,-5.1229,-5.1229,-5.1229,-5.1086,-5.0698,-5.0034,-4.9546,-4.931,-4.8722,-4.8469,-4.8604,-4.8604,-4.8604,-4.8604,-4.8604,-4.8604,-4.8604,-4.8687,-4.9178,-4.9868,-5.0104,-5.1027,-5.2445,-5.3986,-5.504,-5.5784,-5.6427,-5.7205,-5.7881,-3.795,-3.8816,0.0,-3.9697,-3.9697,-3.9697,-3.9697,-3.9697,-3.9697,-3.9697,-3.9258,0.0,0.0,0.0,0.0,0.0,0.0,0.0,0.0,0.0,-3.8921,-3.9697,-3.9697,-3.9697,-3.9697,-3.9697,-3.9697,-3.9697,-3.9697,-3.9697,-3.9697,-3.9878,-3.9878,-3.9697,-3.9981,0.0,-4.0083,0.0,0.0,0.0,0.0,0.0,0.0,-3.9697,-3.9697,-3.9697,-3.9878,-4.0083,-4.0287,0.0,-4.0896,0.0,0.0,0.0,0.0,0.0,0.0,0.0,0.0,0.0,0.0,0.0,0.0,0.0,-4.6432,0.0,-4.7309,0.0,0.0,0.0,0.0,0.0,0.0,0.0,-4.8506,0.0,0.0,0.0,0.0,0.0,0.0,0.0,0.0,0.0,0.0,0.0,0.0,-5.0661,-5.0661,-5.0661,-5.0453,-5.0035,-4.9764,-4.9277,-4.856,-4.8255,-4.8133,-4.8301,-4.8385,-4.8469,-4.8469,-4.8521,-4.8604,-4.8604,-4.8604,-4.8769,-4.9147,-4.971,-5.0538,-5.1729,-5.2853,-5.4018,-5.504,-5.4938,-5.5615,-5.663,-3.7394,0.0,0.0,0.0,-3.9697,-3.9697,-3.9697,-3.9697,-3.9697,0.0,0.0,0.0,-3.9898,-3.9228,0.0,0.0,0.0,-3.7607,0.0,0.0,-3.8477,0.0,0.0,0.0,0.0,-3.9697,-3.9697,-3.9697,-3.9697,-3.9697,-3.9697,-3.9878,-3.9878,-3.9697,0.0,-3.9981,-3.9981,0.0,0.0,-3.9981,-3.9981,-3.9878,-3.9697,-3.9697,-3.9697,-3.9697,-3.9878,-4.0083,-4.0287,-4.0694,-4.0896,0.0,-4.1224,0.0,0.0,0.0,0.0,0.0,-4.4219,0.0,0.0,0.0,0.0,0.0,0.0,0.0,0.0,0.0,0.0,0.0,0.0,0.0,0.0,0.0,0.0,-4.7614,0.0,0.0,0.0,0.0,0.0,0.0,0.0,0.0,0.0,-4.9583,-4.9972,-5.0152,-4.9972,-4.9972,-4.9764,-4.9283,-4.9253,-4.8799,-4.788,-4.788,-4.7964,-4.7964,-4.8133,-4.8218,-4.8218,-4.8385,-4.8469,-4.8521,-4.8521,-4.8521,-4.8604,-4.9309,-5.0026,-5.0843,-5.1696,-5.2782,-5.3986,-5.4092,-5.4938,-5.6055,-3.6294,-3.8161,0.0,0.0,0.0,0.0,-3.9697,0.0,0.0,0.0,0.0,0.0,0.0,0.0,0.0,0.0,0.0,-3.6727,-3.7844,0.0,-3.8477,0.0,0.0,0.0,0.0,0.0,-3.9697,-3.9697,-3.9697,-3.9697,-3.9697,-3.9697,-3.9697,-3.9697,-3.9697,-3.9697,-3.9697,-3.9697,-3.9697,-3.9697,-3.9697,-3.9697,-3.9697,0.0,-3.9697,-3.9697,-3.9697,0.0,0.0,-4.0517,-4.0821,0.0,0.0,0.0,0.0,0.0,0.0,0.0,0.0,0.0,0.0,-4.4312,0.0,0.0,0.0,0.0,-4.7019,0.0,0.0,0.0,0.0,0.0,0.0,0.0,0.0,0.0,0.0,0.0,0.0,0.0,0.0,0.0,0.0,0.0,0.0,-5.0242,-5.0242,-4.9972,-4.9344,-4.9284,-4.9015,-4.8327,-4.8327,-4.8085,-4.7624,-4.7624,-4.7709,-4.7964,-4.8049,-4.8049,-4.8049,-4.8049,-4.8133,-4.8301,-4.8301,-4.8469,-4.8604,-4.8604,-4.9147,-5.0026,-5.0843,-5.1623,-5.2649,-5.4828,-5.6122,-5.6867,0.0,0.0,0.0,0.0,0.0,0.0,0.0,-3.9025,0.0,0.0,0.0,0.0,0.0,0.0,-3.6538,0.0,0.0,-3.5223,-3.5663,-3.6317,0.0,0.0,0.0,-3.9362,0.0,0.0,-3.9697,-3.9697,-3.9697,-3.9697,-3.9697,-3.9878,-3.9878,-3.9697,0.0,-3.9878,0.0,0.0,0.0,0.0,0.0,-3.9697,-3.9697,0.0,0.0,-3.9697,-3.9697,-3.9878,0.0,-4.0389,-4.0694,-4.1097,-4.1198,-4.1324,-4.1424,-4.1696,-4.2235,0.0,0.0,0.0,-4.3273,-4.3273,0.0,0.0,0.0,0.0,0.0,0.0,0.0,0.0,0.0,0.0,0.0,-4.506,-4.4918,0.0,0.0,0.0,0.0,0.0,0.0,0.0,0.0,0.0,0.0,-4.8327,-4.8297,-4.8386,-4.8596,-4.8626,-4.8506,-4.8297,-4.8297,-4.7967,-4.7396,-4.7396,-4.7482,-4.7568,-4.7624,-4.7709,-4.7709,-4.788,-4.8049,-4.8133,-4.8133,-4.8133,-4.8218,-4.8385,-4.8903,-4.9678,-5.0151,-5.1102,-5.2511,-5.4289,-5.5141,-5.5446,-3.8291,0.0,0.0,0.0,0.0,0.0,0.0,0.0,0.0,0.0,-3.7769,0.0,-3.7816,0.0,-3.6228,0.0,-3.4674,-3.4419,-3.5024,-3.5443,0.0,-3.675,-3.8267,0.0,0.0,0.0,0.0,0.0,0.0,-3.9697,-3.9697,-3.9878,-3.9878,-3.9697,0.0,-3.9878,0.0,0.0,-3.9697,0.0,0.0,-3.9697,0.0,0.0,-3.9697,-3.9697,0.0,-3.9878,-4.0185,-4.0389,-4.0694,-4.0997,-4.1198,-4.1324,-4.1324,-4.1324,-4.1769,-4.2235,-4.2235,-4.2235,0.0,-4.2235,-4.2501,0.0,-4.3177,0.0,0.0,0.0,0.0,0.0,0.0,0.0,0.0,-4.3748,-4.3748,-4.3854,0.0,-4.4527,0.0,0.0,0.0,0.0,0.0,0.0,-4.7347,-4.701,-4.7189,-4.7399,0.0,0.0,-4.7698,-4.7938,-4.7938,-4.7728,-4.7309,-4.7309,-4.7309,-4.7309,-4.7452,-4.7452,-4.7452,-4.7624,-4.7794,-4.788,-4.788,-4.788,-4.8049,-4.8133,-4.8521,-4.9035,-4.9519,-5.0538,-5.1941,-5.3833,-5.5067,-5.575,0.0,0.0,0.0,0.0,-3.9697,0.0,0.0,0.0,-3.8479,0.0,-3.7873,-3.7725,-3.8227,-3.68,-3.5838,-3.5954,-3.4339,0.0,-3.5927,-3.5135,0.0,0.0,-3.7737,-3.7844,-3.7844,-3.905,0.0,0.0,0.0,-3.9697,-3.9697,-3.9697,-3.9697,-3.9697,-3.9697,0.0,-3.9697,-3.9697,-3.9697,-3.9697,-3.9697,-3.9697,-3.9697,-3.9697,-3.9697,-3.9697,-3.9697,-3.9878,-4.0083,-4.0389,-4.0694,-4.0896,-4.1198,-4.1324,-4.1324,-4.1324,-4.1324,-4.1324,-4.1324,-4.1324,-4.1324,-4.1324,0.0,0.0,0.0,0.0,-4.3937,0.0,0.0,0.0,0.0,0.0,0.0,-4.2695,-4.2695,-4.2863,-4.3286,0.0,0.0,0.0,0.0,0.0,0.0,-4.7521,-4.7281,-4.6386,-4.686,0.0,0.0,0.0,-4.6651,-4.7279,-4.7309,-4.7309,-4.7309,-4.7309,-4.7309,-4.7309,-4.7309,-4.7309,-4.7309,-4.7309,-4.7396,-4.7538,-4.7538,-4.7709,-4.7964,-4.7964,-4.7964,-4.8049,-4.9035,-4.9962,-5.1081,-5.3535,-5.5917,-5.7577,-3.8291,-3.8816,-3.9025,0.0,-3.9697,-3.9697,0.0,0.0,0.0,0.0,-3.6479,-3.5678,-3.6146,-3.5544,-3.505,-3.505,-3.408,0.0,0.0,0.0,0.0,-3.4043,-3.5663,-3.6619,-3.6619,-3.7737,0.0,-3.9697,0.0,0.0,-3.9697,-3.9697,-3.9697,-3.9697,0.0,0.0,-3.9697,-3.9697,-3.9697,-3.9697,-3.9697,-3.9697,0.0,0.0,-3.9697,-3.9697,-3.9697,-3.9697,-3.9878,-4.0083,-4.0389,-4.0694,-4.0896,-4.1097,-4.1324,-4.1324,-4.1324,-4.1324,-4.1324,-4.1324,-4.1324,-4.1324,-4.1498,-4.1769,0.0,0.0,0.0,0.0,0.0,0.0,0.0,0.0,0.0,0.0,-4.1696,-4.2012,0.0,0.0,0.0,-4.3967,0.0,0.0,-4.6048,-4.6048,-4.6036,-4.6237,-4.5992,0.0,0.0,0.0,0.0,-4.7309,-4.7309,-4.7309,-4.7309,-4.7309,-4.7309,-4.7309,-4.7309,-4.7309,-4.7309,-4.7309,-4.7309,-4.7396,-4.7396,-4.7396,-4.7452,-4.7624,-4.7709,-4.7709,-4.8187,-4.964,-5.1771,-5.3789,-5.5306,-5.6292,-3.8421,0.0,0.0,-3.9025,0.0,0.0,-3.929,0.0,0.0,-3.6745,-3.581,0.0,-3.5397,-3.5376,-3.5273,-3.5066,-3.4217,0.0,0.0,0.0,0.0,-3.3501,-3.4803,-3.5443,-3.5443,-3.6534,0.0,-3.8921,0.0,0.0,-3.9697,-3.9697,-3.9697,-3.9697,0.0,-3.9697,0.0,-3.9697,-3.9697,-3.9697,-3.9697,0.0,0.0,-3.9697,-3.9697,-3.9697,-3.9697,-3.9697,-3.9697,-3.9981,-4.0287,-4.0491,-4.0795,-4.0915,-4.0984,-4.1246,-4.0958,-4.0671,-4.1167,-4.1115,-4.0984,-4.1246,-4.1324,-4.1398,-4.2065,-4.1696,-4.1498,0.0,0.0,0.0,0.0,0.0,0.0,0.0,0.0,0.0,0.0,0.0,0.0,0.0,-4.3055,0.0,-4.4995,-4.4822,-4.4768,-4.4952,-4.5185,0.0,0.0,0.0,0.0,-4.7309,-4.7578,-4.7608,-4.7309,-4.7578,-4.7578,-4.7309,-4.7309,-4.7309,-4.7309,-4.7309,-4.7309,-4.7309,-4.7309,-4.7309,-4.7309,-4.7396,-4.7452,-4.7538,-4.8573,-4.9867,-5.1391,-5.319,-5.4631,-5.5784,0.0,0.0,0.0,0.0,0.0,0.0,0.0,-3.668,0.0,-3.6012,0.0,-3.5604,-3.5604,-3.5914,-3.5956,-3.5542,0.0,-3.4442,-3.5042,-3.3654,-3.3245,-3.4354,-3.4354,-3.4423,-3.4469,-3.5511,0.0,0.0,0.0,0.0,-3.9697,-3.9697,-3.9697,-3.9697,0.0,0.0,0.0,-3.9697,-3.9697,-3.9697,-3.9697,-3.9697,-3.9697,-3.9697,-3.9697,-3.9697,-3.9697,-3.9697,-3.9697,-3.9981,-4.0185,-4.0491,-4.0795,-4.0633,-4.0546,-4.1167,-4.054,-3.9939,-4.1036,-4.088,-4.0566,-4.1167,-4.1246,-4.1219,-4.1298,-4.1246,-4.1219,-4.1298,-4.1324,-4.1324,0.0,0.0,0.0,0.0,0.0,0.0,0.0,0.0,0.0,0.0,0.0,0.0,-4.4031,-4.4002,-4.391,-4.3728,0.0,0.0,0.0,0.0,0.0,-4.716,-4.7818,-4.7938,-4.7429,0.0,-4.7908,-4.7429,-4.7339,-4.7309,-4.7309,-4.7309,-4.7309,-4.7309,-4.7309,-4.7309,-4.7309,-4.7309,-4.7309,-4.7452,-4.9247,-5.0087,-5.055,-5.2131,-5.3777,-5.5376,0.0,0.0,0.0,0.0,0.0,-3.7702,-3.7005,-3.7144,-3.7449,-3.7536,-3.6959,-3.6556,-3.6556,-3.6287,-3.608,-3.5997,-3.5169,0.0,0.0,0.0,0.0,-3.3592,-3.3592,-3.3862,-3.4491,-3.5065,-3.618,0.0,0.0,0.0,-3.9697,-3.9697,-3.9697,-3.9697,0.0,0.0,-3.9981,-3.98,0.0,-3.9697,-3.9697,-3.9697,-3.9697,-3.9697,-3.9697,-3.9697,-3.9697,-3.9697,-3.9697,-3.98,-3.9981,-4.0185,-4.0491,-4.0718,-4.0867,-4.1172,-4.0827,-4.0435,-4.1115,-4.088,-4.0566,-4.1167,-4.0932,-4.0697,-4.1193,-4.0932,-4.0723,-4.1219,-4.1324,-4.1324,-4.1324,0.0,0.0,0.0,0.0,0.0,0.0,0.0,0.0,0.0,0.0,-4.3125,0.0,-4.4094,0.0,0.0,0.0,0.0,0.0,0.0,0.0,0.0,-4.713,0.0,0.0,0.0,-4.7698,-4.8117,-4.7549,-4.7309,-4.7309,-4.7309,-4.7309,-4.7309,-4.7309,-4.7309,-4.7309,-4.7309,-4.7309,-4.7366,-4.849,-4.9407,-5.0242,-5.1294,-5.2401,-5.3612,0.0,0.0,0.0,0.0,0.0,0.0,0.0,-3.7466,0.0,-3.7042,-3.6875,-3.6804,-3.6804,-3.6825,-3.6825,-3.6825,-3.5769,-3.5107,-3.5107,-3.401,-3.3368,-3.3368,-3.3368,0.0,-3.3614,-3.404,-3.5153,-3.7073,0.0,0.0,-3.9697,-3.9697,-3.98,-3.9878,0.0,-3.9981,0.0,0.0,0.0,-3.9697,-3.9697,-3.9697,-3.9697,-3.9697,-3.9697,-3.9697,-3.9697,-3.9697,-3.9697,-3.9697,-3.9878,-4.0185,-4.0389,-4.0488,-4.0508,-4.1119,-4.0697,-4.02,-4.1063,-4.088,-4.0566,-4.1167,-4.1089,-4.0958,-4.1246,-4.1089,-4.0958,-4.1246,-4.1324,-4.1324,-4.1324,-4.1324,0.0,0.0,0.0,0.0,0.0,0.0,0.0,0.0,0.0,0.0,0.0,0.0,0.0,0.0,0.0,0.0,0.0,0.0,0.0,0.0,0.0,0.0,0.0,0.0,0.0,-4.7788,-4.7459,-4.7309,-4.7309,-4.7309,-4.7309,-4.7309,-4.7309,-4.7309,-4.7309,-4.7309,-4.7309,-4.7396,-4.824,-4.9166,-5.0041,-5.0919,-5.2335,-5.4,0.0,-3.8975,0.0,0.0,-3.7144,0.0,-3.6808,-3.7591,-3.7798,-3.6701,-3.6867,-3.7094,-3.7094,-3.7343,-3.7488,-3.7488,-3.6308,-3.5562,-3.5562,-3.4383,-3.3617,-3.3534,-3.3513,-3.3285,-3.2747,-3.3161,-3.4154,0.0,0.0,0.0,0.0,-3.9594,-3.9878,0.0,0.0,0.0,0.0,0.0,-3.9697,-3.9697,-3.9697,-3.9697,-3.9697,-3.9697,-3.9697,-3.9697,-3.9697,-3.9697,-3.9697,-3.9697,-3.9878,-4.0083,-4.0287,-4.0284,-4.0227,-4.0967,-4.0494,-3.9991,-4.1036,-4.088,-4.0566,-4.1167,-4.1219,-4.1167,-4.1298,-4.1219,-4.1167,-4.1298,-4.1324,-4.1324,-4.1324,-4.1324,0.0,0.0,0.0,0.0,0.0,0.0,0.0,0.0,0.0,0.0,-4.3269,0.0,0.0,0.0,0.0,-4.4616,-4.4317,-4.5603,-4.6262,0.0,0.0,-4.7908,-4.7519,0.0,-4.7878,-4.7519,-4.7369,-4.7309,-4.7309,-4.7309,-4.7309,-4.7309,-4.7309,-4.7309,-4.7309,-4.7309,-4.7309,-4.7396,-4.8103,-4.8953,-4.9915,-5.073,-5.2398,-5.4316,0.0,0.0,0.0,0.0,0.0,0.0,0.0,-3.7591,-3.815,-3.8005,-3.8026,-3.8046,-3.8046,-3.7715,-3.7488,-3.7488,-3.6618,-3.6039,-3.6039,-3.5148,-3.4445,-3.4031,-3.401,-3.3596,-3.2747,-3.3161,-3.3832,0.0,0.0,-3.6858,0.0,-3.9154,-3.9878,0.0,0.0,0.0,0.0,-3.98,-3.9697,-3.9697,-3.9697,-3.9697,-3.9697,-3.9697,-3.9697,-3.9697,-3.9697,-3.9697,-3.9697,-3.9697,-3.9697,-3.98,-4.0083,-4.0262,-4.0541,-4.087,-4.0655,-4.0488,-4.1141,-4.088,-4.0566,-4.1167,-4.0906,-4.0644,-4.1193,-4.0906,-4.0644,-4.1193,-4.1324,-4.1324,-4.1324,-4.1324,-4.1324,0.0,0.0,0.0,0.0,0.0,-4.1115,-4.0566,0.0,0.0,0.0,-4.2049,0.0,0.0,-4.462,-4.5603,-4.4377,-4.5603,-4.6022,-4.5394,0.0,-4.7668,-4.8177,-4.7668,-4.7668,-4.8177,-4.7578,-4.7309,-4.7309,-4.7309,-4.7309,-4.7309,-4.7309,-4.7309,-4.7309,-4.7309,-4.7309,-4.7309,-4.7396,-4.8407,-4.99,-5.0612,-5.1641,-5.2843,0.0,0.0,0.0,0.0,0.0,0.0,0.0,-3.8129,-3.8191,-3.8191,-3.8191,-3.8191,-3.8191,-3.8026,-3.7902,-3.7902,-3.7053,-3.6535,-3.6535,-3.5148,-3.4258,-3.4072,-3.3803,-3.3368,-3.2747,-3.3161,-3.404,0.0,0.0,0.0,0.0,0.0,0.0,0.0,0.0,-3.9878,-3.9878,-3.98,-3.9697,-3.9697,-3.9697,-3.9697,-3.9697,-3.9697,-3.9697,-3.9697,-3.9697,-3.9697,-3.9697,-3.9697,-3.9697,-3.98,-3.9981,-4.0287,-4.0491,-4.0795,-4.0941,-4.101,-4.1246,-4.1141,-4.101,-4.1246,-4.1141,-4.101,-4.1272,-4.1115,-4.1036,-4.1272,-4.1324,-4.1324,-4.1324,-4.1324,-4.1324,0.0,0.0,0.0,0.0,0.0,0.0,-4.0488,0.0,-4.075,0.0,0.0,0.0,0.0,0.0,-4.4287,-4.3748,-4.4975,-4.5574,-4.5304,0.0,-4.7429,-4.7698,-4.7429,-4.7429,-4.7698,-4.7429,-4.7309,-4.7309,-4.7309,-4.7309,-4.7309,-4.7309,-4.7309,-4.7309,-4.7309,-4.7309,-4.7309,-4.7309,-4.8019,-4.9147,-4.9962,-5.1128,-5.2384,-3.9304,0.0,-3.8763,0.0,-3.8523,-3.8274,-3.8771,-3.8585,-3.8336,-3.8212,-3.8191,-3.8191,-3.8191,-3.8191,-3.8129,-3.8005,-3.726,-3.6742,-3.6618,-3.5252,-3.4341,-3.4072,-3.3762,0.0,-3.2747,-3.3037,-3.3798,-3.5223,-3.5859,0.0,0.0,0.0,0.0,0.0,-3.9878,-3.9878,-3.9697,-3.9697,-3.9697,-3.9697,-3.9697,-3.9697,-3.9697,-3.9697,-3.9697,-3.9697,-3.9697,-3.9697,-3.9697,-3.9697,-3.9697,-3.9697,-3.9878,-4.0185,-4.0389,-4.0593,-4.0896,-4.1123,-4.1198,-4.1198,-4.1198,-4.1324,-4.1324,-4.1324,-4.1324,-4.1324,-4.1324,-4.1324,-4.1324,-4.1324,-4.1324,-4.1324,-4.1324,-4.1324,0.0,0.0,0.0,-4.1597,0.0,-4.0949,-4.0585,-4.0881,-4.2116,-4.1877,0.0,0.0,0.0,0.0,-4.3329,-4.4586,0.0,0.0,0.0,0.0,0.0,-4.7309,-4.7309,-4.7309,-4.7309,-4.7309,-4.7309,-4.7309,-4.7309,-4.7309,-4.7309,-4.7309,-4.7309,-4.7309,-4.7309,-4.7309,-4.7309,-4.7849,-4.8738,-4.9739,-5.0863,-5.1967,-3.875,-3.8833,-3.8978,-3.9454,-3.9516,-3.9371,-3.8916,-3.8854,-3.8688,-3.8253,-3.8191,-3.8191,-3.8191,-3.8191,-3.8005,-3.755,-3.7074,-3.6618,-3.6142,-3.5666,-3.5004,0.0,0.0,-3.3637,-3.2747,-3.2747,-3.2727,-3.2727,0.0,0.0,-3.6294,0.0,-3.9697,-3.9697,-3.9697,-3.9697,-3.9697,-3.9697,-3.9697,-3.9697,-3.9697,-3.9697,-3.9697,-3.9697,-3.9697,-3.9697,-3.9697,-3.9697,-3.9697,-3.9697,-3.9697,-3.9697,-3.9697,-3.9878,-4.0083,-4.0083,-4.0287,-4.0593,-4.0795,-4.0896,-4.0997,-4.1198,-4.1324,-4.1324,-4.1324,-4.1324,-4.1324,-4.1324,-4.1324,-4.1324,-4.1324,-4.1324,-4.1324,-4.1324,0.0,0.0,0.0,-4.2137,0.0,-4.1978,-4.2214,-4.2233,-4.1674,-4.1851,0.0,0.0,0.0,0.0,0.0,0.0,0.0,-4.5304,-4.6591,0.0,-4.7309,-4.7309,-4.7309,-4.7309,-4.7309,-4.7309,-4.7309,-4.7309,-4.7309,-4.7309,-4.7309,-4.7309,-4.7309,-4.7309,-4.7309,-4.7309,-4.7309,-4.7849,-4.88,-5.0353,-5.0991,-5.1307,-3.9702,-3.9765,-3.9909,-4.0365,-3.9951,-3.9495,-3.9351,-3.8792,-3.8357,-3.8212,-3.8191,-3.8191,-3.8191,-3.7902,-3.7653,0.0,-3.6784,-3.6266,0.0,-3.5107,-3.4362,-3.4072,-3.3492,-3.3016,-3.2747,-3.2727,-3.3048,-3.3931,0.0,0.0,0.0,-3.8921,-3.9697,-3.9697,-3.9697,-3.9697,-3.9697,-3.9697,-3.9697,-3.9697,-3.9697,-3.9697,-3.9697,-3.9697,-3.9697,-3.9697,-3.9697,-3.9697,-3.9697,-3.9697,-3.9697,-3.9697,-3.9697,-3.9878,-4.0083,-4.0083,-4.0287,-4.0491,-4.0593,-4.0795,-4.0896,-4.0997,-4.1198,-4.1324,-4.1324,-4.1324,-4.1324,-4.1324,-4.1324,-4.1324,-4.1324,-4.1324,-4.1324,-4.1324,-4.1324,0.0,-4.1324,0.0,-4.1852,-4.1883,-4.2016,-4.2369,0.0,-4.3284,0.0,0.0,0.0,0.0,0.0,0.0,0.0,0.0,-4.686,0.0,-4.7309,-4.7309,-4.7309,-4.7309,-4.7309,-4.7309,-4.7309,-4.7309,-4.7309,-4.7309,-4.7309,-4.7309,-4.7309,-4.7309,-4.7309,-4.7309,-4.7309,-4.7452,-4.788,-4.8955,-4.9707,-5.0416,-4.0427,-4.0448,-4.053,-4.082,-4.0406,-3.9992,-3.9827,-3.9164,-3.8626,-3.846,-3.8295,-3.8191,-3.8191,-3.7612,0.0,-3.7488,-3.6804,-3.6308,-3.6121,-3.5148,-3.4424,-3.4072,-3.3534,-3.3078,-3.2747,-3.2727,0.0,-3.3818,-3.4267,-3.5663,-3.795,-3.8712,-3.9258,-3.9697,-3.9697,-3.9697,-3.9697,-3.9697,-3.9697,-3.9697,-3.9697,-3.9697,-3.9697,-3.9697,-3.9697,-3.9697,-3.9697,-3.9697,-3.9697,-3.9697,-3.9697,-3.9697,-3.9697,-3.98,-3.9981,-3.9981,-4.0083,-4.0211,-4.0287,-4.0491,-4.0567,-4.0694,-4.0997,-4.1198,-4.1324,-4.1324,-4.1324,-4.1324,-4.1324,-4.1324,-4.1324,-4.1324,-4.1324,-4.1324,-4.1324,-4.1398,-4.1769,0.0,-4.2683,0.0,0.0,0.0,0.0,-4.4523,-4.4482,0.0,0.0,0.0,0.0,0.0,0.0,-4.6322,-4.695,0.0,-4.7309,-4.7309,-4.7309,-4.7309,-4.7309,-4.7309,-4.7309,-4.7309,-4.7309,-4.7309,-4.7309,-4.7309,-4.7309,-4.7309,-4.7309,-4.7309,-4.7309,-4.7309,-4.7396,-4.824,-4.8953,-4.9519,-4.0882,-4.0882,-4.0882,0.0,-4.0841,0.0,-4.0303,-3.9827,-3.9371,-3.8916,-3.8481,-3.8212,-3.8191,-3.7405,-3.7074,-3.7508,0.0,0.0,0.0,-3.5625,-3.5004,-3.4155,-3.4051,-3.3637,-3.2789,-3.2747,-3.2727,-3.2727,-3.3931,-3.5553,-3.7631,-3.7713,-3.8372,-3.9594,-3.9594,-3.9594,-3.9697,-3.9697,-3.9697,-3.9697,-3.9697,-3.9697,-3.9697,-3.9697,-3.9697,-3.9697,-3.9697,-3.9697,-3.9697,-3.9697,-3.9697,-3.9697,-3.9697,-3.9697,-3.9697,-3.9697,-3.9697,-3.98,-3.9981,-4.0083,-4.0185,-4.0389,-4.0694,-4.0997,-4.1198,-4.1324,-4.1324,-4.1324,-4.1324,-4.1324,-4.1324,-4.1324,-4.1324,-4.1324,-4.1324,-4.1696,-4.2695,-4.3654,-4.4591,0.0,0.0,0.0,0.0,-4.5813,-4.5424,0.0,0.0,0.0,0.0,0.0,-4.6381,-4.6381,-4.698,-4.7309,-4.7309,-4.7309,-4.7309,-4.7309,-4.7309,-4.7309,-4.7222,-4.7222,-4.7222,-4.7222,-4.7222,-4.7222,-4.7222,-4.7309,-4.7309,-4.7309,-4.7309,-4.7309,-4.7396,-4.8157,-4.8573,-4.8821,0.0,0.0,-4.0882,-4.0882,-4.0593,-4.0344,-4.0241,-3.9827,-3.9371,-3.8916,-3.875,-3.8564,-3.8212,-3.7984,-3.7902,-3.8005,-3.6618,-3.5707,-3.5583,-3.5169,-3.4817,-3.461,-3.3927,-3.343,-3.3223,-3.2892,-3.2727,-3.2727,-3.3931,-3.4803,-3.5333,-3.6208,-3.718,-3.8372,-3.8372,-3.8816,-3.9697,-3.9697,-3.9697,-3.9697,-3.9697,-3.9697,-3.9697,-3.9697,-3.9697,-3.9697,-3.9697,-3.9697,-3.9697,-3.9697,-3.9697,-3.9697,-3.9697,-3.9697,-3.9697,-3.9697,-3.9697,-3.9697,-3.98,-3.9981,-4.0083,-4.0185,-4.0389,-4.0694,-4.0896,-4.0997,-4.0997,-4.0997,-4.1198,-4.1324,-4.1324,-4.1324,-4.1324,-4.1324,-4.1324,-4.1696,-4.2695,-4.2985,-4.3815,0.0,-4.5842,-4.6226,-4.6983,-4.692,-4.6621,0.0,0.0,0.0,0.0,-4.68,-4.707,-4.707,-4.7219,-4.7309,-4.7309,-4.7309,-4.7222,-4.7019,-4.7019,-4.6931,-4.6785,-4.6785,-4.6785,-4.6785,-4.6785,-4.6785,-4.6785,-4.6931,-4.7019,-4.7019,-4.7222,-4.7309,-4.7309,-4.7538,-4.8019,-4.8708,-4.1193,-4.1027,-4.0882,-4.0882,-4.0675,-4.053,-4.053,-3.9972,-3.9454,-3.9206,-3.8812,-3.846,-3.8212,-3.8005,-3.7881,-3.7881,-3.6763,-3.5956,-3.5749,-3.5128,-3.4672,-3.4445,-3.3969,-3.3596,-3.3389,-3.3141,-3.2934,-3.2727,-3.3388,-3.3931,-3.4469,-3.5113,-3.6317,-3.795,-3.795,-3.8607,-3.9697,-3.9697,-3.9697,-3.9697,-3.9697,-3.9697,-3.9697,-3.9697,-3.9697,-3.9697,-3.9697,-3.9697,-3.9697,-3.9697,-3.9697,-3.9697,-3.9697,-3.9697,-3.9697,-3.9697,-3.9697,-3.9697,-3.9697,-3.98,-3.9981,-4.0083,-4.0185,-4.0389,-4.0694,-4.0795,-4.0896,-4.0896,-4.1097,-4.1324,-4.1324,-4.1324,-4.1324,-4.1324,-4.1324,-4.1696,-4.2695,-4.3177,-4.4097,-4.5598,-4.6255,-4.6726,-4.7222,-4.7309,-4.716,-4.68,-4.71,0.0,-4.68,-4.71,-4.7309,-4.7309,-4.7309,-4.7309,-4.7309,-4.7309,-4.7193,-4.6931,-4.7019,-4.6931,-4.6609,-4.6668,-4.6668,-4.6609,-4.6609,-4.6609,-4.6609,-4.6844,-4.6931,-4.6931,-4.7222,-4.7309,-4.7309,-4.7309,-4.7624,-4.8187,-4.1586,-4.1255,-4.0965,-4.0882,-4.0882,-4.0862,-4.0779,-4.0137,-3.9599,-3.9454,-3.8771,-3.8253,-3.8191,-3.7839,-3.7612,-3.7612,-3.7177,-3.668,-3.6142,-3.5397,-3.4755,-3.43,-3.4217,-3.3989,-3.3596,-3.3451,-3.3203,-3.283,-3.2768,-3.3161,-3.4267,-3.4267,-3.5443,-3.7607,-3.7607,-3.8372,-3.9697,-3.9697,-3.9697,-3.9697,-3.9697,-3.9697,-3.9697,-3.9697,-3.9697,-3.9697,-3.9697,-3.9697,-3.9697,-3.9697,-3.9697,-3.9697,-3.9697,-3.9697,-3.9697,-3.9697,-3.9697,-3.9697,-3.9697,-3.9697,-3.98,-4.0083,-4.0083,-4.0083,-4.0389,-4.0593,-4.0795,-4.0795,-4.0997,-4.1198,-4.1324,-4.1324,-4.1224,-4.1324,-4.1324,-4.167,-4.2889,0.0,-4.4776,-4.5869,-4.6726,-4.7309,-4.7309,-4.7309,-4.7309,-4.7309,-4.7309,-4.7309,-4.7309,-4.7309,-4.7309,-4.7309,-4.7309,-4.7309,-4.7309,-4.7309,-4.7193,-4.6931,-4.7106,-4.7019,-4.658,-4.6756,-4.6668,-4.6491,-4.6491,-4.6491,-4.6491,-4.6756,-4.6844,-4.6844,-4.7135,-4.7309,-4.7309,-4.7309,-4.7309,-4.7538,-4.1648,-4.1503,-4.1338,-4.0944,-4.0882,-4.0758,-4.0386,-4.022,-3.9847,-3.9061,-3.8833,-3.8605,-3.8233,-3.8129,-3.8088,-3.8088,-3.7653,-3.7032,-3.6163,-3.5976,-3.5687,-3.5231,-3.4859,-3.461,-3.4548,-3.3782,-3.3348,-3.3265,-3.2913,-3.2841,-3.2955,-3.2955,-3.4246,-3.6511,-3.6511,-3.7713,-3.9697,-3.9697,-3.9697,-3.9697,-3.9697,-3.9697,-3.9697,-3.9697,-3.9697,-3.9697,-3.9697,-3.9697,-3.9697,-3.9697,-3.9697,-3.9697,-3.9697,-3.9697,-3.9697,-3.9697,-3.9697,-3.9697,-3.9697,-3.9697,-3.98,-4.0083,-3.9878,-3.9775,-4.0083,-4.0185,-4.0287,-4.0491,-4.0593,-4.0795,-4.1224,-4.1097,-4.0997,-4.1224,-4.1324,-4.1967,-4.3843,0.0,-4.4961,-4.6844,-4.7222,-4.7309,-4.7309,-4.7309,-4.7309,-4.7309,-4.7309,-4.7309,-4.7309,-4.7309,-4.7309,-4.7309,-4.7309,-4.7309,-4.7309,-4.7309,-4.7193,-4.6931,-4.6931,-4.6756,-4.6225,-4.6284,-4.6225,-4.5985,-4.5985,-4.5985,-4.6075,-4.6225,-4.6403,-4.6668,-4.6844,-4.7106,-4.7309,-4.7309,-4.7309,-4.7538,-4.2021,-4.1731,-4.1421,-4.0965,-4.0882,-4.082,-4.0613,-4.0158,-3.9702,-3.9268,-3.8792,-3.8419,-3.8212,-3.8191,-3.8191,-3.8191,-3.7984,-3.7467,-3.6556,-3.6018,-3.5542,-3.5086,-3.4859,-3.4755,-3.4755,-3.3844,-3.3368,-3.3368,-3.2934,-3.2727,-3.2727,-3.2727,-3.3593,-3.5333,-3.5333,-3.6534,-3.8712,-3.8712,-3.9154,-3.9697,-3.9697,-3.9697,-3.9697,-3.9697,-3.9697,-3.9697,-3.9697,-3.9697,-3.9697,-3.9697,-3.9697,-3.9697,-3.9697,-3.9697,-3.9697,-3.9697,-3.9697,-3.9697,-3.9697,-3.9697,-3.9697,-3.9878,-3.98,-3.9697,-3.9878,-3.9981,-4.0185,-4.0287,-4.0491,-4.0795,-4.0997,-4.1097,-4.1198,-4.1324,-4.1324,0.0,0.0,-4.3654,-4.4684,-4.5627,-4.6638,-4.7309,-4.7309,-4.7309,-4.7309,-4.7309,-4.7309,-4.7309,-4.7309,-4.7309,-4.7309,-4.7309,-4.7309,-4.7309,-4.7309,-4.7309,-4.7193,-4.6931,-4.7019,-4.6844,-4.6403,-4.6403,-4.6314,-4.6046,-4.5985,-4.5895,-4.5895,-4.6135,-4.6314,-4.6403,-4.6756,-4.7019,-4.7106,-4.7222,-4.7309,-4.7538,-4.2373,-4.1979,-4.1545,-4.0986,-4.0882,-4.0841,-4.0737,-4.0137,-3.9661,-3.9558,-3.8833,-3.8336,-3.8336,-3.8253,-3.8191,-3.8191,-3.8191,-3.7839,-3.7011,-3.6204,-3.55,-3.4941,-3.4921,-3.4921,-3.4921,-3.4113,-3.3637,-3.3534,-3.3099,-3.283,-3.2727,-3.2727,-3.3388,-3.4469,-3.4469,-3.5663,-3.7501,-3.7501,-3.8161,-3.9258,-3.9258,-3.9465,-3.9697,-3.9697,-3.9697,-3.9697,-3.9697,-3.9697,-3.9697,-3.9697,-3.9697,-3.9697,-3.9697,-3.9697,-3.9697,-3.9697,-3.9697,-3.9697,-3.9697,-3.9697,-3.9697,-3.9697,-3.9697,-3.9697,-3.9697,-3.9878,-3.9981,-4.0083,-4.0389,-4.0694,-4.0795,-4.0997,-4.1097,-4.1198,0.0,0.0,0.0,-4.3177,-4.4406,-4.4591,-4.6166,-4.7309,-4.7309,-4.7309,-4.7309,-4.7309,-4.7309,-4.7309,-4.7309,-4.7309,-4.7309,-4.7309,-4.7309,-4.7309,-4.7309,-4.7309,-4.7222,-4.7019,-4.7222,-4.7048,-4.6668,-4.6668,-4.6491,-4.6225,-4.6046,-4.5956,-4.5895,-4.6046,-4.6135,-4.6225,-4.658,-4.6756,-4.6844,-4.7106,-4.7222,-4.7452,-4.2435,-4.2228,-4.1917,-4.1027,-4.0882,-4.0737,-4.0344,-4.022,-4.0013,-3.9599,-3.9102,-3.8792,-3.8792,-3.844,-3.8191,-3.8191,-3.8191,-3.7964,-3.7467,-3.697,-3.6308,-3.5418,-3.5376,-3.5376,-3.5376,-3.49,-3.4445,-3.401,-3.3555,-3.312,-3.2727,-3.2727,-3.3388,-3.4469,-3.4469,-3.5223,-3.6294,-3.6294,-3.6965,-3.8056,-3.8056,-3.8712,-3.9697,-3.9697,-3.9697,-3.9697,-3.9697,-3.9697,-3.9697,-3.9697,-3.9697,-3.9697,-3.9697,-3.9697,-3.9697,-3.9697,-3.9697,-3.9697,-3.9697,-3.9697,-3.9697,-3.9697,-3.9697,-3.9697,-3.9697,-3.9697,-3.98,-4.0083,-3.9878,-3.9903,-4.0415,-4.0517,-4.0593,-4.0896,0.0,0.0,-4.2501,-4.3654,-4.4684,-4.5598,-4.6638,-4.7309,-4.7309,-4.7309,-4.7309,-4.7309,-4.7309,-4.7309,-4.7309,-4.7309,-4.7309,-4.7309,-4.7309,-4.7309,-4.7309,-4.7309,-4.7309,-4.7309,-4.7309,-4.7106,-4.6844,-4.6844,-4.6668,-4.6225,-4.6225,-4.6046,-4.5895,-4.5895,-4.6046,-4.6225,-4.6225,-4.6403,-4.6697,-4.6844,-4.6931,-4.7076,-4.2787,-4.2663,-4.2373,-4.1462,-4.1296,-4.1151,-4.0696,-4.0406,-4.0158,-3.9992,-3.9309,-3.8854,-3.8854,-3.846,-3.8191,-3.8191,-3.8191,-3.786,-3.7115,-3.6908,-3.639,-3.5459,-3.5418,-3.5418,-3.5418,-3.4983,-3.4527,-3.4072,-3.3596,-3.3161,-3.2727,-3.2727,-3.2955,-3.3388,-3.3388,-3.4043,-3.5113,-3.5113,-3.5772,-3.6858,-3.6858,-3.7501,-3.8607,-3.8607,-3.905,-3.9697,-3.9697,-3.9697,-3.9697,-3.9697,-3.9697,-3.9697,-3.9697,-3.9697,-3.9697,-3.9697,-3.9697,-3.9697,-3.9697,-3.9697,-3.9697,-3.9697,-3.9697,-3.9697,-3.9697,-3.9697,-3.9697,-3.9775,-3.9878,-3.9981,-4.0185,-4.0389,-4.0491,-4.0593,0.0,-4.1198,-4.1544,-4.3177,-4.4406,-4.4869,-4.6284,-4.7309,-4.7309,-4.7309,-4.7309,-4.7309,-4.7309,-4.7309,-4.7309,-4.7309,-4.7309,-4.7309,-4.7309,-4.7309,-4.7309,-4.7309,-4.7309,-4.7309,-4.7309,-4.7222,-4.7106,-4.7019,-4.6756,-4.6403,-4.6314,-4.6046,-4.5895,-4.5895,-4.5985,-4.6046,-4.6135,-4.6225,-4.6403,-4.658,-4.6668,-4.6844,-4.3014,-4.2807,-4.2476,-4.171,-4.1441,-4.1234,-4.0924,-4.0634,-4.0386,-4.0241,-3.9558,-3.9019,-3.8874,-3.846,-3.8191,-3.8191,-3.8191,-3.7922,-3.7281,-3.697,-3.639,-3.5459,-3.5418,-3.5418,-3.5418,-3.5128,-3.4734,-3.4279,-3.3969,-3.3596,-3.3141,-3.2996,-3.2934,-3.2934,-3.2789,-3.3161,-3.3931,-3.3931,-3.458,-3.5663,-3.5663,-3.6317,-3.7394,-3.7737,-3.8372,-3.9154,-3.9594,-3.9697,-3.9697,-3.9697,-3.9697,-3.9697,-3.9697,-3.9697,-3.9697,-3.9697,-3.9697,-3.9697,-3.9697,-3.9697,-3.9697,-3.9697,-3.9697,-3.9697,-3.9697,-3.9697,-3.9697,-3.9697,-3.9878,-3.9981,-3.9981,-4.0185,-4.0389,-4.0389,-4.0593,-4.0795,-4.0896,-4.2792,-4.4219,-4.4312,-4.6077,-4.7309,-4.7309,-4.7309,-4.7309,-4.7309,-4.7309,-4.7309,-4.7309,-4.7309,-4.7309,-4.7309,-4.7309,-4.7309,-4.7309,-4.7309,-4.7309,-4.7309,-4.7309,-4.7309,-4.7309,-4.7106,-4.6844,-4.6609,-4.6403,-4.6135,-4.5895,-4.5895,-4.5895,-4.5895,-4.6046,-4.6135,-4.6135,-4.6403,-4.6491,-4.658,-4.3014,-4.2559,-4.2124,-4.1648,-4.1193,-4.0882,-4.0882,-4.0882,-4.0717,-4.0282,-3.9827,-3.9371,-3.8895,-3.846,-3.8191,-3.8191,-3.8191,-3.8191,-3.8171,-3.7301,-3.639,-3.5459,-3.5418,-3.5418,-3.5418,-3.5418,-3.5211,-3.4755,-3.4755,-3.4527,-3.4051,-3.3596,-3.3368,-3.3348,-3.2934,-3.2727,-3.2727,-3.2727,-3.3388,-3.4469,-3.4469,-3.5113,-3.6294,-3.7394,-3.7844,-3.8056,-3.9258,-3.9697,-3.9697,-3.9697,-3.9697,-3.9697,-3.9697,-3.9697,-3.9697,-3.9697,-3.9697,-3.9697,-3.9697,-3.9697,-3.9697,-3.9697,-3.9697,-3.9697,-3.9697,-3.9697,-3.9697,-3.9697,-3.9697,-3.9697,-3.9697,-3.9903,-4.0083,-4.0083,-4.0287,-4.0593,-4.0896,-4.2668,-4.4003,-4.4312,-4.6077,-4.7309,-4.7309,-4.7309,-4.7309,-4.7309,-4.7309,-4.7309,-4.7309,-4.7309,-4.7309,-4.7309,-4.7309,-4.7309,-4.7309,-4.7309,-4.7309,-4.7309,-4.7309,-4.7309,-4.7309,-4.7309,-4.7048,-4.6609,-4.6609,-4.6314,-4.5895,-4.5895,-4.5895,-4.5895,-4.5895,-4.5895,-4.5895,-4.6135,-4.6225,-4.6225,-4.3428,-4.3035,-4.258,-4.2124,-4.1669,-4.1255,-4.0924,-4.0882,-4.0717,-4.0282,-3.9827,-3.9371,-3.8895,-3.846,-3.8191,-3.8191,-3.8191,-3.7902,-3.726,-3.666,-3.6059,-3.5438,-3.5418,-3.5418,-3.5418,-3.5418,-3.5211,-3.4755,-3.4755,-3.4362,-3.3575,-3.3451,-3.3223,-3.2913,-3.2789,-3.2727,-3.2727,-3.2727,-3.2955,-3.3275,-3.3275,-3.3931,-3.5113,-3.6317,-3.718,-3.8056,-3.9258,-3.9697,-3.9697,-3.9697,-3.9697,-3.9697,-3.9697,-3.9697,-3.9697,-3.9697,-3.9697,-3.9697,-3.9697,-3.9697,-3.9697,-3.9697,-3.9697,-3.9697,-3.9697,-3.9998,-4.0275,-4.0275,-4.0576,-4.0852,-4.0852,-4.0631,-4.0354,-4.0354,-4.0234,-4.0287,-4.0389,-4.1617,-4.293,-4.3882,-4.5207,-4.6344,-4.7222,-4.7309,-4.7309,-4.7309,-4.7309,-4.7309,-4.7309,-4.7309,-4.7309,-4.7309,-4.7309,-4.7309,-4.7309,-4.7309,-4.7309,-4.7309,-4.7309,-4.7309,-4.7309,-4.7309,-4.7048,-4.6609,-4.6609,-4.6314,-4.5895,-4.5895,-4.5895,-4.5895,-4.5895,-4.5895,-4.5895,-4.5956,-4.5956,-4.6046,-4.3366,-4.3118,-4.2828,-4.2559,-4.2,-4.1462,-4.1193,-4.0986,-4.0717,-4.0282,-3.9992,-3.964,-3.9164,-3.8709,-3.846,-3.846,-3.8295,-3.7881,-3.7115,-3.6825,-3.637,-3.5728,-3.5707,-3.5604,-3.5418,-3.5418,-3.5293,-3.5024,-3.5024,-3.4652,-3.3927,-3.3741,-3.341,-3.2996,-3.2996,-3.2892,-3.2747,-3.2913,-3.2892,-3.2727,-3.2727,-3.3161,-3.3931,-3.553,-3.6619,-3.7394,-3.9154,-3.9697,-3.9697,-3.9697,-3.9697,-3.9697,-3.9697,-3.9697,-3.9697,-3.9697,-3.9697,-3.9697,-3.9697,-3.9697,-3.9697,-3.9697,-3.9697,-3.9697,-3.9697,-4.0124,-4.0526,-4.0526,-4.0953,-4.1329,-4.1329,-4.1078,-4.0777,-4.0551,-4.0329,-4.0234,-4.0108,-4.1119,-4.2252,-4.3598,-4.4627,-4.5779,-4.7019,-4.7106,-4.7222,-4.7309,-4.7309,-4.7309,-4.7309,-4.7309,-4.7309,-4.7309,-4.7309,-4.7309,-4.7309,-4.7309,-4.7309,-4.7309,-4.7309,-4.7309,-4.7309,-4.7309,-4.7135,-4.6668,-4.658,-4.6403,-4.6046,-4.5985,-4.5895,-4.5895,-4.5895,-4.5895,-4.5895,-4.5895,-4.5895,-4.5895,-4.3056,-4.2952,-4.2911,-4.2911,-4.2166,-4.1565,-4.1565,-4.1172,-4.0717,-4.0282,-4.0199,-3.9992,-3.9537,-3.9061,-3.8792,-3.8792,-3.8419,-3.7984,-3.7529,-3.7488,-3.7094,-3.6204,-3.6142,-3.5914,-3.55,-3.5438,-3.5418,-3.5418,-3.5418,-3.519,-3.4755,-3.432,-3.3886,-3.343,-3.343,-3.3223,-3.2871,-3.3265,-3.3182,-3.2789,-3.2789,-3.2768,-3.2955,-3.5333,-3.6185,-3.6511,-3.8816,-3.9697,-3.9697,-3.9697,-3.9697,-3.9697,-3.9697,-3.9697,-3.9697,-3.9697,-3.9697,-3.9697,-3.9697,-3.9722,-3.9772,-3.9772,-3.9798,-3.9823,-3.9772,-4.0224,-4.0651,-4.0651,-4.1103,-4.148,-4.148,-4.1455,-4.1254,-4.0752,-4.0626,-4.0505,-4.0183,-4.0948,-4.1967,-4.33,-4.4284,-4.5298,-4.6638,-4.6814,-4.7019,-4.7309,-4.7309,-4.7309,-4.7309,-4.7309,-4.7309,-4.7309,-4.7309,-4.7309,-4.7309,-4.7309,-4.7309,-4.7309,-4.7309,-4.7309,-4.7309,-4.7309,-4.7106,-4.6931,-4.6668,-4.6491,-4.6225,-4.5956,-4.5895,-4.5895,-4.5895,-4.5895,-4.5895,-4.5895,-4.5895,-4.5895,-4.3491,-4.318,-4.2911,-4.2911,-4.2166,-4.1565,-4.1565,-4.1172,-4.0717,-4.0282,-3.9909,-3.9516,-3.904,-3.8605,-3.8336,-3.8336,-3.8233,-3.7984,-3.7529,-3.7488,-3.7239,-3.668,-3.6308,-3.6059,-3.5976,-3.5604,-3.5418,-3.5418,-3.5418,-3.519,-3.4755,-3.4652,-3.4362,-3.3927,-3.3927,-3.3865,-3.3782,-3.3886,-3.3658,-3.3244,-3.3244,-3.3037,-3.2955,-3.5333,-3.6185,-3.6511,-3.8816,-3.9697,-3.9697,-3.9697,-3.9697,-3.9697,-3.9697,-3.9697,-3.9697,-3.9697,-3.9697,-3.9697,-3.9697,-3.9998,-4.035,-4.035,-4.0651,-4.0877,-4.0425,-4.1103,-4.1806,-4.1806,-4.2233,-4.2635,-4.2635,-4.2258,-4.1932,-4.1806,-4.143,-4.1128,-4.1109,-4.0917,-4.1209,-4.2478,-4.3133,-4.3975,-4.5298,-4.6344,-4.7019,-4.7309,-4.7309,-4.7309,-4.7309,-4.7309,-4.7309,-4.7309,-4.7309,-4.7309,-4.7309,-4.7309,-4.7309,-4.7309,-4.7309,-4.7309,-4.7309,-4.7309,-4.7106,-4.6931,-4.6844,-4.658,-4.6225,-4.6135,-4.6046,-4.5895,-4.5895,-4.5895,-4.5895,-4.5895,-4.5895,-4.5895,-4.3325,-4.3263,-4.3242,-4.3242,-4.2683,-4.2145,-4.1938,-4.1503,-4.1048,-4.0593,-4.0323,-4.0075,-3.9847,-3.9226,-3.8667,-3.8233,-3.8191,-3.8088,-3.7839,-3.7819,-3.7612,-3.7156,-3.668,-3.6432,-3.6432,-3.5769,-3.5418,-3.5418,-3.5418,-3.519,-3.4755,-3.4755,-3.4507,-3.4072,-3.43,-3.4279,-3.4072,-3.4072,-3.3803,-3.3348,-3.3161,-3.2934,-3.2955,-3.5333,-3.6185,-3.6511,-3.8816,-3.9697,-3.9697,-3.9697,-3.9697,-3.9697,-3.9697,-3.9697,-3.9747,-3.9998,-4.0099,-4.0149,-4.04,-4.0701,-4.0902,-4.0902,-4.1329,-4.158,-4.1028,-4.1555,-4.2158,-4.2158,-4.2585,-4.2986,-4.2986,-4.2735,-4.2459,-4.2208,-4.1907,-4.163,-4.1379,-4.1103,-4.1199,-4.2134,-4.2896,-4.3931,-4.5446,-4.6373,-4.6931,-4.7106,-4.7222,-4.7309,-4.7309,-4.7309,-4.7309,-4.7309,-4.7309,-4.7309,-4.7309,-4.7309,-4.7309,-4.7309,-4.7309,-4.7309,-4.7309,-4.7309,-4.7222,-4.7106,-4.6931,-4.6756,-4.6403,-4.6225,-4.6046,-4.5895,-4.5895,-4.5895,-4.5895,-4.5895,-4.5895,-4.5895,-4.3118,-4.3346,-4.3615,-4.3615,-4.3221,-4.2787,-4.2435,-4.1917,-4.1421,-4.1048,-4.0862,-4.0758,-4.0758,-3.9951,-3.9081,-3.8253,-3.8191,-3.8191,-3.8191,-3.8191,-3.8026,-3.7632,-3.7094,-3.6846,-3.6929,-3.5935,-3.5459,-3.5542,-3.5459,-3.5231,-3.4879,-3.4879,-3.4672,-3.432,-3.461,-3.4548,-3.4176,-3.4093,-3.3803,-3.3348,-3.2975,-3.2789,-3.2955,-3.5113,-3.5859,-3.6185,-3.8582,-3.954,-3.9848,-3.9848,-3.9898,-3.9948,-3.9873,-3.9898,-4.0049,-4.04,-4.0576,-4.0752,-4.1229,-4.1404,-4.148,-4.148,-4.1882,-4.2183,-4.1731,-4.1982,-4.2308,-4.2308,-4.266,-4.2986,-4.2986,-4.2986,-4.2836,-4.2359,-4.2308,-4.2133,-4.1681,-4.153,-4.1625,-4.2061,-4.3104,-4.436,-4.5949,-4.6638,-4.7022,-4.6992,-4.7078,-4.7222,-4.7222,-4.7222,-4.7222,-4.7309,-4.7309,-4.7309,-4.7309,-4.7309,-4.7309,-4.7309,-4.7309,-4.7309,-4.7309,-4.7309,-4.7309,-4.7309,-4.7019,-4.6844,-4.658,-4.6403,-4.6135,-4.5895,-4.5895,-4.5895,-4.5895,-4.5895,-4.5895,-4.5895,-4.3532,-4.3573,-4.3615,-4.3615,-4.3221,-4.2911,-4.2849,-4.2104,-4.1545,-4.1483,-4.08,-4.0303,-4.0282,-3.9475,-3.873,-3.8233,-3.8191,-3.8191,-3.8191,-3.8191,-3.815,-3.8088,-3.726,-3.6991,-3.7384,-3.6101,-3.5625,-3.6018,-3.5625,-3.5397,-3.5335,-3.5335,-3.5293,-3.5231,-3.49,-3.4714,-3.4631,-3.4238,-3.3803,-3.3368,-3.3306,-3.3058,-3.2841,-3.4267,-3.4692,-3.5024,-3.7287,-3.9111,-4.04,-4.04,-4.0727,-4.1028,-4.0551,-4.0727,-4.1028,-4.0626,-4.0852,-4.1254,-4.1329,-4.1681,-4.2057,-4.2057,-4.2459,-4.2836,-4.276,-4.2811,-4.2861,-4.2861,-4.2936,-4.2986,-4.2986,-4.2986,-4.2961,-4.2886,-4.2861,-4.2836,-4.276,-4.2333,-4.2116,-4.2149,-4.3544,-4.4798,-4.5657,-4.6587,-4.7254,-4.7435,-4.6993,-4.6756,-4.6931,-4.6931,-4.7019,-4.7309,-4.7309,-4.7309,-4.7309,-4.7309,-4.7309,-4.7309,-4.7309,-4.7309,-4.7309,-4.7309,-4.7309,-4.7309,-4.7309,-4.7048,-4.6609,-4.658,-4.6314,-4.5895,-4.5895,-4.5895,-4.5895,-4.5895,-4.5895,-4.5895,-4.3615,-4.3615,-4.3615,-4.3615,-4.3449,-4.3221,-4.2952,-4.258,-4.2145,-4.1628,-4.1214,-4.0862,-4.0593,-3.9765,-3.8957,-3.8253,-3.8191,-3.8191,-3.8191,-3.8191,-3.8191,-3.8191,-3.755,-3.7405,-3.7881,-3.6763,-3.6287,-3.6494,-3.5769,-3.5418,-3.5418,-3.5418,-3.5418,-3.5397,-3.4962,-3.4755,-3.4734,-3.4258,-3.3803,-3.3368,-3.3368,-3.3265,-3.3173,-3.4129,-3.4644,-3.52,-3.7496,-3.9043,-3.9937,-4.0739,-4.1128,-4.1304,-4.1053,-4.1153,-4.1354,-4.1404,-4.1605,-4.1856,-4.2183,-4.2434,-4.261,-4.261,-4.2785,-4.2986,-4.2986,-4.2986,-4.2986,-4.2986,-4.2986,-4.2986,-4.2986,-4.2986,-4.2986,-4.2986,-4.2986,-4.2986,-4.2986,-4.276,-4.2705,-4.3028,-4.4013,-4.4947,-4.5774,-4.7037,-4.757,-4.731,-4.755,-4.7346,-4.6785,-4.7555,-4.7703,-4.7135,-4.7581,-4.7668,-4.7309,-4.7309,-4.7309,-4.7309,-4.7309,-4.7309,-4.7309,-4.7309,-4.7309,-4.7309,-4.7309,-4.7048,-4.6609,-4.6609,-4.6343,-4.5895,-4.5895,-4.5895,-4.5895,-4.5895,-4.5895,-4.5895]}]]